[[{"header":{"parameterUnit":"m.s-1","parameterCategory":1,"la1":30.6,"la2":29.2853,"lo1":-89.7004,"lo2":-87.6739,"dy":0.0162,"dx":0.0183,"nx":112,"ny":82,"refTime":"2023-03-19T06:00:00:Z","depth":0,"parameterNumber":2,"parameterNumberName":"U-component_of_WINDS"},"data":[0.0,0.0,0.0,0.0,0.0,0.0,0.0,0.0,0.0,0.0,0.0,0.0,0.0,0.0,0.0,0.0,0.0,0.0,0.0,0.0,0.0,0.0,0.0,0.0,0.0,0.0,0.0,0.0,0.0,0.0,0.0,0.0,0.0,0.0,0.0,0.0,0.0,0.0,0.0,0.0,0.0,0.0,0.0,0.0,0.0,0.0,0.0,0.0,0.0,0.0,0.0,0.0,0.0,0.0,0.0,0.0,0.0,0.0,0.0,0.0,0.0,0.0,0.0,0.0,0.0,0.0,0.0,0.0,0.0,0.0,0.0,0.0,0.0,0.0,0.0,0.0,0.0,0.0,0.0,0.0,0.0,0.0,0.0,0.0,0.0,0.0,0.0,0.0,0.0,0.0,1.885,2.1062,2.3379,2.4664,2.447,2.2657,2.0737,1.8822,0.0,0.0,0.0,0.0,0.0,0.0,0.0,0.0,0.0,0.0,0.0,0.0,0.0,0.0,0.0,0.0,0.0,0.0,0.0,0.0,0.0,0.0,0.0,0.0,0.0,0.0,0.0,0.0,0.0,0.0,0.0,0.0,0.0,0.0,0.0,0.0,0.0,0.0,0.0,0.0,0.0,0.0,0.0,0.0,0.0,0.0,0.0,0.0,0.0,0.0,0.0,0.0,0.0,0.0,0.0,0.0,0.0,0.0,0.0,0.0,0.0,0.0,0.0,0.0,0.0,0.0,0.0,0.0,0.0,0.0,0.0,0.0,0.0,0.0,0.0,0.0,0.0,0.0,0.0,0.0,0.0,0.0,0.0,0.0,0.0,0.0,0.0,0.0,0.0,0.0,0.0,0.0,0.0,0.0,0.0,0.0,0.0,0.0,0.0,0.0,0.0,0.0,0.0,0.0,2.0587,2.3678,2.4874,2.499,2.3849,2.1969,2.0234,1.8783,0.0,0.0,0.0,0.0,0.0,0.0,0.0,0.0,0.0,0.0,0.0,0.0,0.0,0.0,0.0,0.0,0.0,0.0,0.0,0.0,0.0,0.0,0.0,0.0,0.0,0.0,0.0,0.0,0.0,0.0,0.0,0.0,0.0,0.0,0.0,0.0,0.0,0.0,0.0,0.0,0.0,0.0,0.0,0.0,0.0,0.0,0.0,0.0,0.0,0.0,0.0,0.0,0.0,0.0,0.0,0.0,0.0,0.0,0.0,0.0,0.0,0.0,0.0,0.0,0.0,0.0,0.0,0.0,0.0,0.0,0.0,0.0,0.0,0.0,0.0,0.0,0.0,0.0,0.0,0.0,0.0,0.0,0.0,0.0,0.0,0.0,0.0,0.0,0.0,0.0,0.0,0.0,0.0,0.0,0.0,0.0,0.0,0.0,0.0,0.0,0.0,0.0,0.0,2.0821,2.2039,2.5319,2.5633,2.5049,2.3714,2.2158,2.0677,1.9339,1.9235,0.0,0.0,0.0,0.0,0.0,0.0,0.0,0.0,0.0,0.0,0.0,0.0,0.0,0.0,0.0,0.0,0.0,0.0,0.0,0.0,0.0,0.0,0.0,0.0,0.0,0.0,0.0,0.0,0.0,0.0,0.0,0.0,0.0,0.0,0.0,0.0,0.0,0.0,0.0,0.0,0.0,0.0,0.0,0.0,0.0,0.0,0.0,0.0,0.0,0.0,0.0,0.0,0.0,0.0,0.0,0.0,0.0,0.0,0.0,0.0,0.0,0.0,0.0,0.0,0.0,0.0,0.0,0.0,0.0,0.0,0.0,0.0,0.0,0.0,0.0,0.0,0.0,0.0,0.0,0.0,0.0,0.0,0.0,0.0,0.0,0.0,0.0,0.0,0.0,0.0,0.0,0.0,0.0,0.0,0.0,0.0,0.0,0.0,0.0,0.0,0.0,0.0,2.2378,2.3236,2.6063,2.5914,2.499,2.3505,2.2203,2.0961,1.9768,1.9549,0.0,0.0,0.0,0.0,0.0,0.0,0.0,0.0,0.0,0.0,0.0,0.0,0.0,0.0,0.0,0.0,0.0,0.0,0.0,0.0,0.0,0.0,0.0,0.0,0.0,0.0,0.0,0.0,0.0,0.0,0.0,0.0,0.0,0.0,0.0,0.0,0.0,0.0,0.0,0.0,0.0,0.0,0.0,0.0,0.0,0.0,0.0,0.0,0.0,0.0,0.0,0.0,0.0,0.0,0.0,0.0,0.0,0.0,0.0,0.0,0.0,0.0,0.0,0.0,0.0,0.0,0.0,0.0,0.0,0.0,0.0,0.0,0.0,0.0,0.0,0.0,0.0,0.0,0.0,0.0,0.0,0.0,0.0,0.0,0.0,0.0,0.0,0.0,0.0,0.0,0.0,0.0,0.0,0.0,0.0,0.0,0.0,0.0,0.0,0.0,0.0,0.0,2.3141,2.4029,2.5498,2.5618,2.4837,2.2927,2.1545,2.0458,1.9753,1.9115,0.0,0.0,0.0,0.0,0.0,0.0,0.0,0.0,0.0,0.0,0.0,0.0,0.0,0.0,0.0,0.0,0.0,0.0,0.0,0.0,0.0,0.0,0.0,0.0,0.0,0.0,0.0,0.0,0.0,0.0,0.0,0.0,0.0,0.0,0.0,0.0,0.0,0.0,0.0,0.0,0.0,0.0,0.0,0.0,0.0,0.0,0.0,0.0,0.0,0.0,0.0,0.0,0.0,0.0,0.0,0.0,0.0,0.0,0.0,0.0,0.0,0.0,0.0,0.0,0.0,0.0,0.0,0.0,0.0,0.0,0.0,0.0,0.0,0.0,0.0,0.0,0.0,0.0,0.0,0.0,0.0,0.0,0.0,0.0,0.0,0.0,0.0,0.0,0.0,0.0,0.0,0.0,0.0,0.0,0.0,0.0,0.0,0.0,0.0,0.0,0.0,0.0,2.346,2.4268,0.0,2.5483,2.4362,2.2823,2.0867,1.957,1.9221,0.0,0.0,0.0,0.0,0.0,0.0,0.0,0.0,0.0,0.0,0.0,0.0,0.0,0.0,0.0,0.0,0.0,0.0,0.0,0.0,0.0,0.0,0.0,0.0,0.0,0.0,0.0,0.0,0.0,0.0,0.0,0.0,0.0,0.0,0.0,0.0,0.0,0.0,0.0,0.0,0.0,0.0,0.0,0.0,0.0,0.0,0.0,0.0,0.0,0.0,0.0,0.0,0.0,0.0,0.0,0.0,0.0,0.0,0.0,0.0,0.0,0.0,0.0,0.0,0.0,0.0,0.0,0.0,0.0,0.0,0.0,0.0,0.0,0.0,0.0,0.0,0.0,0.0,0.0,0.0,0.0,0.0,0.0,0.0,0.0,0.0,0.0,0.0,0.0,0.0,0.0,0.0,0.0,0.0,0.0,0.0,0.0,0.0,0.0,0.0,0.0,0.0,2.2986,2.3131,2.3749,0.0,2.4942,2.3674,2.2245,2.0221,1.8997,1.8902,0.0,0.0,0.0,0.0,0.0,0.0,0.0,0.0,0.0,0.0,0.0,0.0,0.0,0.0,0.0,0.0,0.0,0.0,0.0,0.0,0.0,0.0,0.0,0.0,0.0,0.0,0.0,0.0,0.0,0.0,0.0,0.0,0.0,0.0,0.0,0.0,0.0,0.0,0.0,0.0,0.0,0.0,0.0,0.0,0.0,0.0,0.0,0.0,0.0,0.0,0.0,0.0,0.0,0.0,0.0,0.0,0.0,0.0,0.0,0.0,0.0,0.0,0.0,0.0,0.0,0.0,0.0,0.0,0.0,0.0,0.0,0.0,0.0,0.0,0.0,0.0,0.0,0.0,0.0,0.0,0.0,0.0,0.0,0.0,0.0,0.0,0.0,0.0,0.0,0.0,0.0,0.0,0.0,0.0,0.0,0.0,0.0,0.0,0.0,0.0,0.0,0.0,2.2361,2.2095,2.243,2.4368,2.3926,2.2773,2.1033,1.9656,1.8888,0.0,0.0,0.0,0.0,0.0,0.0,0.0,0.0,0.0,0.0,0.0,0.0,0.0,0.0,0.0,0.0,0.0,0.0,0.0,0.0,0.0,0.0,0.0,0.0,0.0,0.0,0.0,0.0,0.0,0.0,0.0,0.0,0.0,0.0,0.0,0.0,0.0,0.0,0.0,0.0,0.0,0.0,0.0,0.0,0.0,0.0,0.0,0.0,0.0,0.0,0.0,0.0,0.0,0.0,0.0,0.0,0.0,0.0,0.0,0.0,0.0,0.0,0.0,0.0,0.0,0.0,0.0,0.0,0.0,0.0,0.0,0.0,0.0,0.0,0.0,0.0,0.0,0.0,0.0,0.0,0.0,0.0,0.0,0.0,0.0,0.0,0.0,0.0,0.0,0.0,0.0,0.0,0.0,0.0,0.0,0.0,0.0,0.0,0.0,0.0,0.0,0.0,0.0,2.1731,2.1493,2.1678,2.3111,2.2643,2.1679,2.0301,1.9055,1.8344,1.8342,0.0,0.0,0.0,0.0,0.0,0.0,0.0,0.0,0.0,0.0,0.0,0.0,0.0,0.0,0.0,0.0,0.0,0.0,0.0,0.0,0.0,0.0,0.0,0.0,0.0,0.0,0.0,0.0,0.0,0.0,0.0,0.0,0.0,0.0,0.0,0.0,0.0,0.0,0.0,0.0,0.0,0.0,0.0,0.0,0.0,0.0,0.0,0.0,0.0,0.0,0.0,0.0,0.0,0.0,0.0,0.0,0.0,0.0,0.0,0.0,0.0,0.0,0.0,0.0,0.0,0.0,0.0,0.0,0.0,0.0,0.0,0.0,0.0,0.0,0.0,0.0,0.0,0.0,0.0,0.0,0.0,0.0,0.0,0.0,0.0,0.0,0.0,0.0,0.0,0.0,0.0,0.0,0.0,0.0,0.0,0.0,0.0,0.0,0.0,0.0,0.0,0.0,2.1075,2.0828,2.1036,2.249,2.2251,2.1334,1.9723,1.9113,1.8612,1.8131,0.0,0.0,0.0,0.0,0.0,0.0,0.0,0.0,0.0,0.0,0.0,0.0,0.0,0.0,0.0,0.0,0.0,0.0,0.0,0.0,0.0,0.0,0.0,0.0,0.0,0.0,0.0,0.0,0.0,0.0,0.0,0.0,0.0,0.0,0.0,0.0,0.0,0.0,0.0,0.0,0.0,0.0,0.0,0.0,0.0,0.0,0.0,0.0,0.0,0.0,0.0,0.0,0.0,0.0,0.0,0.0,0.0,0.0,0.0,0.0,0.0,0.0,0.0,0.0,0.0,0.0,0.0,0.0,0.0,0.0,0.0,0.0,0.0,0.0,0.0,0.0,0.0,0.0,0.0,0.0,0.0,0.0,0.0,0.0,0.0,0.0,0.0,0.0,0.0,0.0,0.0,0.0,0.0,0.0,0.0,0.0,0.0,0.0,0.0,0.0,0.0,0.0,2.0416,2.0182,2.0463,2.2247,2.231,2.1379,1.9264,1.9534,1.9318,1.8163,0.0,0.0,0.0,0.0,0.0,0.0,0.0,0.0,0.0,0.0,0.0,0.0,0.0,0.0,0.0,0.0,0.0,0.0,0.0,0.0,0.0,0.0,0.0,0.0,0.0,0.0,0.0,0.0,0.0,0.0,0.0,0.0,0.0,0.0,0.0,0.0,0.0,0.0,0.0,0.0,0.0,0.0,0.0,0.0,0.0,0.0,0.0,0.0,0.0,0.0,0.0,0.0,0.0,0.0,0.0,0.0,0.0,0.0,0.0,0.0,1.2242,0.0,0.0,0.0,0.0,0.0,0.0,0.0,0.0,0.0,0.0,0.0,0.0,0.0,0.0,0.0,0.0,0.0,0.0,0.0,0.0,0.0,0.0,0.0,0.0,0.0,0.0,0.0,0.0,0.0,0.0,0.0,0.0,0.0,0.0,0.0,0.0,0.0,0.0,0.0,0.0,0.0,1.9837,1.9898,2.0142,2.1015,2.1042,2.0453,1.9127,1.9089,1.8826,1.8143,1.8214,0.0,0.0,0.0,0.0,0.0,0.0,0.0,0.0,0.0,0.0,0.0,0.0,0.0,0.0,0.0,0.0,0.0,0.0,0.0,0.0,0.0,0.0,0.0,0.0,0.0,0.0,0.0,0.0,0.0,0.0,0.0,0.0,0.0,0.0,0.0,0.0,0.0,0.0,0.0,0.0,0.0,0.0,0.0,0.0,0.0,0.0,0.0,0.0,0.0,0.0,0.0,0.0,0.0,0.0,0.0,0.0,0.0,0.0,0.0,0.0,1.2793,0.0,0.0,0.0,0.0,0.0,0.0,0.0,0.0,0.0,0.0,0.0,0.0,0.0,0.0,0.0,0.0,0.0,0.0,0.0,0.0,0.0,0.0,0.0,0.0,0.0,0.0,0.0,0.0,0.0,0.0,0.0,0.0,0.0,0.0,0.0,0.0,0.0,0.0,0.0,0.0,1.9629,2.0054,2.0452,2.1017,2.13,2.069,1.8777,1.9085,1.8899,1.7791,1.7967,0.0,0.0,0.0,0.0,0.0,0.0,0.0,0.0,0.0,0.0,0.0,0.0,0.0,0.0,0.0,0.0,0.0,0.0,0.0,0.0,0.0,0.0,0.0,0.0,0.0,0.0,0.0,0.0,0.0,0.0,0.0,0.0,0.0,0.0,0.0,0.0,0.0,0.0,0.0,0.0,0.0,0.0,0.0,0.0,0.0,0.0,0.0,0.0,0.0,0.0,0.0,0.0,0.0,1.4428,1.4708,1.4709,1.4908,1.4765,1.4349,1.3851,1.3328,1.2906,1.3745,0.0,0.0,0.0,0.0,0.0,0.0,0.0,0.0,0.0,0.0,0.0,0.0,0.0,0.0,0.0,0.0,0.0,0.0,0.0,0.0,0.0,0.0,0.0,0.0,2.1209,2.1184,2.1122,0.0,0.0,0.0,0.0,0.0,0.0,0.0,0.0,0.0,0.0,0.0,1.961,2.0402,2.1043,2.1583,2.2004,2.1263,1.8837,1.9229,1.8995,1.7557,1.7693,1.7867,0.0,0.0,0.0,0.0,0.0,0.0,0.0,0.0,0.0,0.0,0.0,0.0,0.0,0.0,0.0,0.0,0.0,0.0,0.0,0.0,0.0,0.0,0.0,0.0,0.0,0.0,0.0,0.0,0.0,0.0,0.0,0.0,0.701,0.7518,0.0,0.0,0.0,0.0,0.0,0.0,0.0,0.0,0.0,0.0,0.0,0.0,0.0,1.209,1.2917,1.2994,1.3041,1.3068,1.3601,1.3887,1.3977,1.4908,1.5391,1.5477,1.5404,0.0,1.4554,1.4233,0.0,0.0,0.0,0.0,0.0,0.0,0.0,0.0,0.0,0.0,0.0,0.0,0.0,0.0,0.0,0.0,0.0,0.0,0.0,0.0,0.0,0.0,1.9882,2.0618,2.0777,2.0931,0.0,2.1378,2.0894,1.9968,1.9363,0.0,0.0,0.0,0.0,0.0,0.0,0.0,1.9648,2.0741,2.1594,2.2146,2.1854,2.1264,2.0356,1.9129,1.8329,1.81,1.7213,1.6919,1.7394,1.7463,0.0,0.0,0.0,0.0,0.0,0.0,0.0,0.0,0.0,0.0,0.0,0.0,0.0,0.0,0.0,0.0,0.0,0.0,0.0,0.0,0.0,0.0,0.0,0.0,0.0,0.0,0.0,0.0,0.0,0.7314,0.8007,0.8409,0.8887,0.9492,0.0,0.0,0.0,0.0,0.0,0.0,0.0,0.0,0.0,1.1613,1.1602,1.2023,1.2929,1.3245,1.3652,1.4202,1.4744,1.5008,1.505,1.5516,1.5785,1.5893,1.6318,1.6355,1.6073,1.5311,1.5236,1.564,0.0,0.0,0.0,0.0,1.6511,1.6974,1.6746,1.701,1.7485,1.769,0.0,0.0,0.0,0.0,0.0,0.0,0.0,0.0,0.0,0.0,2.2537,2.2826,2.318,2.3434,2.336,2.3233,2.2571,0.0,1.9825,1.9169,1.826,0.0,0.0,0.0,0.0,1.9045,2.0163,2.1268,2.2046,2.227,2.182,2.1138,2.0233,1.9232,1.8399,1.7795,1.7281,1.6957,1.6848,1.7502,1.7898,0.0,0.0,0.0,0.0,0.0,0.0,0.0,0.0,0.0,0.0,0.0,0.0,0.0,0.0,0.0,0.0,0.0,0.0,0.0,0.0,0.0,0.0,0.0,0.0,0.0,0.0,0.0,0.0,0.7823,0.8668,0.8569,0.924,0.9879,0.0,0.0,0.0,0.0,0.0,0.0,1.1075,1.1505,1.1823,1.1964,1.1784,1.2118,1.304,1.3446,1.4131,1.5096,1.55,1.5843,1.6131,1.6131,1.6157,1.6241,1.6775,1.7054,1.705,1.64,1.598,1.5814,1.6471,1.6812,1.6925,1.6774,1.7187,1.7776,1.7511,1.784,1.833,1.794,1.8167,1.8497,1.7913,0.0,0.0,0.0,0.0,2.193,2.2935,2.3883,2.4649,2.4814,2.5244,2.5407,2.4715,2.4565,2.3899,0.0,2.0729,2.0016,1.8925,0.0,0.0,0.0,0.0,1.9999,2.098,2.1933,2.2558,2.2723,2.2121,2.1319,2.0313,1.9597,1.8744,1.7676,1.7486,1.7198,1.6749,1.7583,1.7783,1.7175,0.0,0.0,0.0,0.0,0.0,0.0,0.0,0.0,0.0,0.0,0.0,0.0,0.0,0.0,0.0,0.0,0.0,0.0,0.0,0.0,0.0,0.0,0.0,0.0,0.0,0.0,0.0,0.0,0.0,0.6968,0.8858,0.0,0.0,0.0,0.0,1.1497,1.1895,1.1953,1.1576,1.1953,1.2002,1.1638,1.1976,1.257,1.3462,1.3504,1.3946,1.4814,1.4848,1.5429,1.6476,1.6476,1.6583,1.6755,1.6794,1.6925,1.7121,1.7263,1.76,1.799,1.7525,1.7676,1.8053,1.7537,1.8028,1.877,1.7751,1.8079,1.8958,1.8933,1.9286,1.9623,1.9081,1.9313,0.0,0.0,2.1665,2.2135,2.4011,2.4548,2.4769,2.5408,2.5573,2.5408,2.466,2.4499,2.4086,0.0,2.1985,2.1371,2.0599,0.0,1.9686,1.9673,2.0639,2.1581,2.2159,2.2706,2.3286,2.3853,2.2924,2.2033,2.1469,2.0388,1.9309,1.8229,1.7676,1.7385,1.736,1.7408,1.7928,1.8946,1.893,0.0,0.0,0.0,0.0,0.0,0.0,0.0,0.0,0.0,0.0,0.0,0.0,0.0,0.0,0.0,0.0,0.0,0.0,0.0,0.0,0.0,0.0,0.0,0.0,0.0,0.0,0.0,0.0,0.8039,0.9057,0.0,0.9709,1.0316,1.0781,1.094,1.1217,1.1436,1.1585,1.1982,1.24,1.2815,1.2956,1.3467,1.433,1.4349,1.4619,1.5186,1.5186,1.5393,1.5791,1.5791,1.583,1.5923,1.6398,1.6661,1.6821,1.8228,1.856,1.818,1.799,1.823,1.8694,1.8506,1.9145,2.0037,1.9661,2.0,2.0489,1.9748,1.9421,1.9313,1.9465,1.9898,2.057,2.1799,2.2795,2.3863,2.5421,2.6507,2.7338,2.8008,2.7751,2.7272,2.7002,2.6495,2.5827,2.4869,2.3043,2.1419,2.0725,2.0489,2.0503,2.0841,2.1832,2.2734,2.3326,2.3863,2.4139,2.4017,2.3286,2.2458,2.157,2.0804,1.9761,1.828,1.8343,1.8129,1.7424,1.7726,1.8107,1.8505,1.8865,1.9729,0.0,0.0,0.0,0.0,0.0,0.0,0.0,0.0,0.0,0.0,0.0,0.0,0.0,0.0,0.0,0.0,0.0,0.0,0.0,0.0,0.0,0.0,0.0,0.0,0.0,0.0,0.8809,0.8475,0.9202,0.9726,0.9692,1.0234,1.0568,1.0475,1.1002,1.1424,1.1658,1.2159,1.2761,1.3486,1.3493,1.3916,1.4789,1.4799,1.5,1.5396,1.5396,1.5396,1.5405,1.5566,1.5649,1.5664,1.63,1.6714,1.7047,1.8412,1.8769,1.8471,1.8765,1.9088,1.9395,1.9395,2.0174,2.1245,2.1245,2.1356,2.1382,2.0628,2.0137,1.99,2.0271,2.0617,2.1199,2.2643,2.3708,2.4777,2.6283,2.7363,2.8168,2.8619,2.8283,2.7794,2.7533,2.7047,2.6453,2.5902,2.432,2.2821,2.214,2.2047,2.2273,2.2799,2.3487,2.4152,2.4773,2.4983,2.4929,2.4582,2.385,2.296,2.1857,2.1444,2.0452,1.8581,1.897,1.887,1.7978,1.8455,1.8744,1.8744,1.9136,2.0167,2.183,0.0,0.0,0.0,0.0,0.0,0.0,0.0,0.0,0.0,0.0,0.0,0.0,0.0,0.0,0.0,0.0,0.0,0.0,0.0,0.0,0.0,0.0,0.0,0.7892,0.8754,0.8997,0.8051,0.926,0.9791,0.8826,0.9872,1.0496,1.0237,1.146,1.2099,1.1827,1.252,1.3098,1.3496,1.3503,1.3936,1.4789,1.4809,1.501,1.5396,1.5396,1.5405,1.5435,1.5899,1.612,1.6134,1.6527,1.7102,1.777,1.7811,1.823,1.8933,1.982,2.0195,2.0221,2.0221,2.1117,2.232,2.232,2.197,2.1532,2.1531,2.1557,2.1557,2.1557,2.1556,2.1951,2.3759,2.4291,2.4731,2.6509,2.7002,2.7031,2.7058,2.7043,2.6818,2.6127,2.5954,2.5886,2.5697,2.5843,2.5728,2.4974,2.4813,2.5005,2.5523,2.5611,0.0,2.6424,2.5979,2.5624,2.5624,2.4695,2.3615,2.2445,2.2332,2.1379,1.9158,1.9509,1.956,1.902,1.9509,1.9811,1.9824,1.988,2.0485,2.1728,0.0,0.0,0.0,0.0,0.0,0.0,0.0,0.0,0.0,0.0,0.0,0.0,0.0,0.0,0.0,0.0,0.0,0.0,0.0,0.0,0.0,0.0,0.847,0.8544,0.8412,0.8447,0.8798,0.9219,0.9457,0.9426,1.0181,1.0636,1.0573,1.1888,1.2551,1.218,1.2916,1.3389,1.3506,1.3773,1.4215,1.4789,1.5088,1.5278,1.5396,1.5396,1.5576,1.5919,1.6036,1.6256,1.6537,1.6648,1.6823,1.7069,1.7998,1.8159,1.79,1.8885,1.9881,2.0781,2.0781,2.1664,2.2882,2.2882,2.2533,2.2132,2.2533,2.2671,2.2671,2.2671,2.296,2.3334,2.3418,2.4123,2.5114,2.6087,2.7026,2.7846,2.8319,2.7972,2.7564,2.7733,2.7329,2.7018,2.7341,2.7458,2.7039,2.5619,2.5385,2.5435,2.5573,2.5967,0.0,2.6474,2.6361,2.626,2.626,2.5996,2.5188,2.3665,2.3135,2.1943,1.971,1.9723,1.956,1.902,1.9509,2.0029,2.0522,2.1379,2.1995,0.0,0.0,0.0,0.0,0.0,0.0,0.0,0.0,0.0,0.0,0.0,0.0,0.0,0.0,0.0,0.0,0.0,0.0,0.0,0.0,0.0,0.0,0.8118,0.9065,0.9305,0.8825,0.8685,0.9338,0.9411,0.9478,0.9681,1.0308,1.0528,1.0108,1.1414,1.1948,1.1294,1.21,1.2732,1.3073,1.3614,1.4177,1.4799,1.5205,1.5396,1.5396,1.5396,1.5644,1.612,1.6275,1.6592,1.6996,1.7171,1.7233,1.7301,1.8036,1.8081,0.0,0.0,0.0,0.0,0.0,2.2403,2.3108,2.3108,2.2895,2.2734,2.3298,2.3487,2.3524,2.3735,2.4064,2.4302,2.4177,2.4709,2.5458,2.6091,2.6807,2.7542,2.813,2.7904,2.7683,2.8221,2.7969,2.7795,2.8329,2.8242,0.0,2.71,2.6804,2.6653,2.6653,2.6758,2.6839,2.6839,2.6637,2.6499,2.6499,2.6273,2.5552,2.4117,2.3461,0.0,0.0,0.0,2.0137,2.0049,2.0551,0.0,0.0,0.0,2.2495,2.2515,0.0,0.0,0.0,2.4464,2.5019,0.0,0.0,0.0,0.0,0.0,0.0,0.0,0.0,0.0,0.0,0.0,0.0,0.0,0.0,0.0,0.0,0.8894,0.9557,1.0125,0.9764,0.9531,0.9774,0.9768,0.9761,0.9794,1.0342,1.0322,0.942,1.0602,1.0936,0.9993,0.0,0.0,0.0,0.0,1.3903,1.4659,1.5152,1.5396,1.5396,1.5444,1.5728,1.6183,1.6586,1.7025,1.7487,1.7852,1.7991,1.7991,1.7991,1.7991,1.811,1.9077,1.9911,2.0798,2.2479,2.3108,2.3108,2.3183,0.0,0.0,2.3966,2.418,2.4268,2.4741,2.4892,2.498,2.5398,2.5548,2.5711,2.626,2.6487,2.6713,2.7185,2.7349,2.755,2.8084,2.8197,2.8342,2.8894,2.8618,2.8448,2.8919,2.8493,2.8109,2.8109,2.7682,2.7374,2.7311,2.6889,2.6587,2.6587,0.0,0.0,2.4368,2.3675,2.2633,2.1069,2.0855,2.1006,2.1482,2.1958,2.2207,2.2207,2.227,2.2331,2.2386,2.2533,2.3203,2.4314,2.5101,2.6027,0.0,0.0,0.0,0.0,0.0,0.0,0.0,0.0,0.0,0.0,0.0,0.0,0.0,0.0,0.0,0.8651,0.9677,1.0443,1.0775,1.0912,1.0839,1.0472,1.0196,1.0127,1.0399,1.0543,1.0547,1.0338,1.1177,1.1443,1.0879,1.1443,1.1809,1.185,1.2729,1.34,1.3826,1.4869,1.5396,1.5405,0.0,0.0,1.6605,1.7061,1.749,1.79,1.7978,1.7991,1.7991,1.7991,1.7991,1.8151,1.9732,2.0446,2.0798,2.2479,2.3108,2.317,2.365,2.3841,2.3991,2.4971,2.5285,2.531,2.541,2.5448,0.0,2.5042,2.5272,2.5624,2.5737,2.6457,2.7173,2.7273,2.762,2.8097,2.8631,2.8756,2.8919,2.9515,2.9541,2.9503,2.9603,2.8775,2.8109,2.8109,2.8009,2.7783,2.7361,2.7211,2.7148,2.7148,2.7035,2.6708,2.6072,2.5071,2.3948,2.2706,2.182,2.1394,2.1495,2.1608,2.1644,2.1644,2.2083,2.2317,2.232,2.3412,2.4268,2.4926,2.5147,2.5297,0.0,0.0,0.0,0.0,0.0,0.0,0.0,0.0,0.0,0.0,0.0,0.5044,0.0,0.0,0.8003,0.908,1.0237,1.0923,1.072,1.1097,1.1299,1.1029,1.0735,1.0615,1.0778,1.068,1.0526,1.0363,1.0722,1.0795,1.0425,1.0777,1.1058,1.1196,1.2013,1.263,1.2995,1.4191,1.4791,1.4815,1.5685,1.6314,1.6716,1.7187,1.7607,1.7991,1.7991,1.7991,1.7991,1.7991,1.7991,1.8204,2.0204,2.1009,2.1221,2.2922,2.3725,2.3985,2.429,2.439,2.4528,2.5335,2.5598,2.5665,2.5954,2.6042,2.5992,2.5741,2.5841,2.6105,2.6381,2.6871,2.7437,2.7971,2.8304,2.8656,2.922,2.9346,2.9453,2.9729,2.9792,2.9792,2.9792,2.9327,2.885,2.8543,2.8493,2.8304,2.777,2.7695,2.7695,2.7695,2.7462,2.7072,2.6549,2.5213,2.3913,2.2771,2.2458,2.2169,2.1907,2.2171,2.2295,2.2295,2.2571,2.2859,2.315,2.3807,2.4568,2.5348,2.5383,2.5538,0.0,0.0,0.0,0.0,0.0,0.0,0.0,0.0,0.4426,0.4583,0.4705,0.5314,0.7066,0.7665,0.8233,0.9214,1.0236,1.0735,1.0244,1.0762,1.121,1.121,1.1085,1.0985,1.0932,1.0727,1.0492,1.0221,1.02,1.01,0.9881,1.002,1.0282,1.0668,1.1345,1.1882,1.2284,1.3563,1.4198,1.4213,1.5494,1.6314,1.6716,1.7187,1.7607,1.7991,1.7991,1.7991,1.8001,1.8176,1.8203,1.8328,2.05,2.1509,2.1884,2.3553,2.4428,2.48,2.4917,2.4954,2.5042,2.5603,2.5778,2.5866,2.6348,2.6562,2.665,2.665,2.6738,2.6914,2.7336,2.7537,2.7821,2.8693,2.8994,2.9208,2.9691,2.9792,2.9792,2.9792,2.9792,2.9792,2.9792,2.9792,2.9628,2.9145,2.907,2.8881,2.8335,2.826,2.8222,2.8109,2.7708,2.7198,2.6549,2.515,2.3879,2.2847,2.3183,2.3233,2.2809,2.3195,2.3384,2.3283,2.3384,2.3625,2.4004,2.4104,2.4657,2.5598,2.5598,2.5984,-0.1478,-0.0084,0.118,0.1997,0.2879,0.3745,0.0,0.0,0.5005,0.5022,0.5036,0.5449,0.6731,0.6904,0.7304,0.8658,0.8995,0.9171,0.9394,1.005,1.0504,1.0504,1.0806,1.0912,1.0667,1.0629,1.0579,1.0546,1.0546,1.0526,1.0499,1.0241,1.0251,1.0611,1.111,1.1511,1.1851,1.3429,1.4198,1.4213,1.5494,1.6314,1.6716,1.7187,1.7607,1.7991,1.7991,1.7991,1.8066,1.8846,1.8916,1.8713,2.0522,2.1836,2.2883,2.4218,2.4754,2.4879,2.5347,2.5511,2.5598,2.621,2.6399,2.6411,2.6474,2.6839,2.7211,2.7211,2.7544,2.7934,2.7996,2.8355,2.8756,2.8881,2.9296,2.9716,2.9798,2.9792,2.9792,2.9792,2.9792,2.9792,2.9792,2.9792,2.9786,2.9704,2.9691,2.949,2.8894,2.8819,2.8631,2.816,2.8047,2.7595,2.6587,2.5829,2.5159,2.4566,2.4578,2.4591,2.4528,2.4591,2.439,2.3916,2.4365,2.4402,2.4004,2.4478,2.5017,2.5598,2.5598,2.5929,-0.1511,0.0,0.0,0.0,0.3104,0.3968,0.4899,0.5192,0.5283,0.5283,0.5335,0.5744,0.6912,0.7158,0.7397,0.0,0.8779,0.9018,0.8508,0.9197,0.963,0.9273,0.9694,1.0231,1.0776,1.0687,1.0609,1.0609,1.0747,1.0751,1.06,1.0617,1.0624,1.0609,1.0786,1.0958,1.1108,1.2228,1.3038,1.3524,1.4787,1.5729,1.6367,1.7086,1.7744,1.8342,1.8098,1.8291,1.876,1.8867,1.8781,1.8791,2.0612,2.1801,2.2661,2.3977,2.5023,2.5816,2.6059,2.6118,2.6172,2.6411,2.6499,2.6499,2.6499,2.6663,2.6901,2.7211,2.7462,2.777,2.8392,2.8731,2.8994,2.9333,2.9616,2.9792,2.9792,2.9792,2.9792,2.9792,2.9792,2.9792,2.9792,2.9792,2.9792,2.9792,2.9792,2.9704,2.9465,2.9428,2.9195,2.8631,2.8568,2.8134,2.7047,2.6733,2.6201,2.5322,2.5272,2.513,2.4816,2.4503,2.4393,2.4453,2.4393,2.4531,2.4933,2.5159,2.5548,2.6118,2.6118,2.626,-0.1452,0.0,0.0,0.2433,0.3285,0.4142,0.5206,0.5505,0.5562,0.5562,0.5617,0.5916,0.6775,0.7001,0.7111,0.7348,0.8102,0.8391,0.7565,0.8155,0.8507,0.8049,0.8641,0.9362,1.0025,1.0317,1.0506,1.0586,1.0787,1.0831,1.072,1.0818,1.0831,1.0713,1.0633,1.0609,1.0609,1.1391,1.2259,1.3188,1.434,1.5449,1.6486,1.7223,1.7874,1.8412,1.8127,1.8359,1.8926,1.883,1.8801,1.895,2.0541,2.1571,2.2302,2.3548,2.505,2.6499,2.6499,2.6499,2.6499,2.6499,2.66,2.6688,2.6537,2.6813,2.7211,2.7462,2.7751,2.8178,2.8963,2.9145,2.9258,2.9691,2.9792,2.9792,2.9792,2.9792,2.9792,2.9792,2.9792,2.9792,2.9792,2.9792,2.9792,2.9792,2.9792,2.9792,2.9792,2.9792,2.9628,2.9195,2.9007,2.8593,2.7808,2.7613,2.711,2.6143,2.608,2.5824,2.5297,2.4895,2.4782,2.5017,2.4795,2.5,2.5598,2.5778,2.6067,2.6499,2.6499,2.6499,0.0,0.0,0.136,0.2429,0.3353,0.4277,0.5351,0.5785,0.5991,0.5991,0.5876,0.584,0.6011,0.5941,0.5963,0.6287,0.6478,0.6568,0.6544,0.6911,0.7108,0.6962,0.7939,0.8401,0.0,0.9208,1.0247,1.0589,1.0615,1.0727,1.0962,1.0754,1.0727,1.0985,1.074,1.0609,1.0609,1.1391,1.2399,1.3584,1.448,1.5756,1.738,1.7793,1.8008,1.8027,1.8018,1.8027,1.8098,1.8936,1.9286,1.9374,2.0272,2.1201,2.2136,2.3161,2.4791,2.6499,2.6499,2.6499,2.6499,2.6499,2.6851,2.7173,2.6663,2.76,2.8731,2.8217,2.8875,2.9729,2.9754,2.9767,2.9786,2.9792,2.9792,2.9792,2.9792,2.9792,2.9792,2.9792,2.9792,2.9792,2.9792,2.9792,2.9792,2.9792,2.9792,2.9792,2.9792,2.9792,2.9779,2.9767,2.9245,2.8894,2.8838,2.8367,2.7833,2.7286,2.7248,2.6997,2.6461,2.6424,2.6172,2.5603,2.6118,2.616,2.5598,2.6197,2.6474,2.6499,2.6499,2.6499,0.0,0.0,0.0632,0.1705,0.2189,0.2671,0.3715,0.4011,0.4261,0.4871,0.4855,0.494,0.5621,0.5694,0.5725,0.594,0.6267,0.6423,0.6207,0.6482,0.6507,0.597,0.6639,0.0,0.0,0.0,0.0,0.9751,1.0597,1.1096,1.0995,1.1286,1.14,1.1266,1.1019,1.0865,1.0865,1.0967,1.1881,1.3616,1.53,1.6552,1.7409,1.7546,1.79,1.8373,1.8118,1.834,1.8857,1.884,1.9023,1.9335,1.9628,2.0498,2.1642,2.1991,2.3552,2.5611,2.628,2.6499,2.6549,2.6927,2.7148,2.7336,2.7512,2.7946,2.8405,2.858,2.8907,2.9296,2.9691,2.9792,2.9792,2.9792,2.9792,2.9792,2.9792,2.9792,2.9792,2.9792,2.9792,2.9792,2.9792,2.9792,2.9792,2.9792,2.9792,2.9792,2.9792,2.9792,2.9792,2.9792,2.9616,2.9352,2.8925,2.8405,2.7871,2.7336,2.6977,2.6688,2.6499,2.6122,2.5992,2.6197,2.6005,2.5992,2.6197,2.6399,2.6499,2.6499,2.6499,2.6499,0.0,-0.0363,0.0266,0.1331,0.1598,0.1854,0.2865,0.3099,0.3274,0.3866,0.3857,0.3996,0.4864,0.5034,0.5166,0.5585,0.595,0.6129,0.6022,0.6101,0.6039,0.5661,0.6507,0.718,0.0,0.0,0.0,0.9944,1.0831,1.1326,1.1156,1.1503,1.167,1.159,1.1303,1.1149,1.1149,1.0962,1.175,1.3524,1.599,1.7144,1.7128,1.7464,1.7961,1.8578,1.8176,1.8391,1.9033,1.8715,1.8879,1.9307,1.9453,2.0165,2.1153,2.1496,2.2809,2.4618,2.5616,2.6198,2.6549,2.6901,2.7273,2.7607,2.7758,2.8222,2.8737,2.8869,2.9057,2.9308,2.9691,2.9792,2.9792,2.9792,2.9792,2.9792,2.9792,2.9792,2.9792,2.9792,2.9792,2.9792,2.9792,2.9792,2.9792,2.9792,2.9792,2.9792,2.9792,2.9792,2.9792,2.9792,2.9792,2.9641,2.9245,2.8913,2.8386,2.762,2.7449,2.7097,2.6512,2.6306,2.6293,2.6499,2.6118,2.6105,2.6499,2.6499,2.6499,2.6499,2.6499,2.6499,-0.0207,0.0,0.0254,0.1265,0.1517,0.1777,0.2715,0.2942,0.2952,0.2996,0.2899,0.3039,0.0,0.0,0.4282,0.5183,0.5508,0.5722,0.5984,0.582,0.5752,0.0,0.0,0.0,0.0,0.0,0.0,1.1019,0.0,1.1439,1.1452,1.1466,1.1623,1.194,1.1623,1.1446,1.1432,1.1467,1.2095,1.3337,1.6456,1.7476,1.6664,1.7608,1.8254,1.8617,1.8205,1.8264,1.8627,1.8617,1.8888,1.9374,1.9736,2.0166,2.0712,2.1562,2.255,2.3551,2.4528,2.5564,2.6499,2.6524,2.7248,2.8009,2.7537,2.8499,2.9679,2.9107,2.9346,2.9792,2.9792,2.9792,2.9792,2.9792,2.9792,2.9792,2.9792,2.9792,2.9792,2.9792,2.9792,2.9792,2.9792,2.9792,2.9792,2.9792,2.9792,2.9792,2.9792,2.9792,2.9792,2.9792,2.9792,2.9792,2.9792,2.9767,2.9289,2.821,2.8593,2.8154,2.66,2.7022,2.7052,2.6499,2.6499,2.6499,2.6499,2.6499,2.6499,2.6499,2.6499,2.6499,-0.019,0.0,0.0068,0.0339,0.0399,0.0471,0.0723,0.0781,0.0974,0.1619,0.1654,0.1837,0.0,0.0,0.0,0.4436,0.5409,0.0,0.6212,0.6424,0.0,0.0,0.0,0.7099,0.7409,0.9076,0.0,0.0,1.1484,1.185,1.2071,1.231,1.2482,1.2575,1.2256,1.1977,1.1775,1.2462,1.2986,1.3337,1.5791,1.6992,1.708,1.8029,1.8693,1.9102,1.8644,1.8703,1.9092,1.8734,1.9046,1.9736,1.9531,1.9921,2.0585,2.0471,2.1268,2.2422,2.2683,2.4403,2.6562,2.6977,2.7562,2.816,2.8405,2.9095,2.9767,2.9616,2.9679,2.9792,2.9792,2.9792,2.9792,2.9792,2.9792,2.9792,2.9792,2.9792,2.9792,2.9792,2.9792,2.9792,2.9792,2.9792,2.9792,2.9792,2.9792,2.9792,2.9792,2.9792,2.9792,2.9792,2.9792,2.9792,2.9792,2.9402,2.9007,2.8718,2.8442,2.7946,2.7123,2.7223,2.7052,2.6499,2.6499,2.6499,2.6499,2.6499,2.6499,2.6499,2.6499,2.6499,-0.0114,0.0,0.0,0.0,0.0,0.0,0.0,0.0,0.014,0.0628,0.0672,0.0,0.0,0.0,0.0,0.0,0.0,0.0,0.6122,0.6488,0.6709,0.0,0.7192,0.0,0.8334,0.9765,1.0834,0.0,1.2024,1.2484,1.251,1.2805,1.2991,1.2991,1.2671,1.2455,1.2295,1.3086,1.341,1.3299,1.5701,1.6821,1.681,1.825,1.9142,1.9541,0.0,1.917,1.9531,1.9083,1.9298,1.9874,1.9648,1.999,2.0576,2.0293,2.0971,2.2021,2.2249,2.4013,2.6237,2.6544,2.7295,2.8191,2.8743,2.9321,2.9792,2.9792,2.9792,2.9792,2.9792,2.9792,2.9792,2.9792,2.9792,2.9792,2.9792,2.9792,2.9867,3.0105,3.0331,3.0419,3.0193,3.0156,3.0068,2.9849,2.9792,2.9792,2.9792,2.9792,2.9792,2.9792,2.9792,2.9792,2.9792,2.9503,2.9183,2.8932,2.8875,2.8486,2.767,2.7871,2.765,2.6876,2.7072,2.6959,2.6499,2.6738,2.6738,2.6499,2.6738,2.6725,0.0,0.0,0.0,0.0,0.0,-0.0022,-0.0123,-0.0074,-0.0034,-0.0124,0.0,0.0,0.18,0.0,0.283,0.4525,0.0,0.542,0.6018,0.6373,0.6712,0.71,0.807,0.879,0.8962,1.0696,1.1833,1.1833,1.2784,1.3233,1.2918,1.312,1.3247,1.3247,1.2965,1.2823,1.2844,1.338,1.3492,1.3226,1.5819,1.6799,1.6351,1.8443,1.96,1.9971,1.9561,1.9609,1.9971,1.9541,1.9619,1.9981,1.9981,2.0234,2.0605,2.0605,2.1156,2.1937,2.2361,2.3896,2.572,2.5849,2.6944,2.8279,2.8769,2.9321,2.9792,2.9792,2.9792,2.9792,2.9792,2.9792,2.9792,2.9792,2.9792,2.9817,2.988,2.9955,3.0143,3.0633,3.1085,3.1223,3.0688,3.06,3.0432,2.988,2.9792,2.9792,2.9792,2.9792,2.9792,2.9792,2.9792,2.9792,2.9792,2.9792,2.9578,2.9057,2.9515,2.9315,2.826,2.8656,2.843,2.7437,2.7858,2.7632,2.6713,2.7173,2.7123,2.6612,2.7148,2.7072,0.0,0.0,0.0,0.0,0.0,-0.0167,-0.0778,-0.0445,0.0,0.0,0.0,0.0266,0.1132,0.2014,0.0,0.4137,0.0,0.0,0.0,0.0,0.7077,0.0,0.0,0.0,0.0,0.0,0.0,0.0,0.0,1.4034,1.35,1.352,1.3527,1.3527,1.3052,1.2911,1.3126,1.3229,1.3257,1.3233,1.536,1.6518,1.6849,1.8863,2.0039,2.0449,1.999,0.0,2.0439,1.998,2.0077,2.0468,2.0468,2.0537,2.0605,2.0605,2.0909,2.1352,2.1431,2.3071,2.5275,2.6099,2.7462,2.8781,2.8881,2.9321,2.9792,2.9792,2.9792,2.9792,2.9792,2.9792,2.9792,2.9792,2.9792,2.9917,3.0382,3.0809,3.1155,3.1235,3.1336,3.1223,3.0688,3.06,3.0432,2.988,2.9792,2.9792,2.9792,2.9792,2.9792,2.9792,2.9792,2.9792,2.9792,2.9792,2.9754,2.9641,2.9741,2.949,2.8794,2.8838,2.8605,2.7971,2.8059,2.8009,2.7821,2.7921,2.77,2.7173,2.7708,2.7437,0.0,0.0,0.0,0.0,-0.0294,-0.0659,-0.1021,0.0,0.0,0.0,0.0,0.038,0.16,0.0,0.0,0.0,0.0,0.0,0.0,0.0,0.0,0.0,0.0,0.0,0.0,0.0,0.0,0.0,0.0,1.4496,1.3887,1.3854,1.378,1.3606,1.334,1.3287,1.3413,1.3267,1.3367,1.3681,1.5638,1.6765,1.7181,1.9291,2.039,2.0605,2.0566,2.0586,2.0625,2.0859,2.0811,2.0625,2.082,2.0771,2.0635,2.085,2.1025,2.1259,2.1727,2.344,2.5549,2.6245,2.7603,2.8969,2.927,2.9566,2.9792,2.9792,2.9792,2.9792,2.9792,2.9792,2.9792,2.9792,3.0018,3.0369,3.0896,3.1436,3.1738,3.1449,3.1625,3.1562,3.0738,3.06,3.0432,2.988,2.9792,2.9792,2.9792,2.9792,2.9792,2.9792,2.9792,2.9792,2.9792,2.9792,2.9792,2.9792,2.9792,2.9666,2.939,2.9377,2.9095,2.853,2.8825,2.8699,2.8109,2.838,2.8229,2.772,2.8267,2.8097,-0.0075,-0.0201,-0.0426,-0.0366,-0.0942,-0.1564,-0.1662,-0.1374,0.0,0.0,0.0,0.0,0.2187,0.0,0.0,0.0,0.0,0.0,0.0,0.0,0.0,0.0,0.0,0.0,0.0,0.0,0.0,0.0,0.0,0.0,1.4202,1.4062,1.3915,1.37,1.3633,1.3633,1.372,1.3494,1.3627,1.4124,1.584,1.6865,1.7383,1.9436,2.0517,2.0752,2.1182,2.1103,2.0791,2.1583,2.1436,2.0772,2.1181,2.1162,2.0908,2.122,2.1395,2.1591,2.2254,2.4002,2.6017,2.6369,2.7676,2.9183,2.9654,2.9792,2.9792,2.9792,2.9792,2.9792,2.9792,2.9792,2.9792,2.9792,3.0218,3.0738,3.1273,3.1825,3.2106,3.1834,3.2102,3.2089,3.1102,3.0939,3.0713,3.0068,2.9967,2.993,2.9804,2.9792,2.9792,2.9792,2.9792,2.9792,2.9792,2.9792,2.9792,2.9792,2.9792,2.9792,2.9792,2.9792,2.9578,2.9095,2.9566,2.9352,2.8473,2.8881,2.8806,2.8279,2.8831,2.8731,-0.0269,-0.0896,-0.1764,-0.1507,-0.2185,-0.3027,-0.345,0.0,0.0,0.0,0.0,0.0509,0.2187,0.2598,0.0,0.0,0.0,0.0,0.0,0.0,0.0,0.0,0.0,0.0,0.0,0.0,0.0,0.0,0.0,0.0,1.4461,1.3933,1.3774,1.4041,1.376,1.3754,1.4041,1.4021,1.4056,1.4109,1.5267,1.6324,1.735,1.8952,2.0219,2.1181,2.1641,2.1582,0.0,2.1689,2.1602,2.1191,2.165,2.1817,2.1788,2.1807,2.207,2.2381,2.2459,2.4221,2.6436,2.6481,2.7956,2.9729,2.9779,2.9792,2.9792,2.9792,2.9792,2.9792,2.9792,2.9792,2.9792,2.9792,3.0218,3.0738,3.1273,3.1825,3.2353,3.2851,3.2989,3.2805,3.2156,3.2043,3.1725,3.0676,3.0525,3.0337,2.9854,2.9792,2.9792,2.9792,2.9792,2.9792,2.9792,2.9792,2.9792,2.9792,2.9792,2.9792,2.9792,2.9792,2.9767,2.9716,2.9767,2.9741,2.9641,2.9691,2.9415,2.8844,2.9453,2.9139,-0.202,-0.2024,-0.2032,-0.2659,-0.3222,-0.367,-0.3785,0.0,0.0,0.0,-0.102,0.0541,0.2302,0.2667,0.329,0.0,0.0,0.0,0.0,0.0,0.0,0.0,0.0,0.0,0.0,0.0,0.0,0.0,0.0,0.0,1.4819,1.4229,1.3968,1.4103,1.3975,1.3968,1.4109,1.4109,1.4109,1.4109,1.52,1.6252,1.735,1.8906,2.0194,2.1239,2.1942,2.2021,0.0,2.209,2.2012,2.1641,2.1816,2.1905,2.1935,2.2168,2.2373,2.2527,2.2781,2.445,2.6504,2.6504,2.7991,2.9792,2.9792,2.9792,2.9792,2.9792,2.9792,2.9792,2.9792,2.9792,2.988,3.0206,3.0437,3.0738,3.1273,3.1825,3.219,3.2097,3.2328,3.2154,3.0857,3.0643,3.0488,3.0055,2.9715,2.969,3.0208,2.9993,2.9792,2.9792,2.9792,2.9792,2.9792,2.9792,2.9792,2.9792,2.9792,2.9792,2.9792,2.9792,2.9792,2.9792,2.9792,2.9792,2.9792,2.9792,2.9679,2.9453,2.9691,2.9553,-0.3002,-0.2804,-0.2525,-0.3517,-0.4118,-0.4357,0.0,0.0,0.0,-0.1925,-0.0881,0.0557,0.2372,0.2705,0.3301,0.0,0.0,0.0,0.0,0.0,0.0,0.0,0.0,0.0,0.0,0.0,0.0,0.0,0.0,0.0,1.4999,1.4511,1.4175,1.4088,1.4109,1.4109,1.4109,1.4109,1.4109,1.4109,1.4944,1.6095,1.7556,1.8856,2.0237,2.163,2.2362,2.244,0.0,2.2498,2.2451,2.209,2.2207,2.2256,2.2295,2.2566,2.2684,2.2723,2.2994,2.4371,2.6058,2.6389,2.7778,2.9365,2.9714,2.9792,2.9792,2.9792,2.9792,2.9792,2.9792,2.9917,3.0093,3.0319,3.062,3.0833,3.0857,3.1302,3.1589,3.1367,3.1639,3.1577,3.0549,3.0192,2.9979,2.9649,2.8988,2.8778,2.9484,2.912,2.8961,2.9255,2.9307,2.9424,2.9772,2.9792,2.9792,2.9792,2.9792,2.9792,2.9792,2.9792,2.9792,2.9792,2.9792,2.9792,2.9792,2.9792,2.9792,2.9792,2.9792,2.9792,-0.2703,-0.3041,-0.3519,-0.406,-0.4903,-0.5271,0.0,0.0,0.0,-0.1257,-0.0518,0.0557,0.2372,0.2705,0.3339,0.529,0.5607,0.0,0.0,0.0,0.0,0.0,0.0,0.0,0.0,0.0,0.0,0.0,0.0,0.0,1.4999,1.4676,1.4361,1.4116,1.4109,1.4109,1.4109,1.4109,1.4109,1.4088,1.4376,1.5734,1.8029,1.8774,2.0346,2.2498,2.2927,2.2869,0.0,2.2937,2.2859,2.2527,2.2937,2.3081,2.3081,2.3091,2.3091,2.3091,2.3091,2.3865,2.4999,2.6141,2.7218,2.8327,2.9456,2.9792,2.9792,2.9792,2.9792,2.9792,2.9792,3.0193,3.047,2.993,3.0628,3.1067,2.9876,3.0048,3.0571,3.1104,3.1211,3.143,3.2059,3.1619,3.0832,2.9756,2.8642,2.7716,2.7192,2.6774,2.6944,2.8004,2.8116,2.8577,2.9702,2.9792,2.9792,2.9792,2.9792,2.9792,2.9792,2.9792,2.9792,2.9792,2.9792,2.9792,2.9792,2.9792,2.9792,2.9792,2.9792,2.9792,-0.3754,-0.3582,-0.3304,-0.4294,-0.4517,-0.438,-0.3915,0.0,0.0,-0.1146,-0.0518,0.0557,0.2372,0.2705,0.3339,0.5293,0.5671,0.0,0.0,0.0,0.0,0.0,0.0,0.0,0.0,0.0,0.0,0.0,0.0,0.0,1.5013,1.4899,1.4618,1.4123,1.4109,1.4109,1.4109,1.4109,1.4109,1.4088,1.4361,1.5275,1.6736,1.7474,1.9076,2.1302,2.17,2.2262,2.2908,2.2752,2.2781,2.2898,2.2752,2.2869,2.3091,2.3091,2.3091,2.3091,2.3091,2.3865,2.4851,2.521,2.6593,2.8176,2.8537,2.9177,2.9792,2.9792,2.9792,2.988,3.0256,3.0206,3.0193,3.0746,3.0871,3.0846,3.0836,3.0592,3.0442,3.0608,3.0275,2.9784,2.916,2.8618,2.8148,2.7796,2.6865,2.6703,2.8157,2.7897,2.8028,2.9138,2.9255,2.9404,2.9772,2.9792,2.9792,2.9792,2.9792,2.9792,2.9792,2.9792,2.9792,2.9792,2.9792,2.9792,2.9792,2.9792,2.9792,2.9792,2.9792,2.9792,0.0,-0.3348,-0.2637,-0.4008,-0.3892,0.0,0.0,0.0,0.0,-0.0741,-0.0098,0.0885,0.2417,0.2919,0.3654,0.5327,0.5708,0.0,0.0,0.0,0.0,0.0,0.0,0.0,0.0,0.0,0.0,0.0,0.0,0.0,1.5019,1.5008,1.4718,1.4129,1.4109,1.4109,1.4109,1.4109,1.4142,1.4255,1.4549,1.5339,1.6541,1.7595,1.9119,2.0972,2.1668,2.2403,0.0,2.283,2.2857,2.3093,2.283,2.2888,2.3091,2.3091,2.3091,2.3091,2.3091,2.3572,2.4232,2.466,2.6294,2.8096,2.8096,2.8897,2.9792,2.9792,2.9495,2.9231,2.9564,2.9379,2.92,2.9667,3.0158,3.0482,3.0368,3.0362,3.0454,3.0656,3.0007,2.9236,2.8738,2.7837,2.7033,2.6664,2.5692,2.5491,2.6807,2.6543,2.6819,2.8403,2.8171,2.843,2.9682,2.9792,2.9792,2.9792,2.9792,2.9792,2.9792,2.9792,2.9792,2.9792,2.9792,2.9792,2.9792,2.9792,2.9792,2.9792,2.9792,2.9792,0.0,0.0,0.0,0.0,0.0,0.0,0.0,0.0,0.0,0.0,0.0588,0.1427,0.2515,0.3313,0.4208,0.5425,0.5742,0.0,0.0,0.0,0.0,0.0,0.0,0.0,0.0,0.0,0.0,0.0,0.0,0.0,1.5068,1.5022,1.4725,1.4156,1.4116,1.4116,1.4136,1.4122,1.4262,1.4534,1.4872,1.5743,1.7123,1.8665,2.0034,0.0,2.2448,2.3025,0.0,2.3091,2.3091,2.3091,2.3091,2.3091,2.3091,2.3091,2.3091,2.3091,2.3091,2.3091,2.3288,2.4436,2.6191,2.7884,2.7964,2.8838,2.9792,2.9702,2.8917,2.8096,2.8051,2.7923,2.7683,2.7271,2.8729,2.9935,2.8846,2.9456,3.0356,3.085,2.9977,2.933,2.9957,2.8571,2.7061,2.6114,2.5032,2.4212,2.3901,2.3489,2.4059,2.6276,2.563,2.6305,2.9417,2.9682,2.9702,2.9792,2.9792,2.9792,2.9792,2.9792,2.9792,2.9792,2.9792,2.9792,2.9792,2.9792,2.9792,2.9792,2.9792,2.9792,0.0,0.0,0.0,0.0,0.0,0.0,0.0,0.0,0.0,0.0,0.0,0.1465,0.2644,0.3459,0.4377,0.5689,0.6054,0.0,0.0,0.0,0.0,0.0,0.0,0.0,0.0,0.0,0.0,0.0,0.0,1.5648,1.5311,1.5106,1.4819,1.4429,1.4202,1.4195,1.4394,1.4422,1.4569,1.4885,1.518,1.5485,1.5874,1.7419,1.8772,1.9988,2.1212,2.224,2.3091,2.3091,2.3091,2.3091,2.3091,2.3091,2.3091,2.3091,2.3091,2.3091,2.3091,2.3091,2.3288,2.4436,2.5157,2.5744,2.6605,2.8251,2.9624,2.8747,2.8307,2.7998,2.7598,2.7161,2.6997,2.77,2.8167,2.8537,2.8712,2.8483,2.8295,2.8414,2.7437,2.6617,2.6791,2.5893,2.508,2.4848,2.4015,2.3697,2.4461,2.4465,2.4946,2.6348,2.6982,2.7631,2.8426,2.8498,2.8878,2.9753,2.9792,2.9792,2.9792,2.9792,2.9792,2.9792,2.9792,2.9792,2.9792,2.9792,2.9792,2.9792,2.9792,2.9792,-0.0602,-0.0602,-0.0671,-0.102,-0.0838,0.0,0.0,0.0,0.0,0.0,0.0,0.0,0.2752,0.0,0.0,0.0,0.0,0.0,0.0,0.0,0.0,0.0,0.0,0.0,0.0,0.0,0.0,0.0,0.0,1.5681,1.5411,1.5273,1.4963,1.4514,1.4369,1.4295,1.4322,1.4434,1.4669,1.4992,1.5257,1.5464,1.5621,1.7051,1.8365,1.9565,2.0778,2.1987,2.3091,2.3091,2.3091,2.3091,2.3091,2.3091,2.3091,2.3091,2.3091,2.3091,2.3091,2.3091,2.32,2.3822,2.4372,2.4914,2.5525,2.6924,2.8151,2.7533,2.6982,2.6526,2.6219,2.5701,2.54,2.5995,2.6452,2.6976,2.775,2.7834,2.7882,2.8349,2.7246,2.633,2.6532,2.5367,2.4391,2.4391,2.3835,2.358,2.3972,2.4027,2.4467,2.5599,2.6243,2.6991,2.8004,2.8096,2.8577,2.9733,2.9792,2.9792,2.9792,2.9792,2.9792,2.9792,2.9792,2.9792,2.9792,2.9792,2.9792,2.9792,2.9792,2.9792,0.0,0.0,-0.0154,-0.0769,-0.0462,-0.0168,0.0,0.0,0.0,0.0,0.0,0.0,0.0,0.0,0.0,0.0,0.0,0.0,0.0,0.0,0.0,0.0,0.0,0.0,0.0,0.0,0.0,0.0,0.0,1.5695,1.5478,1.5378,1.5104,1.4581,1.4521,1.4381,1.4155,1.4442,1.4756,1.512,1.5344,1.5591,1.5849,1.7131,1.8365,1.9565,0.0,0.0,2.3091,2.3091,2.3091,2.3091,2.3091,2.3091,2.3091,2.3091,2.3091,2.3091,2.3091,2.3091,2.3091,2.3091,2.3757,2.4542,2.4542,2.5221,2.5975,2.5975,2.5399,2.4766,2.4585,2.4176,2.3789,2.3789,2.4597,2.5564,2.636,2.7028,2.7711,2.8492,2.7558,2.6744,2.7162,2.5658,2.4391,2.4391,2.4004,2.3555,2.314,2.3091,2.3464,2.4436,2.4851,2.5828,2.7703,2.8156,2.8767,2.9753,2.9792,2.9792,2.9792,2.9792,2.9792,2.9792,2.9792,2.9792,2.9792,2.9792,2.9792,2.9792,2.9792,2.9792,0.0,0.0,-0.0028,-0.014,-0.0084,-0.0028,0.0,0.0,0.0,0.0,0.0,0.0,0.0,0.0,0.0,0.0,0.0,0.0,0.0,0.0,0.0,0.0,0.0,0.0,0.0,0.0,0.0,0.0,0.0,1.5788,1.5741,1.532,1.5013,1.4919,1.4656,1.4474,1.4434,1.4765,1.5186,1.5675,1.5721,1.5761,1.5849,1.7131,1.8365,1.9565,0.0,2.1987,2.3091,2.3091,2.3091,2.3091,2.3091,2.3091,2.3091,2.3091,2.3091,2.3091,2.3091,2.3091,2.3091,2.3091,2.3222,2.3365,2.3365,2.3474,2.3616,2.3616,2.4199,2.4585,2.3616,2.359,2.3789,2.3789,2.4497,2.5075,2.4838,2.5179,2.5458,2.5218,2.5288,2.5409,2.5478,2.4886,2.4391,2.4391,2.3718,2.3169,2.3101,2.3091,2.3178,2.3343,2.5105,2.6389,2.6719,2.8462,2.9624,2.9792,2.9792,2.9792,2.9792,2.9792,2.9792,2.9792,2.9792,2.9792,2.9792,2.9792,2.9792,2.9792,2.9792,2.9792,0.0,0.0,0.0098,0.049,0.0588,0.0,0.0,0.0,0.0,0.0,0.0,0.0,0.0,0.0,0.0,0.0,0.0,0.0,0.0,0.0,0.0,0.0,0.0,0.0,0.0,0.0,0.0,0.0,0.0,0.0,1.5808,1.5431,1.5146,1.4992,1.4676,1.4596,1.4778,1.4919,1.52,1.5598,1.5728,1.5808,1.5849,1.7131,1.8365,1.9565,0.0,2.1987,2.3091,2.3091,2.3091,2.3091,2.3091,2.3091,2.3091,2.3091,2.3091,2.3091,2.3091,2.3091,2.3091,2.3091,2.3091,2.3091,2.3091,2.3091,2.3091,2.3091,2.3485,2.3757,2.3244,2.3445,2.3789,2.3789,2.4114,2.4408,2.4391,2.4394,2.4408,2.4391,2.458,2.4785,2.5053,2.4545,2.415,2.4362,2.3659,2.3091,2.3091,2.3091,2.3091,2.3091,2.4595,2.5818,2.6451,2.7947,2.9145,2.9753,2.9792,2.9792,2.9792,2.9792,2.9792,2.9792,2.9792,2.9792,2.9792,2.9792,2.9792,2.9792,2.9792,2.9792,0.0,0.0126,0.0434,0.0,0.0,0.0,0.0,0.0,0.0,0.0,0.0,0.0,0.0,0.0,0.0,0.0,0.0,0.0,0.0,0.0,0.0,0.0,0.0,0.0,0.0,0.0,0.0,0.0,0.0,0.0,1.5708,1.5518,1.5231,1.4892,1.4703,1.4736,1.5008,1.5053,1.5233,1.5504,1.5701,1.5808,1.5832,1.6803,1.7932,1.9154,2.035,2.1556,2.2699,2.2982,2.3091,2.3091,2.3091,2.3091,2.3091,2.3091,2.3091,2.3091,2.3091,2.3091,2.3091,2.3091,2.3091,2.3091,2.3091,2.3091,2.312,2.324,2.3269,2.3269,2.3269,2.3682,2.4092,2.4092,2.417,2.4307,2.4521,2.4316,2.4154,2.4248,2.4434,2.4639,2.4896,2.4476,2.4199,2.4521,2.3815,2.3269,2.3269,2.3159,2.3091,2.3091,2.4125,2.5357,2.676,2.7867,2.8878,2.9753,2.9792,2.9792,2.9792,2.9792,2.9792,2.9792,2.9792,2.9792,2.9792,2.9792,2.9854,2.998,2.998,3.0043,0.0,0.0504,0.1202,0.1938,0.0,0.0,0.0,0.0,0.0,0.0,0.0,0.0,0.0,0.0,0.0,0.0,0.0,0.0,0.0,0.0,0.0,0.0,0.0,0.0,0.0,0.0,0.0,0.0,0.0,0.0,1.5444,1.5404,1.5137,1.4547,1.4819,1.4988,1.5008,1.5253,1.5511,1.5775,1.5795,1.5808,1.5808,1.5896,1.6622,1.7893,1.9116,2.0305,2.1525,2.2633,2.3091,2.3091,2.3091,2.3091,2.3091,2.3091,2.3091,2.3091,2.3091,2.3091,2.3091,2.3091,2.3091,2.3091,2.3091,2.3091,2.3201,2.3633,2.374,2.374,2.374,2.4378,2.5004,2.5004,2.5293,2.5474,2.5131,2.5024,2.4769,2.3984,2.4496,2.4926,2.4531,2.4746,2.5014,2.5043,2.432,2.374,2.374,2.3367,2.3091,2.3091,2.4125,2.565,2.7804,2.9028,2.9702,2.9792,2.9792,2.9792,2.9792,2.9792,2.9792,2.9792,2.9792,2.9792,2.9792,2.9792,3.0055,3.0538,3.0538,3.0821,0.0,0.0597,0.1412,0.0,0.0,0.0,0.0,0.0,0.0,0.0,0.0,0.0,0.0,0.0,0.0,0.0,0.0,0.0,0.0,0.0,0.0,0.0,0.0,0.0,0.0,0.0,0.0,0.0,0.0,0.0,1.5404,1.5247,1.5046,1.4825,1.4926,1.5008,1.5008,1.5273,1.5538,1.5808,1.5808,1.5808,1.5832,1.6615,1.7248,1.78,1.9761,2.089,2.1382,2.2611,2.3091,2.3091,2.3091,2.3091,2.3091,2.3091,2.3091,2.3091,2.3091,2.3091,2.3091,2.3091,2.3091,2.3149,2.3457,2.3545,2.361,2.4062,2.4375,2.4545,2.4248,2.4619,2.5092,2.5092,2.5219,2.5297,2.5131,2.4877,2.457,2.4238,2.4681,2.5033,2.4877,2.4984,2.5092,2.5092,2.456,2.418,2.418,2.3809,2.3545,2.3545,2.5238,2.6567,2.7069,2.9075,3.0306,3.0306,2.998,2.9792,2.9792,2.9792,2.9792,2.9792,2.9792,2.9967,3.0306,3.0306,3.0583,3.1097,3.1097,3.1198,0.0279,0.0995,0.1869,0.0,0.0,0.0,0.0,0.0,0.0,0.0,0.0,0.0,0.0,0.0,0.0,0.0,0.0,0.0,0.0,0.0,0.0,0.0,0.0,0.0,0.0,0.0,0.0,0.0,0.0,0.0,0.0,1.5039,1.4899,1.4718,1.4892,1.5008,1.5008,1.5273,1.5538,1.5808,1.5808,1.5808,1.5832,1.6692,1.7318,1.78,1.9852,2.0957,2.1382,2.2611,2.3091,2.3091,2.3091,2.3091,2.3091,2.3091,2.3091,2.3091,2.3091,2.3091,2.3091,2.3091,2.3091,2.3201,2.3662,2.3789,2.3906,2.4463,2.4857,2.5053,2.4849,2.5059,2.5283,2.5283,2.5283,2.5283,2.5283,2.5049,2.4771,2.4648,2.498,2.5258,2.5112,2.5209,2.5258,2.5112,2.4838,2.457,2.441,2.4053,2.3789,2.3789,2.602,2.7343,2.6965,2.9341,3.0859,3.0859,3.0507,3.0313,3.0313,3.0313,3.0313,3.0313,3.0313,3.0482,3.0859,3.0859,3.1135,3.165,3.165,3.175,0.0901,0.1788,0.0,0.0,0.0,0.0,0.0,0.0,0.0,0.0,0.0,0.0,0.0,0.0,0.0,0.0,0.0,0.0,0.0,0.0,0.0,0.0,0.0,0.0,0.0,0.0,0.0,0.0,0.0,0.0,0.0,1.4803,1.4718,1.4129,1.4678,1.5008,1.5008,1.5273,1.5538,1.5808,1.5808,1.5808,1.5808,1.5808,1.648,1.7754,1.8971,2.0169,2.1369,2.2589,2.3091,2.3091,2.3091,2.3091,2.3091,2.3091,2.3091,2.3091,2.3091,2.3091,2.3091,2.3091,2.3091,2.3201,2.3662,2.3821,2.3997,2.4857,2.5092,2.52,2.5591,2.5708,2.5693,2.5693,2.5693,2.5693,2.5693,2.5693,2.5581,2.519,2.543,2.5571,2.517,2.5439,2.5562,2.516,2.5102,2.4936,2.4449,2.4053,2.3799,2.3789,2.6253,2.7906,2.7906,3.0055,3.1419,3.1419,3.1419,3.1419,3.1406,3.1406,3.1406,3.1406,3.1406,3.1406,3.1419,3.1419,3.1675,3.2206,3.2206,3.2528,0.1019,0.0,0.0,0.0,0.0,0.0,0.0,0.0,0.0,0.0,0.0,0.0,0.0,0.0,0.0,0.0,0.0,0.0,0.0,0.0,0.0,0.0,0.0,0.0,0.0,0.0,0.0,0.0,0.0,0.0,0.0,1.4581,1.4576,1.4396,1.4785,1.5008,1.5008,1.5273,1.5538,1.5808,1.5808,1.5808,1.5808,1.5808,1.6015,1.648,1.858,1.9222,1.8933,2.0989,2.2328,2.3091,2.3091,2.3091,2.3091,2.3091,2.3091,2.3091,2.3091,2.3091,2.3091,2.3091,2.3091,2.3227,2.3981,2.4228,2.4346,2.4936,2.5293,2.5474,2.5312,2.5484,2.5693,2.5693,2.5693,2.5693,2.5693,2.5693,2.5645,2.5542,2.562,2.5669,2.5542,2.562,2.5669,2.5532,2.5513,2.524,2.4489,2.4307,2.4121,2.3828,2.6341,2.8005,2.7906,3.0414,3.1964,3.1964,3.1964,3.1788,3.1432,3.1406,3.1406,3.1406,3.1406,3.1587,3.1964,3.1964,3.2265,3.2839,3.2839,3.2939,0.1431,0.0,0.0,0.0,0.0,0.0,0.0,0.0,0.0,0.0,0.0,0.0,0.0,0.0,0.0,0.0,0.0,0.0,0.0,0.0,0.0,0.0,0.0,0.0,0.0,0.0,0.0,0.0,0.0,0.0,0.0,1.4349,1.4349,1.4349,1.4629,1.4805,1.4805,1.519,1.5484,1.5635,1.5748,1.5808,1.5808,1.5808,1.6086,1.6685,1.9146,1.9807,1.9291,2.1212,2.2448,2.3091,2.3091,2.3091,2.3091,2.3091,2.3091,2.3091,2.3091,2.3091,2.3091,2.3091,2.3091,2.3257,2.4137,2.4391,2.4518,2.5156,2.5503,2.561,2.5209,2.54,2.5693,2.5693,2.5693,2.5693,2.5693,2.5693,2.5693,2.5693,2.5693,2.5659,2.5484,2.5591,2.5532,2.5015,2.5084,2.5064,2.4717,2.481,2.4752,2.4369,2.6907,2.8589,2.8489,3.0992,3.2554,3.2554,3.2554,3.2403,3.2097,3.2085,3.2085,3.2085,3.2085,3.2215,3.2554,3.2554,3.2729,3.3102,3.3102,3.3102,0.0,0.0,0.0,0.0,0.0,0.0,0.0,0.0,0.0,0.0,0.0,0.0,0.0,0.0,0.0,0.0,0.0,0.0,0.0,0.0,0.0,0.0,0.0,0.0,0.0,0.0,0.0,0.0,0.0,0.0,1.4102,1.4109,1.4109,1.4109,1.4342,1.4474,1.4501,1.5077,1.5371,1.5398,1.5668,1.5808,1.5808,1.5808,1.6504,1.7824,1.9898,2.1002,2.1369,2.2359,2.2906,2.3091,2.3091,2.3091,2.3091,2.3091,2.3091,2.3091,2.3091,2.3091,2.3091,2.3091,2.3091,2.3257,2.4137,2.4391,2.4567,2.5415,2.5679,2.5601,2.516,2.5342,2.564,2.5577,2.5635,2.5693,2.5693,2.5693,2.5693,2.5693,2.5693,2.5571,2.517,2.541,2.5249,2.4082,2.4268,2.4668,2.5043,2.543,2.5518,2.5141,2.7661,2.9362,2.9396,3.1667,3.3102,3.3102,3.3102,3.3102,3.3102,3.3102,3.3102,3.3102,3.3102,3.3102,3.3102,3.3102,3.3102,3.3102,3.3102,3.3102,0.0,0.0,0.0,0.0,0.0,0.0,0.0,0.0,0.0,0.0,0.0,0.0,0.0,0.0,0.0,0.0,0.0,0.0,0.0,0.0,0.0,0.0,0.0,0.0,0.0,0.0,0.0,0.0,0.0,0.0,1.4088,1.4109,1.4109,1.4109,1.417,1.4289,1.4494,1.4899,1.5193,1.5398,1.5668,1.5808,1.5808,1.5808,1.6504,1.7668,1.7187,1.8618,2.1253,2.057,2.1387,2.3091,2.3091,2.3091,2.3091,2.3091,2.3091,2.3091,2.3091,2.3091,2.3091,2.3091,2.3091,2.3257,2.4137,2.4391,2.4531,2.5059,2.5469,2.5532,2.4742,2.4883,2.5151,2.4762,2.521,2.5693,2.5693,2.5693,2.5693,2.5693,2.5693,2.5571,2.517,2.517,2.5141,2.4857,2.5166,2.5337,2.5121,2.518,2.52,2.5102,2.7396,2.906,2.9373,3.1667,3.3102,3.3102,3.3102,3.3102,3.3102,3.3102,3.3102,3.3102,3.3102,3.3102,3.3102,3.3102,3.3102,3.3102,3.3102,3.3102,0.0,0.0,0.0,0.0,0.0,0.0,0.0,0.0,0.0,0.0,0.0,0.0,0.0,0.0,0.0,0.0,0.0,0.0,0.0,0.0,0.0,0.0,0.0,0.0,0.0,0.0,0.0,0.0,0.0,1.4109,1.4109,1.4109,1.4109,1.4109,1.4109,1.4162,1.4309,1.4603,1.483,1.4977,1.5277,1.5484,1.5601,1.5741,1.6157,1.6826,1.7343,1.8649,2.048,2.0998,2.1952,2.3091,2.3091,2.3091,2.3091,2.3091,2.3091,2.3091,2.3091,2.3091,2.3091,2.3091,2.3091,2.324,2.3916,2.4111,2.4248,2.4906,2.5258,2.5264,2.459,2.4746,2.4936,2.4268,2.4785,2.542,2.542,2.542,2.542,2.542,2.522,2.5006,2.4795,2.4756,2.4848,2.5063,2.5273,2.541,2.5391,2.5391,2.561,2.6232,2.7965,2.941,3.0203,3.2008,3.3102,3.3102,3.3102,3.3102,3.3102,3.3354,3.3366,3.3102,3.3102,3.3102,3.3102,3.3102,3.3228,3.347,3.347,3.3608,0.0,0.0,0.0,0.0,0.0,0.0,0.0,0.0,0.0,0.0,0.0,0.0,0.0,0.0,0.0,0.0,0.0,0.0,0.0,0.0,0.0,0.0,0.0,0.0,0.0,0.0,0.0,0.0,0.0,1.4035,1.4103,1.4109,1.4109,1.4109,1.4109,1.4109,1.4109,1.4376,1.4501,1.4501,1.4899,1.5186,1.5404,1.5675,1.5808,1.592,1.7964,1.8993,1.936,2.1565,2.2589,2.2818,2.3025,2.3091,2.3091,2.3091,2.3091,2.3091,2.3091,2.3091,2.3091,2.3091,2.3091,2.3201,2.3662,2.3789,2.3965,2.4848,2.5092,2.4994,2.4531,2.4687,2.476,2.3887,2.43,2.4916,2.5063,2.5092,2.5112,2.519,2.4766,2.4443,2.4521,2.444,2.456,2.5024,2.516,2.5322,2.5659,2.5693,2.6183,2.7471,2.868,2.9886,3.11,3.2382,3.3102,3.3102,3.3102,3.3102,3.3102,3.3542,3.3545,3.3102,3.319,3.319,3.3102,3.3102,3.3379,3.3897,3.3897,3.4198,0.0,0.0,0.0,0.0,0.0,0.0,0.0,0.0,0.0,0.0,0.0,0.0,0.0,0.0,0.0,0.0,0.0,0.0,0.0,0.0,0.0,0.0,0.0,0.0,0.0,0.0,0.0,0.0,1.3827,1.3794,1.4075,1.4109,1.4109,1.4109,1.4109,1.4109,1.4109,1.4376,1.4501,1.4507,1.5077,1.5357,1.5404,1.5675,1.5808,1.5825,1.615,1.6913,1.8056,1.9428,2.0598,2.1636,2.2699,2.3091,2.3091,2.3091,2.3091,2.3091,2.3091,2.3091,2.3091,2.3091,2.3091,2.3201,2.3662,2.3789,2.3965,2.4848,2.5092,2.4994,2.4531,2.4463,2.4264,2.3406,2.3581,2.4183,2.4926,2.5092,2.5209,2.5542,2.4957,2.4531,2.4936,2.4668,2.456,2.5024,2.54,2.565,2.5684,2.5693,2.6183,2.7471,2.868,2.9886,3.11,3.2382,3.3102,3.3102,3.3102,3.3102,3.3102,3.3178,3.3178,3.3102,3.3567,3.3558,3.3102,3.3102,3.3379,3.3897,3.3897,3.4198,0.0,0.0,0.0,0.0,0.0,0.0,0.0,0.0,0.0,0.0,0.0,0.0,0.0,0.0,0.0,0.0,0.0,0.0,0.0,0.0,0.0,0.0,0.0,0.0,0.0,0.0,0.0,0.0,1.3968,1.3948,1.4082,1.4109,1.4109,1.4109,1.4109,1.4109,1.4109,1.4215,1.4282,1.4282,1.4899,1.518,1.5193,1.5601,1.5808,1.5849,1.6551,1.7568,1.8795,2.0011,2.1212,2.2359,2.2884,2.3091,2.3091,2.3091,2.3091,2.3091,2.3091,2.3091,2.3091,2.3091,2.3091,2.3201,2.3662,2.3623,2.363,2.4779,2.4916,2.4658,2.444,2.4391,2.4176,2.3318,2.3445,2.3978,2.457,2.4697,2.4766,2.4937,2.4883,2.4766,2.4717,2.4928,2.5113,2.5102,2.5449,2.5693,2.5693,2.5693,2.6452,2.8402,2.9085,3.0181,3.2108,3.2776,3.3102,3.3102,3.3102,3.3241,3.3542,3.3834,3.3859,3.3545,3.347,3.3341,3.3102,3.3102,3.3379,3.3909,3.4223,3.464,0.0,0.0,0.0,0.0,0.0,0.0,0.0,0.0,0.0,0.0,0.0,0.0,0.0,0.0,0.0,0.0,0.0,0.0,0.0,0.0,0.0,0.0,0.0,0.0,0.0,0.0,0.0,0.0,1.4015,1.4008,1.4103,1.4109,1.4109,1.4109,1.4109,1.4048,1.3975,1.3975,1.4015,1.4116,1.4705,1.5008,1.5028,1.5565,1.5808,1.5849,1.6803,1.7909,1.9131,2.035,2.1547,2.2677,2.2982,2.3091,2.3091,2.3091,2.3091,2.3091,2.3091,2.3091,2.3091,2.3091,2.3091,2.3181,2.3525,2.3376,2.3335,2.457,2.4668,2.4443,2.4551,2.458,2.4365,2.3484,2.361,2.4062,2.4492,2.4645,2.4723,2.4723,2.4922,2.5024,2.4762,2.5181,2.5488,2.5273,2.5503,2.5693,2.5693,2.5693,2.6524,2.8704,2.9223,3.0271,3.2426,3.2918,3.3102,3.3102,3.3228,3.347,3.3884,3.4424,3.4439,3.3909,3.3633,3.3442,3.3303,3.3454,3.3771,3.4324,3.4715,3.5205,0.0,0.0,0.0,0.0,0.0,0.0,0.0,0.0,0.0,0.0,0.0,0.0,0.0,0.0,0.0,0.0,0.0,0.0,0.0,0.0,0.0,0.0,0.0,0.0,0.0,0.0,0.0,0.0,1.3807,1.3767,1.4075,1.4109,1.4109,1.4109,1.4109,1.3948,1.3626,1.3626,1.3787,1.4116,1.4705,1.5008,1.5028,1.5565,1.5808,1.5808,1.5872,1.6615,1.7893,1.9108,2.0305,2.1502,2.2655,2.3091,2.3091,2.3091,2.3091,2.3091,2.3091,2.3091,2.3091,2.3091,2.3091,2.3101,2.312,2.311,2.3276,2.4176,2.441,2.4512,2.4945,2.5053,2.4838,2.3978,2.4082,2.4502,2.4965,2.5371,2.5615,2.5615,2.5342,2.5219,2.5581,2.5352,2.5244,2.562,2.5698,2.5693,2.5693,2.5693,2.6197,2.7542,2.8727,2.9931,3.1201,3.2404,3.3102,3.3102,3.3571,3.3872,3.3897,3.4424,3.4439,3.3909,3.4364,3.4374,3.3859,3.4364,3.4891,3.542,3.5445,3.5769,0.0,0.0,0.0,0.0,0.0,0.0,0.0,0.0,0.0,0.0,0.0,0.0,0.0,0.0,0.0,0.0,0.0,0.0,0.0,0.0,0.0,0.0,0.0,0.0,0.0,0.0,0.0,0.0,0.0,1.3474,1.3767,1.3627,1.3594,1.3774,1.378,1.382,1.3928,1.3928,1.3981,1.4088,1.4489,1.4676,1.4696,1.5284,1.5551,1.5541,1.5728,1.696,1.8887,1.9314,2.0674,2.2492,2.2938,2.3091,2.3091,2.3091,2.3091,2.3091,2.3091,2.3091,2.3091,2.3091,2.3091,2.3171,2.3445,2.3337,2.3335,2.4512,2.4639,2.4521,2.4975,2.5092,2.5014,2.4711,2.475,2.4984,2.54,2.5601,2.5693,2.5693,2.5581,2.5523,2.5689,2.5581,2.5532,2.5689,2.5693,2.5693,2.5693,2.5693,2.6183,2.7471,2.868,2.9886,3.11,3.2382,3.3102,3.3102,3.3596,3.406,3.4389,3.4941,3.5107,3.4941,3.5491,3.5175,3.3897,3.4427,3.4803,3.4981,3.5332,3.5631,0.0,0.0,0.0,0.0,0.0,0.0,0.0,0.0,0.0,0.0,0.0,0.0,0.0,0.0,0.0,0.0,0.0,0.0,0.0,0.0,0.0,0.0,0.0,0.0,0.0,0.0,0.0,0.0,0.0,0.0,1.3593,1.344,1.338,1.3453,1.348,1.362,1.3935,1.3941,1.3988,1.4088,1.4361,1.4547,1.4683,1.5177,1.5451,1.5551,1.5721,1.6983,1.8933,1.9337,2.0674,2.2536,2.2928,2.3091,2.3091,2.3091,2.3091,2.3091,2.3091,2.3091,2.3091,2.3091,2.3091,2.3171,2.3464,2.3347,2.3327,2.4378,2.4531,2.4521,2.4975,2.5092,2.5131,2.5278,2.52,2.5219,2.562,2.5693,2.5693,2.5693,2.5693,2.5693,2.5693,2.5693,2.5693,2.5693,2.5693,2.5693,2.5693,2.5693,2.6183,2.7471,2.868,2.9886,3.11,3.252,3.3379,3.3379,3.4048,3.459,3.4966,3.5506,3.5707,3.5495,3.6081,3.5753,3.4427,3.5002,3.5278,3.5278,3.5642,3.5794,0.0,0.0,0.0,0.0,0.0,0.0,0.0,0.0,0.0,0.0,0.0,0.0,0.0,0.0,0.0,0.0,0.0,0.0,0.0,0.0,0.0,0.0,0.0,0.0,0.0,0.0,0.0,0.0,1.3567,1.3573,1.3586,1.3586,1.3474,1.3206,1.3206,1.3333,1.36,1.3613,1.378,1.4088,1.4361,1.4669,1.4972,1.528,1.5545,1.5781,1.5795,1.6527,1.78,1.9001,2.0237,2.1471,2.2633,2.3091,2.3091,2.3091,2.3091,2.3091,2.3091,2.3091,2.3091,2.3091,2.3091,2.3091,2.311,2.311,2.323,2.3701,2.4121,2.4531,2.4994,2.5112,2.5219,2.561,2.54,2.5229,2.562,2.5693,2.5693,2.5693,2.5693,2.5693,2.5693,2.5693,2.5693,2.5693,2.5693,2.5708,2.5757,2.5757,2.6245,2.7518,2.8727,2.9931,3.11,3.2852,3.3884,3.3872,3.4904,3.5495,3.547,3.6056,3.613,3.5533,3.6094,3.6117,3.552,3.6117,3.6405,3.6405,3.6405,3.6405,0.4671,0.0,0.0,0.0,0.0,0.0,0.0,0.0,0.0,0.0,0.0,0.0,0.0,0.0,0.0,0.0,0.0,0.0,0.0,0.0,0.0,0.0,0.0,0.0,0.0,0.0,0.0,0.0,1.2792,1.2847,1.3287,1.3307,1.3193,1.2924,1.3093,1.3333,1.36,1.3834,1.4008,1.4088,1.4361,1.4456,1.4377,1.507,1.5324,1.5247,1.5621,1.6527,1.78,1.9001,2.0719,2.2633,2.2982,2.3091,2.3091,2.3091,2.3091,2.3091,2.3091,2.3091,2.3091,2.3091,2.3091,2.3149,2.3493,2.3613,2.376,2.4525,2.4818,2.499,2.5406,2.5532,2.5562,2.5664,2.562,2.5562,2.5689,2.5693,2.5693,2.5693,2.5693,2.5693,2.5693,2.5693,2.5693,2.5693,2.5693,2.6038,2.6969,2.7078,2.7542,2.8773,2.9977,3.0832,3.1178,3.2852,3.3721,3.3354,3.469,3.532,3.4941,3.5879,3.6306,3.6155,3.6306,3.6306,3.6155,3.6306,3.6405,3.6405,3.6405,3.6405,0.0,0.0,0.0,0.0,0.0,0.0,0.4621,0.4745,0.4886,0.0,0.0,0.0,0.0,0.0,0.0,0.0,0.0,0.0,0.0,0.0,0.0,0.0,0.0,0.0,0.0,1.2405,1.2444,1.2764,1.2623,1.2718,1.3186,1.3193,1.3086,1.2816,1.3166,1.3393,1.342,1.3881,1.4109,1.4088,1.4262,1.4315,1.4282,1.4796,1.507,1.5209,1.6033,1.7172,1.8549,1.9739,2.1087,2.2391,2.2894,2.3091,2.3091,2.3091,2.3091,2.3091,2.3091,2.3091,2.3091,2.3091,2.3091,2.3201,2.3662,2.3789,2.3926,2.4633,2.4945,2.52,2.5601,2.5693,2.5693,2.5693,2.5693,2.5693,2.5693,2.5693,2.5693,2.5693,2.5693,2.5693,2.5693,2.5693,2.5693,2.5693,2.5693,2.5965,2.6706,2.6802,2.7568,2.9525,3.0159,3.1053,3.254,3.3424,3.396,3.4098,3.4992,3.5481,3.5416,3.6042,3.6405,3.6405,3.6405,3.6405,3.6405,3.6405,3.6405,3.6405,3.6405,3.6405,0.0,0.0,0.0,0.0,0.0,0.0,0.4755,0.4847,0.4903,0.4752,0.0,0.0,0.0,0.0,0.0,0.0,0.0,0.0,0.0,0.0,0.0,0.0,0.0,0.0,1.2204,1.2231,1.2383,1.2689,1.2769,1.2891,1.31,1.314,1.3052,1.281,1.33,1.3467,1.324,1.3808,1.4109,1.4109,1.4122,1.4255,1.4454,1.4514,1.4836,1.5366,1.6641,1.8068,1.9552,2.0783,2.1378,2.1606,2.2687,2.3091,2.3091,2.3091,2.3091,2.3091,2.3091,2.3091,2.3091,2.3091,2.3091,2.3201,2.3662,2.3789,2.3887,2.4355,2.4805,2.5258,2.561,2.5693,2.5693,2.5693,2.5693,2.5693,2.5693,2.5747,2.5786,2.5786,2.5747,2.5728,2.5776,2.5786,2.5786,2.5786,2.5825,2.5903,2.604,2.6112,2.7246,3.009,3.0044,3.1084,3.4247,3.4176,3.4364,3.5257,3.5495,3.5807,3.6281,3.6367,3.6405,3.6405,3.6405,3.6405,3.6405,3.6405,3.6405,3.6405,3.6405,3.6405,0.0,0.0,0.0,0.0,0.0,0.0,0.4935,0.5096,0.5215,0.0,0.0,0.0,0.0,0.0,0.0,0.0,0.0,0.0,0.0,0.0,0.0,0.0,0.0,0.0,1.1579,1.181,1.2013,1.2074,1.2534,1.2703,1.2485,1.2725,1.2851,1.281,1.3106,1.336,1.3513,1.3908,1.4109,1.4088,1.4322,1.4342,1.4188,1.4685,1.4832,1.476,1.6475,1.7957,1.9293,2.0713,2.1867,2.2775,2.3003,2.3091,2.3091,2.3091,2.3091,2.3091,2.3091,2.3091,2.3091,2.3091,2.3091,2.3201,2.3662,2.3789,2.3955,2.475,2.5264,2.5601,2.5689,2.5693,2.5693,2.5693,2.5693,2.5693,2.5693,2.5991,2.626,2.626,2.5952,2.5825,2.6201,2.626,2.626,2.626,2.6553,2.7101,2.8064,2.8769,2.9789,3.1389,3.2059,3.2655,3.336,3.411,3.4439,3.4236,3.5489,3.6056,3.5694,3.6143,3.6405,3.6405,3.6405,3.6405,3.6405,3.6405,3.6405,3.6405,3.6405,3.6405,0.0,0.0,0.0,0.5274,0.0,0.0,0.0,0.5196,0.5203,0.5038,0.0,0.0,0.0,0.0,0.0,0.0,0.0,0.0,0.0,0.0,0.0,0.0,0.0,0.0,1.1406,1.1557,1.1728,1.1893,1.2296,1.2544,1.2544,1.2832,1.2945,1.281,1.3186,1.3407,1.3407,1.3868,1.4109,1.4109,1.4235,1.4229,1.4116,1.4417,1.4522,1.4586,1.6279,1.7807,1.9215,2.0686,2.2009,2.3091,2.3091,2.3091,2.3091,2.3091,2.3091,2.3091,2.3091,2.3091,2.3091,2.3091,2.3091,2.3201,2.3662,2.4105,2.4584,2.5215,2.5542,2.5693,2.5693,2.5693,2.5693,2.5693,2.5693,2.5767,2.5991,2.623,2.6539,2.6969,2.667,2.642,2.666,2.6699,2.6699,2.6699,2.6875,2.7475,2.8744,2.901,2.9942,3.2169,3.2514,3.3054,3.4194,3.454,3.4839,3.5138,3.5642,3.5956,3.5956,3.6243,3.6405,3.6405,3.6405,3.6405,3.6405,3.6405,3.6405,3.6405,3.6405,3.6405,0.0,0.0,0.0,0.0,0.0,0.5511,0.0,0.0,0.0,0.517,0.0,0.0,0.0,0.0,0.0,0.0,0.0,0.0,0.0,0.0,0.0,0.0,0.0,0.0,1.1312,1.1379,1.155,1.1862,1.2156,1.2423,1.2683,1.2899,1.2965,1.279,1.328,1.3433,1.328,1.3821,1.4109,1.4109,1.4109,1.4109,1.4109,1.4109,1.4249,1.4601,1.6126,1.7672,1.9215,2.0686,2.2009,2.3091,2.3091,2.3091,2.3091,2.3091,2.3091,2.3091,2.3091,2.3091,2.3091,2.3091,2.3149,2.3308,2.3682,2.4408,2.517,2.5484,2.565,2.5693,2.5693,2.5693,2.5693,2.5693,2.5693,2.5806,2.6182,2.6396,2.6709,2.7438,2.7393,2.7236,2.7158,2.7139,2.7139,2.7139,2.7139,2.7604,2.893,2.8645,2.9449,3.2382,3.2422,3.3024,3.5015,3.4969,3.5265,3.6168,3.5893,3.5893,3.6392,3.6405,3.6405,3.6405,3.6405,3.6405,3.6405,3.6405,3.6405,3.6405,3.6405,3.6405,0.0,0.0,0.0,0.0,0.5849,0.0,0.0,0.0,0.565,0.5423,0.0,0.0,0.0,0.0,0.0,0.0,0.0,0.0,0.0,0.0,0.0,0.0,0.0,0.0,0.0,1.1259,1.155,1.1862,1.2156,1.2318,1.2351,1.2385,1.2512,1.2796,1.3099,1.3347,1.3553,1.3921,1.4109,1.4109,1.4109,1.4109,1.4109,1.4109,1.4249,1.4601,1.6126,1.7672,1.9215,2.0686,2.2009,2.3091,2.3091,2.3091,2.3091,2.3091,2.3091,2.3091,2.3091,2.3091,2.3091,2.3091,2.3376,2.3721,2.3769,2.4408,2.5102,2.5151,2.543,2.5693,2.5693,2.5693,2.5693,2.5693,2.5693,2.5703,2.5776,2.6381,2.6973,2.707,2.7656,2.8027,2.7682,2.7624,2.7624,2.7624,2.7624,2.8062,2.9283,2.9028,2.958,3.1772,3.2367,3.3028,3.3999,3.4904,3.5458,3.5583,3.6031,3.6318,3.6405,3.6405,3.6405,3.6405,3.6405,3.6405,3.6405,3.6405,3.6405,3.6405,3.6405,3.6405,0.0,0.0,0.0,0.0,0.0,0.0,0.5836,0.0,0.5766,0.0,0.0,0.0,0.0,0.0,0.0,0.0,0.6028,0.0,0.0,0.0,0.0,0.0,0.0,0.0,0.0,0.0,0.0,1.136,1.163,1.187,1.2062,1.2211,1.2457,1.2789,1.3072,1.3333,1.36,1.3941,1.4109,1.4109,1.4109,1.4109,1.4109,1.4109,1.4249,1.4601,1.6126,1.7672,1.9215,2.0686,2.2009,2.3091,2.3091,2.3091,2.3091,2.3091,2.3091,2.3091,2.3091,2.3091,2.3091,2.3091,2.3415,2.3838,2.4082,2.458,2.5151,2.5381,2.5571,2.5693,2.5693,2.5693,2.5693,2.5693,2.5693,2.5762,2.604,2.6396,2.6728,2.6947,2.7305,2.7578,2.7682,2.7888,2.8054,2.8054,2.8054,2.8509,2.9802,3.021,3.0991,3.2653,3.3723,3.4468,3.4808,3.5567,3.6019,3.6019,3.6256,3.6405,3.6405,3.6405,3.6405,3.6405,3.6405,3.6405,3.6405,3.6405,3.6405,3.6405,3.6405,3.6405,0.5905,0.0,0.0,0.0,0.0,0.0,0.0,0.0,0.0,0.0,0.0,0.0,0.0,0.0,0.0,0.0,0.0,0.0,0.0,0.0,0.0,0.0,0.0,0.0,0.0,0.0,0.0,1.0998,1.1336,1.1637,1.1893,1.2144,1.2405,1.2656,1.3006,1.3293,1.3487,1.3901,1.4109,1.4109,1.4109,1.4109,1.4109,1.4109,1.4474,1.5198,1.6316,1.7895,1.9794,2.0864,2.2009,2.3091,2.3091,2.3091,2.3091,2.3091,2.3091,2.3091,2.3091,2.3091,2.3091,2.3091,2.3415,2.3867,2.4287,2.4727,2.519,2.5581,2.5693,2.5693,2.5693,2.5693,2.5693,2.5693,2.5693,2.5796,2.6143,2.6309,2.6484,2.6787,2.7031,2.7295,2.7643,2.7946,2.8164,2.8271,2.822,2.8598,2.9896,3.0611,3.1596,3.3125,3.4432,3.5273,3.5485,3.6044,3.6405,3.6405,3.6405,3.6405,3.6405,3.6405,3.6405,3.6405,3.6405,3.6405,3.6405,3.6405,3.6405,3.6405,3.6405,3.6405,0.0,0.0,0.0,0.6233,0.0,0.0,0.0,0.0,0.6201,0.0,0.0,0.0,0.0,0.0,0.0,0.0,0.0,0.0,0.0,0.0,0.0,0.0,0.0,0.0,0.0,0.0,1.0982,1.0995,1.1547,1.1893,1.1906,1.2144,1.2305,1.2318,1.2899,1.3193,1.3207,1.3801,1.4109,1.4109,1.4109,1.4109,1.4109,1.4109,1.5063,1.6726,1.6777,1.8495,2.123,2.1293,2.2009,2.3091,2.3091,2.3091,2.3091,2.3091,2.3091,2.3091,2.3091,2.3091,2.3091,2.3091,2.3415,2.3867,2.4287,2.4727,2.519,2.5581,2.5693,2.5693,2.5693,2.5693,2.5693,2.5693,2.5693,2.5693,2.5728,2.6094,2.6396,2.6431,2.7106,2.7673,2.7692,2.7702,2.7848,2.8232,2.7976,2.8161,2.9377,2.9646,3.0522,3.2512,3.3743,3.4715,3.544,3.6044,3.6405,3.6405,3.6405,3.6405,3.6405,3.6405,3.6405,3.6405,3.6405,3.6405,3.6405,3.6405,3.6405,3.6405,3.6405,3.6405,0.0,0.0,0.6355,0.6406,0.0,0.0,0.0,0.0,0.0,0.0,0.0,0.0,0.0,0.0,0.0,0.0,0.0,0.0,0.0,0.0,0.0,0.0,0.0,0.0,0.0,0.0,0.0,1.074,1.1249,1.1577,1.1577,1.2037,1.2392,1.263,1.2993,1.3287,1.3453,1.3888,1.4109,1.4109,1.4109,1.4188,1.4347,1.4347,1.5349,1.7101,1.7954,1.9456,2.136,2.2173,2.2721,2.3091,2.3091,2.3091,2.3091,2.3091,2.3091,2.3091,2.3091,2.3091,2.3091,2.3091,2.3601,2.4228,2.4352,2.4908,2.5523,2.5669,2.5693,2.5693,2.5693,2.5693,2.5693,2.5693,2.5693,2.5693,2.5693,2.6084,2.6387,2.6387,2.6846,2.7334,2.7643,2.7692,2.7839,2.8232,2.8174,2.8559,2.9854,3.0061,3.1059,3.3573,3.4171,3.486,3.6,3.6281,3.6405,3.6405,3.6405,3.6405,3.6405,3.6405,3.6405,3.6405,3.6405,3.6405,3.6405,3.6405,3.6405,3.6405,3.6405,3.6405,0.6675,0.6627,0.0,0.6573,0.6573,0.0,0.6409,0.0,0.0,0.0,0.0,0.0,0.0,0.0,0.0,0.0,0.0,0.0,0.0,0.0,0.0,0.0,0.0,0.0,0.0,0.0,1.0609,1.0609,1.1002,1.1299,0.0,1.1884,1.2303,1.2616,1.2993,1.328,1.3467,1.3888,1.4109,1.4109,1.4109,1.4387,1.4928,1.5075,1.6285,1.8328,1.9313,2.0589,2.2009,2.2775,2.3091,2.3091,2.3091,2.3091,2.3091,2.3091,2.3091,2.3091,2.3091,2.322,2.3327,2.3149,2.3698,2.4391,2.4391,2.4898,2.5542,2.5854,2.5835,2.5747,2.5903,2.5942,2.5913,2.5747,2.5835,2.5942,2.5942,2.6191,2.6435,2.6582,2.6953,2.7334,2.7643,2.7819,2.8005,2.8252,2.8291,2.8618,2.9487,3.0421,3.1684,3.3464,3.452,3.5463,3.6334,3.6405,3.6405,3.6405,3.6405,3.6405,3.6405,3.6405,3.6505,3.667,3.6505,3.6482,3.6683,3.6482,3.6405,3.6405,3.6405,3.6405]},{"header":{"parameterUnit":"m.s-1","parameterCategory":1,"la1":30.6,"la2":29.2853,"lo1":-89.7004,"lo2":-87.6739,"dy":0.0162,"dx":0.0183,"nx":112,"ny":82,"refTime":"2023-03-19T06:00:00:Z","depth":0,"parameterNumber":3,"parameterNumberName":"V-component_of_WINDS"},"data":[0.0,0.0,0.0,0.0,0.0,0.0,0.0,0.0,0.0,0.0,0.0,0.0,0.0,0.0,0.0,0.0,0.0,0.0,0.0,0.0,0.0,0.0,0.0,0.0,0.0,0.0,0.0,0.0,0.0,0.0,0.0,0.0,0.0,0.0,0.0,0.0,0.0,0.0,0.0,0.0,0.0,0.0,0.0,0.0,0.0,0.0,0.0,0.0,0.0,0.0,0.0,0.0,0.0,0.0,0.0,0.0,0.0,0.0,0.0,0.0,0.0,0.0,0.0,0.0,0.0,0.0,0.0,0.0,0.0,0.0,0.0,0.0,0.0,0.0,0.0,0.0,0.0,0.0,0.0,0.0,0.0,0.0,0.0,0.0,0.0,0.0,0.0,0.0,0.0,0.0,1.5852,1.7712,1.9661,2.0742,2.0578,1.9032,1.74,1.5793,0.0,0.0,0.0,0.0,0.0,0.0,0.0,0.0,0.0,0.0,0.0,0.0,0.0,0.0,0.0,0.0,0.0,0.0,0.0,0.0,0.0,0.0,0.0,0.0,0.0,0.0,0.0,0.0,0.0,0.0,0.0,0.0,0.0,0.0,0.0,0.0,0.0,0.0,0.0,0.0,0.0,0.0,0.0,0.0,0.0,0.0,0.0,0.0,0.0,0.0,0.0,0.0,0.0,0.0,0.0,0.0,0.0,0.0,0.0,0.0,0.0,0.0,0.0,0.0,0.0,0.0,0.0,0.0,0.0,0.0,0.0,0.0,0.0,0.0,0.0,0.0,0.0,0.0,0.0,0.0,0.0,0.0,0.0,0.0,0.0,0.0,0.0,0.0,0.0,0.0,0.0,0.0,0.0,0.0,0.0,0.0,0.0,0.0,0.0,0.0,0.0,0.0,0.0,0.0,1.7275,1.9912,2.0918,2.0992,2.0012,1.8454,1.6997,1.5779,0.0,0.0,0.0,0.0,0.0,0.0,0.0,0.0,0.0,0.0,0.0,0.0,0.0,0.0,0.0,0.0,0.0,0.0,0.0,0.0,0.0,0.0,0.0,0.0,0.0,0.0,0.0,0.0,0.0,0.0,0.0,0.0,0.0,0.0,0.0,0.0,0.0,0.0,0.0,0.0,0.0,0.0,0.0,0.0,0.0,0.0,0.0,0.0,0.0,0.0,0.0,0.0,0.0,0.0,0.0,0.0,0.0,0.0,0.0,0.0,0.0,0.0,0.0,0.0,0.0,0.0,0.0,0.0,0.0,0.0,0.0,0.0,0.0,0.0,0.0,0.0,0.0,0.0,0.0,0.0,0.0,0.0,0.0,0.0,0.0,0.0,0.0,0.0,0.0,0.0,0.0,0.0,0.0,0.0,0.0,0.0,0.0,0.0,0.0,0.0,0.0,0.0,0.0,1.7452,1.8493,2.1268,2.1532,2.1042,1.9899,1.8593,1.735,1.621,1.6122,0.0,0.0,0.0,0.0,0.0,0.0,0.0,0.0,0.0,0.0,0.0,0.0,0.0,0.0,0.0,0.0,0.0,0.0,0.0,0.0,0.0,0.0,0.0,0.0,0.0,0.0,0.0,0.0,0.0,0.0,0.0,0.0,0.0,0.0,0.0,0.0,0.0,0.0,0.0,0.0,0.0,0.0,0.0,0.0,0.0,0.0,0.0,0.0,0.0,0.0,0.0,0.0,0.0,0.0,0.0,0.0,0.0,0.0,0.0,0.0,0.0,0.0,0.0,0.0,0.0,0.0,0.0,0.0,0.0,0.0,0.0,0.0,0.0,0.0,0.0,0.0,0.0,0.0,0.0,0.0,0.0,0.0,0.0,0.0,0.0,0.0,0.0,0.0,0.0,0.0,0.0,0.0,0.0,0.0,0.0,0.0,0.0,0.0,0.0,0.0,0.0,0.0,1.8757,1.9497,2.187,2.1744,2.0992,1.9723,1.8631,1.7589,1.655,1.6385,0.0,0.0,0.0,0.0,0.0,0.0,0.0,0.0,0.0,0.0,0.0,0.0,0.0,0.0,0.0,0.0,0.0,0.0,0.0,0.0,0.0,0.0,0.0,0.0,0.0,0.0,0.0,0.0,0.0,0.0,0.0,0.0,0.0,0.0,0.0,0.0,0.0,0.0,0.0,0.0,0.0,0.0,0.0,0.0,0.0,0.0,0.0,0.0,0.0,0.0,0.0,0.0,0.0,0.0,0.0,0.0,0.0,0.0,0.0,0.0,0.0,0.0,0.0,0.0,0.0,0.0,0.0,0.0,0.0,0.0,0.0,0.0,0.0,0.0,0.0,0.0,0.0,0.0,0.0,0.0,0.0,0.0,0.0,0.0,0.0,0.0,0.0,0.0,0.0,0.0,0.0,0.0,0.0,0.0,0.0,0.0,0.0,0.0,0.0,0.0,0.0,0.0,1.9397,2.0162,2.1419,2.152,2.084,1.9196,1.8078,1.7186,1.6538,1.6022,0.0,0.0,0.0,0.0,0.0,0.0,0.0,0.0,0.0,0.0,0.0,0.0,0.0,0.0,0.0,0.0,0.0,0.0,0.0,0.0,0.0,0.0,0.0,0.0,0.0,0.0,0.0,0.0,0.0,0.0,0.0,0.0,0.0,0.0,0.0,0.0,0.0,0.0,0.0,0.0,0.0,0.0,0.0,0.0,0.0,0.0,0.0,0.0,0.0,0.0,0.0,0.0,0.0,0.0,0.0,0.0,0.0,0.0,0.0,0.0,0.0,0.0,0.0,0.0,0.0,0.0,0.0,0.0,0.0,0.0,0.0,0.0,0.0,0.0,0.0,0.0,0.0,0.0,0.0,0.0,0.0,0.0,0.0,0.0,0.0,0.0,0.0,0.0,0.0,0.0,0.0,0.0,0.0,0.0,0.0,0.0,0.0,0.0,0.0,0.0,0.0,0.0,1.9685,2.0363,0.0,2.1407,2.0464,1.9108,1.7941,1.72,1.7005,0.0,0.0,0.0,0.0,0.0,0.0,0.0,0.0,0.0,0.0,0.0,0.0,0.0,0.0,0.0,0.0,0.0,0.0,0.0,0.0,0.0,0.0,0.0,0.0,0.0,0.0,0.0,0.0,0.0,0.0,0.0,0.0,0.0,0.0,0.0,0.0,0.0,0.0,0.0,0.0,0.0,0.0,0.0,0.0,0.0,0.0,0.0,0.0,0.0,0.0,0.0,0.0,0.0,0.0,0.0,0.0,0.0,0.0,0.0,0.0,0.0,0.0,0.0,0.0,0.0,0.0,0.0,0.0,0.0,0.0,0.0,0.0,0.0,0.0,0.0,0.0,0.0,0.0,0.0,0.0,0.0,0.0,0.0,0.0,0.0,0.0,0.0,0.0,0.0,0.0,0.0,0.0,0.0,0.0,0.0,0.0,0.0,0.0,0.0,0.0,0.0,0.0,1.9309,2.0041,2.0759,0.0,2.135,2.0489,1.9125,1.7909,1.7256,1.7302,0.0,0.0,0.0,0.0,0.0,0.0,0.0,0.0,0.0,0.0,0.0,0.0,0.0,0.0,0.0,0.0,0.0,0.0,0.0,0.0,0.0,0.0,0.0,0.0,0.0,0.0,0.0,0.0,0.0,0.0,0.0,0.0,0.0,0.0,0.0,0.0,0.0,0.0,0.0,0.0,0.0,0.0,0.0,0.0,0.0,0.0,0.0,0.0,0.0,0.0,0.0,0.0,0.0,0.0,0.0,0.0,0.0,0.0,0.0,0.0,0.0,0.0,0.0,0.0,0.0,0.0,0.0,0.0,0.0,0.0,0.0,0.0,0.0,0.0,0.0,0.0,0.0,0.0,0.0,0.0,0.0,0.0,0.0,0.0,0.0,0.0,0.0,0.0,0.0,0.0,0.0,0.0,0.0,0.0,0.0,0.0,0.0,0.0,0.0,0.0,0.0,0.0,1.8868,2.0581,2.1449,2.0789,2.1355,2.1028,1.9168,1.7953,1.7288,0.0,0.0,0.0,0.0,0.0,0.0,0.0,0.0,0.0,0.0,0.0,0.0,0.0,0.0,0.0,0.0,0.0,0.0,0.0,0.0,0.0,0.0,0.0,0.0,0.0,0.0,0.0,0.0,0.0,0.0,0.0,0.0,0.0,0.0,0.0,0.0,0.0,0.0,0.0,0.0,0.0,0.0,0.0,0.0,0.0,0.0,0.0,0.0,0.0,0.0,0.0,0.0,0.0,0.0,0.0,0.0,0.0,0.0,0.0,0.0,0.0,0.0,0.0,0.0,0.0,0.0,0.0,0.0,0.0,0.0,0.0,0.0,0.0,0.0,0.0,0.0,0.0,0.0,0.0,0.0,0.0,0.0,0.0,0.0,0.0,0.0,0.0,0.0,0.0,0.0,0.0,0.0,0.0,0.0,0.0,0.0,0.0,0.0,0.0,0.0,0.0,0.0,0.0,1.9503,2.0508,2.1327,2.198,2.1138,2.0282,1.969,1.7769,1.6957,1.781,0.0,0.0,0.0,0.0,0.0,0.0,0.0,0.0,0.0,0.0,0.0,0.0,0.0,0.0,0.0,0.0,0.0,0.0,0.0,0.0,0.0,0.0,0.0,0.0,0.0,0.0,0.0,0.0,0.0,0.0,0.0,0.0,0.0,0.0,0.0,0.0,0.0,0.0,0.0,0.0,0.0,0.0,0.0,0.0,0.0,0.0,0.0,0.0,0.0,0.0,0.0,0.0,0.0,0.0,0.0,0.0,0.0,0.0,0.0,0.0,0.0,0.0,0.0,0.0,0.0,0.0,0.0,0.0,0.0,0.0,0.0,0.0,0.0,0.0,0.0,0.0,0.0,0.0,0.0,0.0,0.0,0.0,0.0,0.0,0.0,0.0,0.0,0.0,0.0,0.0,0.0,0.0,0.0,0.0,0.0,0.0,0.0,0.0,0.0,0.0,0.0,0.0,2.0153,2.1264,2.2095,2.2588,2.1747,2.0897,2.0269,1.8277,1.7356,1.8052,0.0,0.0,0.0,0.0,0.0,0.0,0.0,0.0,0.0,0.0,0.0,0.0,0.0,0.0,0.0,0.0,0.0,0.0,0.0,0.0,0.0,0.0,0.0,0.0,0.0,0.0,0.0,0.0,0.0,0.0,0.0,0.0,0.0,0.0,0.0,0.0,0.0,0.0,0.0,0.0,0.0,0.0,0.0,0.0,0.0,0.0,0.0,0.0,0.0,0.0,0.0,0.0,0.0,0.0,0.0,0.0,0.0,0.0,0.0,0.0,0.0,0.0,0.0,0.0,0.0,0.0,0.0,0.0,0.0,0.0,0.0,0.0,0.0,0.0,0.0,0.0,0.0,0.0,0.0,0.0,0.0,0.0,0.0,0.0,0.0,0.0,0.0,0.0,0.0,0.0,0.0,0.0,0.0,0.0,0.0,0.0,0.0,0.0,0.0,0.0,0.0,0.0,2.0821,2.2513,2.3411,2.2937,2.2902,2.2308,2.0839,1.9217,1.8232,1.8104,0.0,0.0,0.0,0.0,0.0,0.0,0.0,0.0,0.0,0.0,0.0,0.0,0.0,0.0,0.0,0.0,0.0,0.0,0.0,0.0,0.0,0.0,0.0,0.0,0.0,0.0,0.0,0.0,0.0,0.0,0.0,0.0,0.0,0.0,0.0,0.0,0.0,0.0,0.0,0.0,0.0,0.0,0.0,0.0,0.0,0.0,0.0,0.0,0.0,0.0,0.0,0.0,0.0,0.0,0.0,0.0,0.0,0.0,0.0,0.0,1.4638,0.0,0.0,0.0,0.0,0.0,0.0,0.0,0.0,0.0,0.0,0.0,0.0,0.0,0.0,0.0,0.0,0.0,0.0,0.0,0.0,0.0,0.0,0.0,0.0,0.0,0.0,0.0,0.0,0.0,0.0,0.0,0.0,0.0,0.0,0.0,0.0,0.0,0.0,0.0,0.0,0.0,2.1506,2.2815,2.374,2.4148,2.342,2.2345,2.0965,1.966,1.8683,1.8123,1.7997,0.0,0.0,0.0,0.0,0.0,0.0,0.0,0.0,0.0,0.0,0.0,0.0,0.0,0.0,0.0,0.0,0.0,0.0,0.0,0.0,0.0,0.0,0.0,0.0,0.0,0.0,0.0,0.0,0.0,0.0,0.0,0.0,0.0,0.0,0.0,0.0,0.0,0.0,0.0,0.0,0.0,0.0,0.0,0.0,0.0,0.0,0.0,0.0,0.0,0.0,0.0,0.0,0.0,0.0,0.0,0.0,0.0,0.0,0.0,0.0,1.5297,0.0,0.0,0.0,0.0,0.0,0.0,0.0,0.0,0.0,0.0,0.0,0.0,0.0,0.0,0.0,0.0,0.0,0.0,0.0,0.0,0.0,0.0,0.0,0.0,0.0,0.0,0.0,0.0,0.0,0.0,0.0,0.0,0.0,0.0,0.0,0.0,0.0,0.0,0.0,0.0,2.2506,2.3506,2.4347,2.502,2.4288,2.308,2.1435,2.0177,1.919,1.8524,1.8243,0.0,0.0,0.0,0.0,0.0,0.0,0.0,0.0,0.0,0.0,0.0,0.0,0.0,0.0,0.0,0.0,0.0,0.0,0.0,0.0,0.0,0.0,0.0,0.0,0.0,0.0,0.0,0.0,0.0,0.0,0.0,0.0,0.0,0.0,0.0,0.0,0.0,0.0,0.0,0.0,0.0,0.0,0.0,0.0,0.0,0.0,0.0,0.0,0.0,0.0,0.0,0.0,0.0,1.7797,1.8022,1.7844,1.8085,1.7772,1.7025,1.6525,1.5919,1.5381,1.6308,0.0,0.0,0.0,0.0,0.0,0.0,0.0,0.0,0.0,0.0,0.0,0.0,0.0,0.0,0.0,0.0,0.0,0.0,0.0,0.0,0.0,0.0,0.0,0.0,1.657,1.6347,1.5487,0.0,0.0,0.0,0.0,0.0,0.0,0.0,0.0,0.0,0.0,0.0,2.337,2.4287,2.5023,2.5693,2.5229,2.406,2.208,2.0871,1.9886,1.9118,1.8644,1.8341,0.0,0.0,0.0,0.0,0.0,0.0,0.0,0.0,0.0,0.0,0.0,0.0,0.0,0.0,0.0,0.0,0.0,0.0,0.0,0.0,0.0,0.0,0.0,0.0,0.0,0.0,0.0,0.0,0.0,0.0,0.0,0.0,1.6566,1.5543,0.0,0.0,0.0,0.0,0.0,0.0,0.0,0.0,0.0,0.0,0.0,0.0,0.0,1.8137,1.8447,1.8536,1.8646,1.8794,1.947,1.9291,1.8423,1.9605,1.9502,1.8424,1.8358,0.0,1.7287,1.6868,0.0,0.0,0.0,0.0,0.0,0.0,0.0,0.0,0.0,0.0,0.0,0.0,0.0,0.0,0.0,0.0,0.0,0.0,0.0,0.0,0.0,0.0,1.6627,1.7147,1.7261,1.735,0.0,1.6986,1.6306,1.6369,1.6814,0.0,0.0,0.0,0.0,0.0,0.0,0.0,2.3415,2.4691,2.5734,2.6393,2.5872,2.4733,2.2907,2.1957,2.097,1.9839,1.9585,1.9271,1.8817,1.8727,0.0,0.0,0.0,0.0,0.0,0.0,0.0,0.0,0.0,0.0,0.0,0.0,0.0,0.0,0.0,0.0,0.0,0.0,0.0,0.0,0.0,0.0,0.0,0.0,0.0,0.0,0.0,0.0,0.0,1.7794,1.7493,1.6889,1.7348,1.7781,0.0,0.0,0.0,0.0,0.0,0.0,0.0,0.0,0.0,1.8676,1.8522,1.8647,1.9055,1.9431,2.0028,2.0858,2.1529,2.1608,2.1148,2.1752,2.1726,2.121,2.091,2.0607,2.0207,1.8512,1.8117,1.8619,0.0,0.0,0.0,0.0,1.9699,2.0228,1.9935,2.0249,2.0768,2.0439,0.0,0.0,0.0,0.0,0.0,0.0,0.0,0.0,0.0,0.0,1.8932,1.9196,1.9472,1.9686,1.9623,1.9195,1.8462,0.0,1.7443,1.7876,1.8062,0.0,0.0,0.0,0.0,2.2722,2.4003,2.5319,2.6273,2.6569,2.6004,2.4969,2.343,2.2667,2.1709,2.0426,2.0301,1.9987,1.936,1.9353,1.9256,0.0,0.0,0.0,0.0,0.0,0.0,0.0,0.0,0.0,0.0,0.0,0.0,0.0,0.0,0.0,0.0,0.0,0.0,0.0,0.0,0.0,0.0,0.0,0.0,0.0,0.0,0.0,0.0,1.8236,1.8327,1.7594,1.7869,1.8194,0.0,0.0,0.0,0.0,0.0,0.0,1.9158,1.9902,2.0146,1.9789,1.9396,1.9512,2.02,2.0705,2.1657,2.308,2.3585,2.3851,2.3916,2.3916,2.3757,2.3439,2.3035,2.2683,2.222,2.0095,1.9023,1.8805,1.963,2.0058,2.0193,2.0013,2.0483,2.1161,2.0823,2.1261,2.1869,2.138,2.0853,2.0297,1.9613,0.0,0.0,0.0,0.0,1.8772,1.9309,2.0062,2.0729,2.0867,2.1206,2.1437,2.1225,2.119,2.0616,0.0,1.8747,1.9141,1.9301,0.0,0.0,0.0,0.0,2.386,2.4975,2.6138,2.6914,2.7081,2.6363,2.5379,2.4208,2.3381,2.2363,2.1042,2.0793,2.0473,1.9983,1.9962,1.9968,1.9955,0.0,0.0,0.0,0.0,0.0,0.0,0.0,0.0,0.0,0.0,0.0,0.0,0.0,0.0,0.0,0.0,0.0,0.0,0.0,0.0,0.0,0.0,0.0,0.0,0.0,0.0,0.0,0.0,0.0,1.5605,1.6813,0.0,0.0,0.0,0.0,1.9839,2.0602,2.0703,1.9974,2.0703,2.0788,2.0006,2.069,2.1745,2.317,2.3213,2.3973,2.5434,2.5459,2.5614,2.5862,2.5862,2.5234,2.4152,2.4124,2.3457,2.2313,2.1105,2.0952,2.144,2.0862,2.1042,2.1515,2.0877,2.1485,2.2418,2.1131,2.157,2.2643,2.2613,2.2235,2.1675,2.1007,2.0419,0.0,0.0,1.9895,2.0018,2.0485,2.0667,2.083,2.1344,2.1482,2.1677,2.235,2.2498,2.2168,0.0,2.1208,2.1771,2.253,0.0,2.3383,2.3445,2.4597,2.5719,2.6408,2.7121,2.7782,2.8427,2.732,2.6258,2.5558,2.4298,2.3011,2.1724,2.1042,2.0673,2.0643,2.0654,2.0646,2.0654,1.9624,0.0,0.0,0.0,0.0,0.0,0.0,0.0,0.0,0.0,0.0,0.0,0.0,0.0,0.0,0.0,0.0,0.0,0.0,0.0,0.0,0.0,0.0,0.0,0.0,0.0,0.0,0.0,0.0,1.9142,1.959,0.0,2.0298,2.0084,2.0038,2.0307,1.9954,1.9807,1.9991,2.0754,2.1505,2.2168,2.247,2.3325,2.4789,2.4823,2.5321,2.6302,2.6302,2.6362,2.6445,2.6445,2.6216,2.5794,2.5494,2.5112,2.4675,2.3999,2.292,2.169,2.144,2.1749,2.2303,2.2079,2.2817,2.3853,2.3379,2.3808,2.4418,2.3561,2.2891,2.2315,2.1713,2.1715,2.1891,2.187,2.1774,2.189,2.2789,2.2915,2.2964,2.3502,2.4044,2.4529,2.4797,2.5253,2.5659,2.5753,2.4256,2.2969,2.2917,2.3648,2.438,2.481,2.6019,2.7123,2.7799,2.847,2.88,2.8622,2.7782,2.6794,2.5678,2.4765,2.3524,2.1809,2.1884,2.1605,2.0742,2.1101,2.1342,2.1335,2.0543,2.0208,0.0,0.0,0.0,0.0,0.0,0.0,0.0,0.0,0.0,0.0,0.0,0.0,0.0,0.0,0.0,0.0,0.0,0.0,0.0,0.0,0.0,0.0,0.0,0.0,0.0,0.0,2.0321,2.1411,2.1449,2.1496,2.1832,2.1042,2.0657,2.101,2.0184,2.0039,2.0871,2.1328,2.2131,2.3359,2.34,2.4103,2.5584,2.5601,2.5981,2.67,2.67,2.67,2.6716,2.6962,2.7072,2.7063,2.7028,2.6912,2.6725,2.6449,2.5278,2.3589,2.3407,2.3598,2.3978,2.3978,2.4527,2.5262,2.5262,2.5423,2.5453,2.4556,2.3999,2.3611,2.3268,2.3458,2.3856,2.407,2.402,2.4136,2.5078,2.5211,2.5196,2.5571,2.6087,2.6578,2.6821,2.7284,2.7967,2.8926,2.7039,2.5261,2.5162,2.5785,2.6515,2.7171,2.8021,2.8815,2.9491,2.9774,2.9743,2.9295,2.8455,2.7393,2.6048,2.5528,2.4347,2.2169,2.2658,2.2513,2.1425,2.1994,2.2338,2.2338,2.1535,2.1089,2.1058,0.0,0.0,0.0,0.0,0.0,0.0,0.0,0.0,0.0,0.0,0.0,0.0,0.0,0.0,0.0,0.0,0.0,0.0,0.0,0.0,0.0,0.0,0.0,2.1757,2.2225,2.2338,2.197,2.2082,2.2023,2.1607,2.102,2.1109,2.2143,2.1668,2.1743,2.2689,2.247,2.2658,2.3376,2.3417,2.4137,2.5584,2.5617,2.5998,2.67,2.67,2.6716,2.6767,2.7469,2.7815,2.7874,2.8662,2.871,2.8232,2.8229,2.7938,2.7419,2.6785,2.6528,2.6532,2.6532,2.6577,2.6629,2.6629,2.6183,2.5633,2.5659,2.5663,2.5663,2.5663,2.5689,2.5816,2.6387,2.6538,2.6637,2.7183,2.7328,2.7327,2.7355,2.737,2.759,2.8326,2.8511,2.894,3.0321,2.95,2.8794,2.9501,2.9636,2.9832,3.0417,3.0522,0.0,3.1421,3.0927,3.0537,3.0537,2.943,2.8143,2.6779,2.6644,2.5507,2.2882,2.3276,2.3336,2.2718,2.3276,2.3584,2.3573,2.252,2.1352,2.0086,0.0,0.0,0.0,0.0,0.0,0.0,0.0,0.0,0.0,0.0,0.0,0.0,0.0,0.0,0.0,0.0,0.0,0.0,0.0,0.0,0.0,0.0,2.3272,2.3515,2.2648,2.2594,2.4213,2.4453,2.4676,2.5126,2.4809,2.4681,2.4984,2.4407,2.3919,2.3649,2.33,2.319,2.3393,2.3915,2.4652,2.5584,2.6133,2.6496,2.67,2.67,2.6979,2.7503,2.7705,2.812,2.8679,2.8908,2.892,2.8798,2.8873,2.9095,2.921,2.7736,2.7176,2.7235,2.7235,2.7265,2.733,2.733,2.6884,2.6405,2.6884,2.7048,2.7048,2.7048,2.7393,2.7716,2.7389,2.7267,2.7347,2.7883,2.7987,2.8059,2.8443,2.9029,2.9656,3.0298,3.0924,3.1634,3.2512,3.2363,3.1693,3.0464,3.0253,3.0313,3.0477,3.0912,0.0,3.1481,3.1346,3.1227,3.1227,3.0913,2.9985,2.8203,2.7602,2.618,2.3516,2.3505,2.3336,2.2718,2.3276,2.3399,2.2968,2.351,2.3178,0.0,0.0,0.0,0.0,0.0,0.0,0.0,0.0,0.0,0.0,0.0,0.0,0.0,0.0,0.0,0.0,0.0,0.0,0.0,0.0,0.0,0.0,2.4573,2.4947,2.5608,2.4328,2.3942,2.57,2.5902,2.6085,2.6552,2.6294,2.6017,2.5827,2.5191,2.453,2.3912,2.3844,2.3757,2.3615,2.4655,2.5348,2.5601,2.6336,2.67,2.67,2.67,2.7097,2.7815,2.8154,2.8738,2.9474,2.9779,2.9924,2.9929,3.0018,3.0241,0.0,0.0,0.0,0.0,0.0,2.7573,2.76,2.76,2.7345,2.7123,2.7797,2.8021,2.8066,2.8349,2.871,2.8994,2.8845,2.8803,2.8902,2.949,2.9609,2.973,3.0331,3.0855,3.1393,3.2038,3.2568,3.3125,3.3799,3.3694,0.0,3.2332,3.1943,3.1764,3.1764,3.1854,3.1914,3.1914,3.1675,3.1511,3.1511,3.1241,3.0418,2.8742,2.7991,0.0,0.0,0.0,2.3999,2.392,2.4519,0.0,0.0,0.0,2.4765,2.3545,0.0,0.0,0.0,2.1691,2.233,0.0,0.0,0.0,0.0,0.0,0.0,0.0,0.0,0.0,0.0,0.0,0.0,0.0,0.0,0.0,0.0,2.5877,2.6347,2.7866,2.6917,2.6274,2.6809,2.6791,2.6772,2.6864,2.6595,2.6246,2.5836,2.5205,2.4635,2.4125,0.0,0.0,0.0,0.0,2.5943,2.5681,2.6344,2.67,2.67,2.6784,2.7207,2.7959,2.8764,2.9525,3.0251,3.092,3.12,3.12,3.12,3.12,3.1131,3.0456,2.987,2.9259,2.8039,2.76,2.76,2.769,0.0,0.0,2.8562,2.8816,2.8921,2.9518,2.9698,2.9803,3.0268,3.0447,3.0642,3.1227,3.1496,3.1765,3.2362,3.2557,3.2796,3.3469,3.3604,3.3814,3.4473,3.4143,3.3903,3.4503,3.3994,3.3499,3.3499,3.2991,3.2587,3.2512,3.1974,3.1615,3.1615,0.0,0.0,2.9041,2.8246,2.7003,2.5053,2.4799,2.4978,2.5573,2.6168,2.6494,2.6494,2.6569,2.6031,2.4917,2.4916,2.4937,2.4986,2.4082,2.4297,0.0,0.0,0.0,0.0,0.0,0.0,0.0,0.0,0.0,0.0,0.0,0.0,0.0,0.0,0.0,2.7438,2.8004,2.8644,2.9604,3.0032,2.983,2.8675,2.7965,2.7824,2.8473,2.8482,2.8398,2.8308,2.7882,2.733,2.6633,2.5777,2.5289,2.5269,2.5255,2.5503,2.6072,2.6482,2.67,2.6716,0.0,0.0,2.8798,2.955,3.0294,3.1004,3.114,3.12,3.12,3.12,3.12,3.1085,2.9989,2.9507,2.9259,2.8039,2.76,2.7675,2.8216,2.8412,2.8592,2.9759,3.0133,3.0163,3.0283,3.0328,0.0,2.9877,3.0118,3.0537,3.0672,3.1495,3.2347,3.2467,3.2916,3.3484,3.4158,3.4308,3.4503,3.5175,3.5205,3.516,3.528,3.4292,3.3499,3.3499,3.338,3.311,3.2572,3.2392,3.2318,3.2318,3.2183,3.1794,3.1002,2.9879,2.8603,2.7121,2.6004,2.5468,2.5588,2.5722,2.5794,2.5794,2.6318,2.6479,2.622,2.6174,2.6426,2.6935,2.5674,2.5827,0.0,0.0,0.0,0.0,0.0,0.0,0.0,0.0,0.0,0.0,0.0,2.6099,0.0,0.0,2.8142,2.9187,2.9836,3.0527,3.1466,3.1501,3.1097,3.0301,2.9494,2.9163,2.9561,2.9244,2.8822,2.8424,2.8207,2.776,2.6982,2.6759,2.6411,2.5864,2.6399,2.6629,2.6497,2.683,2.6995,2.7004,2.7547,2.8221,2.9027,2.977,3.0497,3.12,3.12,3.12,3.12,3.12,3.12,3.1099,3.0238,2.99,2.975,2.856,2.8306,2.8648,2.8979,2.9099,2.9264,3.0193,3.0507,3.0553,3.0897,3.1002,3.0942,3.0643,3.0762,3.1076,3.1405,3.1989,3.2662,3.3335,3.3769,3.4188,3.4862,3.5012,3.51,3.5429,3.5504,3.5504,3.5504,3.4951,3.4382,3.4054,3.3994,3.3769,3.3095,3.3006,3.3006,3.3006,3.2691,3.2228,3.157,3.0015,2.853,2.7168,2.6794,2.645,2.6108,2.6422,2.6599,2.6599,2.6929,2.7273,2.759,2.7569,2.8046,2.8999,2.8315,2.8176,0.0,0.0,0.0,0.0,0.0,0.0,0.0,0.0,2.526,2.5906,2.6599,2.726,2.7888,2.8923,3.0004,3.0983,3.1504,3.2141,3.3181,3.24,3.171,3.171,3.0821,3.013,2.9983,2.9372,2.873,2.8081,2.8026,2.775,2.7102,2.753,2.7454,2.6697,2.7645,2.7823,2.7112,2.724,2.7311,2.7303,2.7632,2.8221,2.9027,2.977,3.0497,3.12,3.12,3.12,3.1217,3.1522,3.1529,3.1388,3.112,3.0933,3.0645,2.9281,2.9144,2.9621,2.9728,2.9773,2.9877,3.0478,3.0687,3.0792,3.1331,3.1585,3.169,3.169,3.1795,3.2004,3.2542,3.2781,3.3155,3.4233,3.4592,3.4847,3.5385,3.5504,3.5504,3.5504,3.5504,3.5504,3.5504,3.5504,3.531,3.4772,3.4682,3.4458,3.3769,3.3679,3.3634,3.3499,3.3021,3.2377,3.157,2.994,2.8457,2.7258,2.769,2.775,2.7213,2.7705,2.7929,2.7809,2.7929,2.8186,2.8607,2.8727,2.9385,3.0507,3.0507,3.0256,2.5543,2.5527,2.5441,2.5371,2.5895,2.6435,0.0,0.0,2.8569,2.8665,2.8742,2.9223,3.0597,3.0358,3.0645,3.2742,3.3137,3.3494,3.4384,3.3526,3.2813,3.2813,3.1272,2.9928,2.9207,2.9054,2.8968,2.8877,2.8877,2.8822,2.8748,2.8136,2.8069,2.8666,2.7804,2.7619,2.8218,2.761,2.7311,2.7303,2.7632,2.8221,2.9027,2.977,3.0497,3.12,3.12,3.12,3.1292,3.2601,3.2763,3.2249,3.2962,3.2835,3.2043,3.0175,2.9533,2.9683,3.0208,3.0402,3.0507,3.1167,3.1391,3.1406,3.1481,3.1914,3.2392,3.2392,3.2826,3.329,3.3365,3.3829,3.4308,3.4458,3.4952,3.5415,3.5473,3.5504,3.5504,3.5504,3.5504,3.5504,3.5504,3.5504,3.5458,3.54,3.5385,3.5145,3.4473,3.4383,3.4158,3.3559,3.3425,3.2886,3.1615,3.0747,2.9983,2.9309,2.9324,2.9338,2.9264,2.9338,2.9099,2.8502,2.9069,2.9114,2.8607,2.9204,2.9847,3.0507,3.0507,3.0765,2.4935,0.0,0.0,0.0,2.6852,2.7686,2.8607,2.9349,2.9868,2.9868,3.0256,3.0896,3.1836,3.2122,3.2689,0.0,3.4647,3.4868,3.4936,3.4397,3.3446,3.1943,3.057,2.9714,2.9707,2.9262,2.8999,2.8999,2.9427,2.9488,2.9023,2.9121,2.9139,2.8999,2.8516,2.8409,2.8749,2.8206,2.7841,2.7651,2.7995,2.8194,2.8349,2.9557,3.0734,3.1809,3.1386,3.1681,3.2493,3.2679,3.2571,3.2384,3.3228,3.2859,3.177,3.1036,3.0729,3.0732,3.0987,3.1091,3.1122,3.1406,3.1511,3.1511,3.1511,3.1705,3.1989,3.2392,3.2691,3.3095,3.3874,3.4278,3.4592,3.4997,3.5295,3.5504,3.5504,3.5504,3.5504,3.5504,3.5504,3.5504,3.5504,3.5504,3.5504,3.5504,3.5504,3.54,3.5115,3.507,3.4832,3.4158,3.4084,3.3529,3.2198,3.1824,3.1225,3.0178,3.0118,2.9982,2.9608,2.9234,2.9071,2.9174,2.9071,2.9235,2.9714,2.9983,3.0447,3.1091,3.1091,3.1227,2.5095,0.0,0.0,2.7294,2.8286,2.9358,3.0496,3.1118,3.1445,3.1445,3.1753,3.2215,3.2843,3.3295,3.3911,3.5039,3.5714,3.5988,3.5592,3.4719,3.3346,3.1266,2.9645,2.8974,2.9639,2.9084,2.8767,2.8987,2.9537,2.9708,2.9354,2.9671,2.9708,2.9335,2.9115,2.8999,2.8999,2.8596,2.832,2.8201,2.8336,2.8416,2.8483,2.9794,3.0997,3.1972,3.1437,3.1799,3.278,3.2655,3.2605,3.2699,3.3684,3.3336,3.226,3.2189,3.1883,3.1511,3.1511,3.1511,3.1511,3.1511,3.163,3.1735,3.1555,3.1884,3.2392,3.2691,3.3035,3.3544,3.4517,3.4772,3.4907,3.5385,3.5504,3.5504,3.5504,3.5504,3.5504,3.5504,3.5504,3.5504,3.5504,3.5504,3.5504,3.5504,3.5504,3.5504,3.5504,3.5504,3.531,3.4832,3.4607,3.4113,3.314,3.2871,3.2273,3.1121,3.1046,3.0776,3.0148,2.9669,2.9535,2.9847,2.9549,2.976,3.0507,3.0687,3.1031,3.1511,3.1511,3.1511,0.0,0.0,2.8307,2.9039,3.046,3.1685,3.166,3.2913,3.4087,3.4087,3.3433,3.3122,3.3984,3.3481,3.3497,3.5205,3.6163,3.6662,3.6647,3.4351,3.2313,3.1405,2.8748,2.7372,0.0,2.8079,2.8154,2.8944,2.9018,2.9372,3.0118,2.9445,2.9372,3.013,2.9409,2.8999,2.8999,2.8596,2.86,2.8965,2.8572,2.8982,3.0065,3.0818,3.119,3.1224,3.1207,3.1224,3.1386,3.2797,3.3362,3.3514,3.498,3.5111,3.4414,3.3779,3.2676,3.1511,3.1511,3.1511,3.1511,3.1511,3.1929,3.2347,3.1705,3.2856,3.4278,3.3664,3.4412,3.5429,3.5459,3.5474,3.5458,3.5504,3.5504,3.5504,3.5504,3.5504,3.5504,3.5504,3.5504,3.5504,3.5504,3.5504,3.5504,3.5504,3.5504,3.5504,3.5504,3.5504,3.5489,3.5474,3.4892,3.4473,3.4444,3.3844,3.317,3.2482,3.2437,3.2138,3.1466,3.1421,3.1122,3.0478,3.1091,3.1107,3.0507,3.1152,3.1481,3.1511,3.1511,3.1511,0.0,0.0,3.1302,3.3218,3.3679,3.3938,3.4979,3.5202,3.5015,3.4383,3.3616,3.2932,3.2605,3.2295,3.2468,3.358,3.5427,3.6311,3.5199,3.5189,3.4171,3.1072,2.9717,0.0,0.0,0.0,0.0,2.9196,3.0082,3.0485,3.021,3.0956,3.1268,3.1005,3.0222,2.98,2.98,2.9137,2.8861,2.8993,2.885,2.9255,3.0115,3.0352,3.1004,3.1904,3.142,3.1765,3.2662,3.2672,3.2949,3.3446,3.3954,3.403,3.3848,3.3622,3.2981,3.2162,3.1668,3.1511,3.157,3.2019,3.2318,3.2542,3.2751,3.3305,3.3889,3.4099,3.4488,3.4952,3.5385,3.5504,3.5504,3.5504,3.5504,3.5504,3.5504,3.5504,3.5504,3.5504,3.5504,3.5504,3.5504,3.5504,3.5504,3.5504,3.5504,3.5504,3.5504,3.5504,3.5504,3.5504,3.5295,3.4981,3.4548,3.3889,3.3215,3.2542,3.2079,3.1735,3.1511,3.1062,3.0942,3.1152,3.0957,3.0942,3.1152,3.1391,3.1511,3.1511,3.1511,3.1511,0.0,3.3318,3.4862,3.6401,3.6606,3.6515,3.692,3.6098,3.5003,3.4098,3.2742,3.1545,3.0928,3.0802,3.1077,3.1878,3.3638,3.4757,3.426,3.4603,3.4138,3.2003,3.0944,3.0494,0.0,0.0,0.0,2.9667,3.0746,3.117,3.065,3.1604,3.2063,3.1843,3.1054,3.0632,3.0632,3.0118,2.9924,3.0067,2.9877,3.011,3.0702,3.0556,3.1149,3.2259,3.1522,3.1894,3.2966,3.2496,3.274,3.344,3.3694,3.3979,3.4225,3.3987,3.3499,3.2855,3.2132,3.171,3.157,3.1989,3.2467,3.2901,3.308,3.3634,3.4247,3.4443,3.4667,3.4967,3.5385,3.5504,3.5504,3.5504,3.5504,3.5504,3.5504,3.5504,3.5504,3.5504,3.5504,3.5504,3.5504,3.5504,3.5504,3.5504,3.5504,3.5504,3.5504,3.5504,3.5504,3.5504,3.5504,3.5325,3.4892,3.4457,3.3829,3.2916,3.2677,3.2258,3.1525,3.1316,3.1301,3.1511,3.1091,3.1076,3.1511,3.1511,3.1511,3.1511,3.1511,3.1511,3.4531,3.6875,3.8769,3.8632,3.915,3.9237,3.7362,3.564,3.417,3.3205,3.0997,2.9217,0.0,0.0,2.9417,3.0262,3.1237,3.2449,3.4048,3.3006,3.2622,0.0,0.0,0.0,0.0,0.0,0.0,3.0533,0.0,3.1482,3.1519,3.1556,3.1935,3.2693,3.1935,3.1501,3.1464,3.1451,3.1613,3.2,3.1486,3.1447,3.1841,3.144,3.1657,3.2327,3.1572,3.1674,3.2344,3.2327,3.2757,3.3514,3.4184,3.4928,3.5515,3.4844,3.419,3.3556,3.2922,3.2174,3.1511,3.154,3.2437,3.338,3.2781,3.3963,3.537,3.4727,3.5012,3.5504,3.5504,3.5504,3.5504,3.5504,3.5504,3.5504,3.5504,3.5504,3.5504,3.5504,3.5504,3.5504,3.5504,3.5504,3.5504,3.5504,3.5504,3.5504,3.5504,3.5504,3.5504,3.5504,3.5504,3.5504,3.5504,3.5474,3.4906,3.3619,3.4113,3.359,3.163,3.2168,3.2168,3.1511,3.1511,3.1511,3.1511,3.1511,3.1511,3.1511,3.1511,3.1511,3.8691,4.0469,4.1426,4.1385,4.0603,3.9216,3.6809,3.4913,3.3052,3.0895,2.9407,2.8261,0.0,0.0,0.0,3.0243,3.276,0.0,3.5119,3.643,0.0,0.0,0.0,3.5289,3.5425,3.5015,0.0,0.0,3.3,3.2559,3.3164,3.3763,3.4179,3.4374,3.3617,3.2908,3.2295,3.1994,3.1891,3.2,3.1759,3.1999,3.2681,3.2234,3.2418,3.3085,3.2334,3.2435,3.3068,3.253,3.3072,3.4184,3.3829,3.4461,3.5521,3.4796,3.4452,3.4321,3.4149,3.2942,3.1585,3.2079,3.2811,3.3559,3.3889,3.4712,3.5474,3.5295,3.537,3.5504,3.5504,3.5504,3.5504,3.5504,3.5504,3.5504,3.5504,3.5504,3.5504,3.5504,3.5504,3.5504,3.5504,3.5504,3.5504,3.5504,3.5504,3.5504,3.5504,3.5504,3.5504,3.5504,3.5504,3.5504,3.5504,3.504,3.4607,3.4263,3.3934,3.3305,3.2288,3.2407,3.2168,3.1511,3.1511,3.1511,3.1511,3.1511,3.1511,3.1511,3.1511,3.1511,4.164,4.3183,4.4023,4.3633,4.2266,4.0215,3.7246,3.4648,3.2129,2.9505,2.798,0.0,0.0,0.0,0.0,0.0,0.0,0.0,3.4718,3.6796,3.8046,0.0,3.7997,0.0,3.7983,3.7257,3.6574,0.0,3.4921,3.4241,3.4314,3.5121,3.5573,3.5573,3.4754,3.4105,3.3665,3.2904,3.2984,3.3869,3.2825,3.2837,3.3761,3.3094,3.3197,3.3846,0.0,3.3203,3.3829,3.3095,3.3467,3.4466,3.4032,3.4579,3.5549,3.5148,3.4816,3.4649,3.4967,3.3899,3.2436,3.2815,3.3185,3.3634,3.4293,3.4982,3.5504,3.5504,3.5504,3.5504,3.5504,3.5504,3.5504,3.5504,3.5504,3.5504,3.5504,3.5504,3.5594,3.5878,3.6148,3.6252,3.5983,3.5938,3.5833,3.5533,3.5504,3.5504,3.5504,3.5504,3.5504,3.5504,3.5504,3.5504,3.5504,3.516,3.4817,3.4518,3.4412,3.3948,3.2976,3.3215,3.2916,3.1959,3.2228,3.2093,3.1511,3.1795,3.1795,3.1511,3.1795,3.178,4.3789,4.5156,4.6055,4.5078,4.3359,4.0996,3.7558,3.4121,3.0976,2.8457,0.0,0.0,2.5542,0.0,2.6372,2.7976,0.0,3.0935,3.4241,3.6142,3.8065,4.0396,4.0572,4.0482,4.0425,3.9232,3.8107,3.7247,3.6932,3.6358,3.5371,3.6046,3.6457,3.6457,3.55,3.5052,3.5169,3.4131,3.4528,3.6277,3.4215,3.3832,3.4916,3.3968,3.3947,3.459,3.388,3.3964,3.459,3.3846,3.3981,3.4652,3.4652,3.5047,3.56,3.56,3.5297,3.4979,3.5612,3.4933,3.3785,3.3686,3.3647,3.3739,3.4323,3.4982,3.5504,3.5504,3.5504,3.5504,3.5504,3.5504,3.5504,3.5504,3.5504,3.5534,3.5609,3.5699,3.5923,3.6507,3.7045,3.721,3.6613,3.6508,3.6267,3.5609,3.5504,3.5504,3.5504,3.5504,3.5504,3.5504,3.5504,3.5504,3.5504,3.5504,3.525,3.4667,3.5175,3.4936,3.3679,3.4188,3.3919,3.2662,3.32,3.2931,3.1765,3.2347,3.2288,3.1645,3.2318,3.2228,4.543,4.6074,4.5918,4.4316,4.1562,3.8339,3.4796,3.1383,0.0,0.0,0.0,2.5682,2.56,2.6701,0.0,2.9792,0.0,0.0,0.0,0.0,4.0262,0.0,0.0,0.0,0.0,0.0,0.0,0.0,0.0,3.8623,3.7155,3.721,3.729,3.729,3.58,3.5353,3.6064,3.586,3.5933,3.6296,3.5064,3.4924,3.5674,3.4741,3.4709,3.5374,3.4624,0.0,3.5357,3.4607,3.4731,3.5408,3.5408,3.5481,3.56,3.56,3.5943,3.643,3.6565,3.6041,3.5231,3.4674,3.4408,3.4338,3.4458,3.4982,3.5504,3.5504,3.5504,3.5504,3.5504,3.5504,3.5504,3.5504,3.5504,3.5654,3.6207,3.6716,3.7088,3.7225,3.7345,3.721,3.6613,3.6508,3.6267,3.5609,3.5504,3.5504,3.5504,3.5504,3.5504,3.5504,3.5504,3.5504,3.5504,3.5504,3.5459,3.5325,3.5444,3.5145,3.4353,3.4444,3.4128,3.3335,3.344,3.338,3.3155,3.3275,3.2976,3.2347,3.3021,3.2662,4.5957,4.6308,4.5996,4.4707,4.1444,3.7748,3.4672,0.0,0.0,0.0,0.0,2.5817,2.6162,0.0,0.0,0.0,0.0,0.0,0.0,0.0,0.0,0.0,0.0,0.0,0.0,0.0,0.0,0.0,0.0,3.9827,3.8219,3.8127,3.7925,3.7511,3.6714,3.6505,3.6916,3.6512,3.6725,3.7525,3.6073,3.58,3.6533,3.553,3.5273,3.56,3.5667,3.5656,3.5633,3.6084,3.6,3.5633,3.6062,3.5977,3.565,3.6067,3.6462,3.6914,3.768,3.7195,3.6234,3.6289,3.549,3.4563,3.4922,3.5235,3.5504,3.5504,3.5504,3.5504,3.5504,3.5504,3.5504,3.5504,3.5774,3.6193,3.6821,3.7464,3.7823,3.7479,3.7689,3.7614,3.6673,3.6508,3.6267,3.5609,3.5504,3.5504,3.5504,3.5504,3.5504,3.5504,3.5504,3.5504,3.5504,3.5504,3.5504,3.5504,3.5504,3.5355,3.5026,3.5011,3.4712,3.4039,3.4352,3.4203,3.3499,3.3859,3.3679,3.3036,3.3724,3.3484,4.5781,4.6132,4.5955,4.4725,4.1122,3.7213,3.4608,3.0692,0.0,0.0,0.0,0.0,2.6668,0.0,0.0,0.0,0.0,0.0,0.0,0.0,0.0,0.0,0.0,0.0,0.0,0.0,0.0,0.0,0.0,0.0,3.9019,3.8634,3.823,3.7768,3.7584,3.7584,3.776,3.7136,3.7441,3.8673,3.7091,3.6636,3.7171,3.6362,3.5943,3.5898,3.6688,3.6598,3.5966,3.7335,3.7082,3.5932,3.6733,3.6654,3.6169,3.6801,3.7151,3.7444,3.8594,3.8087,3.7027,3.7615,3.6395,3.4817,3.534,3.5504,3.5504,3.5504,3.5504,3.5504,3.5504,3.5504,3.5504,3.5504,3.6013,3.6673,3.727,3.7928,3.8305,3.7896,3.8257,3.8242,3.7107,3.6913,3.6643,3.5833,3.5714,3.5669,3.5519,3.5504,3.5504,3.5504,3.5504,3.5504,3.5504,3.5504,3.5504,3.5504,3.5504,3.5504,3.5504,3.5504,3.525,3.4712,3.5235,3.4981,3.3933,3.4458,3.4368,3.3739,3.4398,3.4278,4.4862,4.5616,4.5532,4.3157,3.9236,3.5261,3.265,0.0,0.0,0.0,0.0,2.5932,2.6668,2.7455,0.0,0.0,0.0,0.0,0.0,0.0,0.0,0.0,0.0,0.0,0.0,0.0,0.0,0.0,0.0,0.0,3.9798,3.841,3.7907,3.8579,3.787,3.7852,3.8579,3.8524,3.8553,3.8699,3.8026,3.7542,3.7208,3.7297,3.7093,3.6733,3.7483,3.7381,0.0,3.7567,3.7415,3.675,3.7499,3.7741,3.7691,3.777,3.8227,3.8814,3.8949,3.8434,3.7711,3.7775,3.6722,3.5429,3.5489,3.5504,3.5504,3.5504,3.5504,3.5504,3.5504,3.5504,3.5504,3.5504,3.6013,3.6673,3.727,3.7928,3.8556,3.9107,3.9272,3.9095,3.8365,3.823,3.7808,3.6598,3.6419,3.6194,3.5579,3.5504,3.5504,3.5504,3.5504,3.5504,3.5504,3.5504,3.5504,3.5504,3.5504,3.5504,3.5504,3.5504,3.5474,3.5415,3.5474,3.5444,3.5325,3.5385,3.5055,3.4413,3.51,3.4726,4.3547,4.4681,4.4856,4.271,3.8518,3.4375,3.2279,0.0,0.0,0.0,2.5605,2.6088,2.7345,2.7861,2.86,0.0,0.0,0.0,0.0,0.0,0.0,0.0,0.0,0.0,0.0,0.0,0.0,0.0,0.0,0.0,4.0645,3.9093,3.8377,3.8681,3.8395,3.8377,3.8699,3.8699,3.8699,3.8699,3.8158,3.7658,3.7208,3.7408,3.7241,3.688,3.8053,3.8142,0.0,3.8261,3.8125,3.7483,3.7787,3.7893,3.7944,3.8396,3.8751,3.9068,3.9508,3.8844,3.7807,3.7807,3.6769,3.5504,3.5504,3.5504,3.5504,3.5504,3.5504,3.5504,3.5504,3.5504,3.5609,3.5998,3.6314,3.6673,3.727,3.7928,3.8362,3.821,3.8527,3.8747,3.862,3.8566,3.8415,3.7911,3.7482,3.6952,3.62,3.5744,3.5504,3.5504,3.5504,3.5504,3.5504,3.5504,3.5504,3.5504,3.5504,3.5504,3.5504,3.5504,3.5504,3.5504,3.5504,3.5504,3.5504,3.5504,3.537,3.51,3.5385,3.522,4.1003,4.2427,4.2816,4.0708,3.686,3.3093,0.0,0.0,0.0,2.5533,2.5629,2.6185,2.7809,2.8093,2.8697,0.0,0.0,0.0,0.0,0.0,0.0,0.0,0.0,0.0,0.0,0.0,0.0,0.0,0.0,0.0,4.114,3.98,3.8946,3.8707,3.8699,3.8699,3.8699,3.8699,3.8699,3.8699,3.8553,3.815,3.7543,3.8131,3.806,3.7511,3.878,3.8916,0.0,3.9017,3.8886,3.8261,3.8464,3.8548,3.8616,3.9136,3.9339,3.9406,3.9926,3.9239,3.8092,3.7863,3.6905,3.5782,3.5569,3.5504,3.5504,3.5504,3.5504,3.5504,3.5504,3.5654,3.5863,3.6133,3.6492,3.695,3.7641,3.8311,3.8707,3.8434,3.8767,3.8994,3.8665,3.8994,3.9158,3.8771,3.8512,3.806,3.7316,3.6608,3.6085,3.5847,3.583,3.5734,3.5521,3.5504,3.5504,3.5504,3.5504,3.5504,3.5504,3.5504,3.5504,3.5504,3.5504,3.5504,3.5504,3.5504,3.5504,3.5504,3.5504,3.5504,3.6913,3.8376,3.9002,3.6336,3.3688,3.108,0.0,0.0,0.0,2.5594,2.5659,2.6185,2.7809,2.8093,2.889,3.1294,3.1695,0.0,0.0,0.0,0.0,0.0,0.0,0.0,0.0,0.0,0.0,0.0,0.0,0.0,4.114,4.0322,3.9523,3.8718,3.8699,3.8699,3.8699,3.8699,3.8699,3.8707,3.9496,3.9312,3.8335,3.9863,3.9984,3.9017,3.9762,3.966,0.0,3.9779,3.9643,3.9068,3.9779,4.0079,4.0079,4.0096,4.0096,4.0096,4.0096,3.9571,3.8772,3.8035,3.7248,3.6461,3.5733,3.5504,3.5504,3.5504,3.5504,3.5504,3.5504,3.5983,3.6312,3.5669,3.646,3.7645,3.8498,3.9204,3.9886,4.0535,4.0675,4.0184,3.8675,3.9661,4.0227,3.8911,3.9376,3.9629,3.897,3.8238,3.7471,3.6661,3.66,3.629,3.5554,3.5504,3.5504,3.5504,3.5504,3.5504,3.5504,3.5504,3.5504,3.5504,3.5504,3.5504,3.5504,3.5504,3.5504,3.5504,3.5504,3.5504,3.3934,3.5189,3.5746,3.4204,3.1889,2.9639,2.8305,0.0,0.0,2.5599,2.5659,2.6185,2.7809,2.8093,2.889,3.1314,3.216,0.0,0.0,0.0,0.0,0.0,0.0,0.0,0.0,0.0,0.0,0.0,0.0,0.0,4.1177,4.0865,4.0094,3.8736,3.8699,3.8699,3.8699,3.8699,3.8699,3.8707,3.9523,3.9534,3.8896,4.0428,4.0562,3.9594,4.0334,4.0317,3.9728,3.9457,3.9508,3.9711,3.9457,3.966,4.0096,4.0096,4.0096,4.0096,4.0096,3.9571,3.8867,3.8635,3.7672,3.6554,3.6322,3.591,3.5504,3.5504,3.5504,3.5609,3.6058,3.5998,3.5983,3.6641,3.6791,3.6965,3.7657,3.8806,3.9763,3.998,4.0867,4.1611,4.1741,4.1736,4.1584,4.1161,4.0492,3.9543,3.8182,3.7402,3.6692,3.5942,3.5847,3.575,3.5521,3.5504,3.5504,3.5504,3.5504,3.5504,3.5504,3.5504,3.5504,3.5504,3.5504,3.5504,3.5504,3.5504,3.5504,3.5504,3.5504,3.5504,0.0,3.1856,3.2373,3.1366,2.9687,0.0,0.0,0.0,0.0,2.5634,2.5644,2.6157,2.7805,2.8071,2.8851,3.1308,3.2372,0.0,0.0,0.0,0.0,0.0,0.0,0.0,0.0,0.0,0.0,0.0,0.0,0.0,4.1195,4.1095,4.0369,3.8755,3.8699,3.8699,3.8699,3.8699,3.8854,3.9166,3.9974,4.0221,3.9996,4.1078,4.106,4.0233,4.0484,4.0417,0.0,3.9592,3.969,4.0049,3.9592,3.9694,4.0096,4.0096,4.0096,4.0096,4.0096,3.9769,3.9302,3.8989,3.7858,3.6615,3.6615,3.6086,3.5504,3.5504,3.5701,3.6017,3.6427,3.6851,3.7291,3.7844,3.7829,3.7895,3.8609,3.9258,3.9778,4.0042,4.1112,4.1997,4.1962,4.2308,4.2433,4.1904,4.1316,4.045,3.9142,3.8351,3.7512,3.6477,3.6631,3.643,3.557,3.5504,3.5504,3.5504,3.5504,3.5504,3.5504,3.5504,3.5504,3.5504,3.5504,3.5504,3.5504,3.5504,3.5504,3.5504,3.5504,3.5504,0.0,0.0,0.0,0.0,0.0,0.0,0.0,0.0,0.0,0.0,2.5657,2.6133,2.7875,2.8126,2.8914,3.1469,3.2564,0.0,0.0,0.0,0.0,0.0,0.0,0.0,0.0,0.0,0.0,0.0,0.0,0.0,4.126,4.1132,4.0388,3.8828,3.8718,3.8718,3.8773,3.8799,3.9184,4.0,4.0791,4.128,4.1467,4.1739,4.1534,0.0,4.0392,4.0133,0.0,4.0096,4.0096,4.0096,4.0096,4.0096,4.0096,4.0096,4.0096,4.0096,4.0096,4.0096,3.9982,3.9153,3.793,3.6752,3.6691,3.6133,3.5504,3.5554,3.607,3.6615,3.6723,3.8257,3.9628,3.9082,3.9361,3.9951,4.0816,4.045,4.0147,4.0754,4.1593,4.1742,4.03,4.1815,4.2785,4.1489,4.1764,4.1884,4.1139,4.0429,3.9454,3.7966,3.8358,3.7874,3.5765,3.557,3.5554,3.5504,3.5504,3.5504,3.5504,3.5504,3.5504,3.5504,3.5504,3.5504,3.5504,3.5504,3.5504,3.5504,3.5504,3.5504,0.0,0.0,0.0,0.0,0.0,0.0,0.0,0.0,0.0,0.0,0.0,2.6307,2.8608,2.8954,2.9955,3.3108,3.4334,0.0,0.0,0.0,0.0,0.0,0.0,0.0,0.0,0.0,0.0,0.0,0.0,4.3065,4.2066,4.1434,4.0645,3.9643,3.9019,3.9001,3.9614,3.9625,4.0029,4.0828,4.1635,4.2044,4.2107,4.238,4.2162,4.1556,4.0967,4.0485,4.0096,4.0096,4.0096,4.0096,4.0096,4.0096,4.0096,4.0096,4.0096,4.0096,4.0096,4.0096,3.9982,3.9153,3.8646,3.8258,3.7688,3.6569,3.5619,3.6181,3.6477,3.6861,3.7986,3.8299,3.8511,3.9377,3.9717,4.0053,4.0767,4.1734,4.2497,4.2676,4.338,4.3864,4.3506,4.2933,4.2418,4.2078,4.1231,4.033,3.9528,3.9295,3.8829,3.7892,3.7395,3.6918,3.6384,3.6353,3.6102,3.5537,3.5504,3.5504,3.5504,3.5504,3.5504,3.5504,3.5504,3.5504,3.5504,3.5504,3.5504,3.5504,3.5504,3.5504,2.5657,2.5657,2.5636,2.5605,2.5611,0.0,0.0,0.0,0.0,0.0,0.0,0.0,2.8912,0.0,0.0,0.0,0.0,0.0,0.0,0.0,0.0,0.0,0.0,0.0,0.0,0.0,0.0,0.0,0.0,4.3157,4.2341,4.1892,4.1111,3.9945,3.9478,3.9276,3.935,3.9724,4.0304,4.1122,4.1919,4.2488,4.2847,4.274,4.2362,4.1778,4.1167,4.0601,4.0096,4.0096,4.0096,4.0096,4.0096,4.0096,4.0096,4.0096,4.0096,4.0096,4.0096,4.0096,4.0033,3.9597,3.9193,3.8827,3.8428,3.7485,3.6646,3.704,3.7395,3.7839,3.8644,3.9107,3.9536,4.0268,4.0203,4.0277,4.1287,4.1607,4.1927,4.2578,4.313,4.3605,4.3939,4.3065,4.23,4.23,4.1335,4.0332,3.9553,3.945,3.9156,3.8402,3.7917,3.7364,3.6661,3.6615,3.629,3.5553,3.5504,3.5504,3.5504,3.5504,3.5504,3.5504,3.5504,3.5504,3.5504,3.5504,3.5504,3.5504,3.5504,3.5504,2.5703,2.5703,2.5683,2.5633,2.566,2.5722,0.0,0.0,0.0,0.0,0.0,0.0,0.0,0.0,0.0,0.0,0.0,0.0,0.0,0.0,0.0,0.0,0.0,0.0,0.0,0.0,0.0,0.0,0.0,4.3194,4.2525,4.2249,4.1497,4.0128,3.9963,3.9578,3.8891,3.968,4.0543,4.147,4.2158,4.2837,4.347,4.2939,4.2362,4.1778,0.0,0.0,4.0096,4.0096,4.0096,4.0096,4.0096,4.0096,4.0096,4.0096,4.0096,4.0096,4.0096,4.0096,4.0096,4.0096,3.9636,3.9086,3.9086,3.8652,3.8149,3.8149,3.8511,3.8921,3.9059,4.0137,4.1204,4.1204,4.0886,4.0912,4.1981,4.1274,4.0747,4.1846,4.2234,4.2593,4.3206,4.2755,4.23,4.23,4.1576,4.0798,4.018,4.0096,3.9833,3.9153,3.8867,3.8201,3.6889,3.6569,3.6165,3.5537,3.5504,3.5504,3.5504,3.5504,3.5504,3.5504,3.5504,3.5504,3.5504,3.5504,3.5504,3.5504,3.5504,3.5504,2.5703,2.5703,2.5703,2.5683,2.5683,2.5898,0.0,0.0,0.0,0.0,0.0,0.0,0.0,0.0,0.0,0.0,0.0,0.0,0.0,0.0,0.0,0.0,0.0,0.0,0.0,0.0,0.0,0.0,0.0,4.3451,4.3322,4.2021,4.1177,4.092,4.0267,3.9835,3.9724,4.0498,4.1654,4.3139,4.3267,4.3378,4.347,4.2939,4.2362,4.1778,0.0,4.0601,4.0096,4.0096,4.0096,4.0096,4.0096,4.0096,4.0096,4.0096,4.0096,4.0096,4.0096,4.0096,4.0096,4.0096,4.002,3.9914,3.9914,3.985,3.9744,3.9744,3.9345,3.9059,3.9744,4.0552,4.1204,4.1204,4.2058,4.2783,4.2378,4.2586,4.2738,4.2335,4.2771,4.3244,4.3362,4.278,4.23,4.23,4.1132,4.0231,4.0113,4.0096,4.0045,3.9927,3.875,3.7863,3.7632,3.643,3.5619,3.5504,3.5504,3.5504,3.5504,3.5504,3.5504,3.5504,3.5504,3.5504,3.5504,3.5504,3.5504,3.5504,3.5504,3.5504,2.5703,2.5703,2.5683,2.5659,2.5657,0.0,0.0,0.0,0.0,0.0,0.0,0.0,0.0,0.0,0.0,0.0,0.0,0.0,0.0,0.0,0.0,0.0,0.0,0.0,0.0,0.0,0.0,0.0,0.0,0.0,4.3506,4.2396,4.1544,4.1122,4.0322,4.0102,4.0534,4.092,4.169,4.2855,4.3286,4.3506,4.347,4.2939,4.2362,4.1778,0.0,4.0601,4.0096,4.0096,4.0096,4.0096,4.0096,4.0096,4.0096,4.0096,4.0096,4.0096,4.0096,4.0096,4.0096,4.0096,4.0096,4.0096,4.0096,4.0096,4.0096,4.0096,3.9821,3.9636,4.0007,4.0658,4.1204,4.1204,4.1715,4.2222,4.23,4.2252,4.2222,4.23,4.2574,4.2929,4.3338,4.2459,4.183,4.2249,4.1031,4.0096,4.0096,4.0096,4.0096,4.0096,3.9076,3.8232,3.782,3.6753,3.5911,3.5537,3.5504,3.5504,3.5504,3.5504,3.5504,3.5504,3.5504,3.5504,3.5504,3.5504,3.5504,3.5504,3.5504,3.5504,2.5703,2.5683,2.566,0.0,0.0,0.0,0.0,0.0,0.0,0.0,0.0,0.0,0.0,0.0,0.0,0.0,0.0,0.0,0.0,0.0,0.0,0.0,0.0,0.0,0.0,0.0,0.0,0.0,0.0,0.0,4.3231,4.2635,4.1846,4.0846,4.0396,4.0487,4.1095,4.1287,4.1782,4.2598,4.3212,4.3506,4.3497,4.3069,4.2568,4.1969,4.138,4.0809,4.0274,4.0159,4.0096,4.0096,4.0096,4.0096,4.0096,4.0096,4.0096,4.0096,4.0096,4.0096,4.0096,4.0096,4.0096,4.0096,4.0096,4.0096,4.0146,4.0303,4.0354,4.0354,4.0354,4.1018,4.1728,4.1728,4.1863,4.21,4.2472,4.2117,4.1783,4.1999,4.232,4.2675,4.3068,4.2341,4.1914,4.2472,4.1301,4.0354,4.0354,4.0214,4.0096,4.0096,3.9368,3.8539,3.7602,3.6814,3.6102,3.5537,3.5504,3.5504,3.5504,3.5504,3.5504,3.5504,3.5504,3.5504,3.5504,3.5504,3.5579,3.5729,3.5729,3.5804,2.5703,2.5659,2.5597,2.5512,0.0,0.0,0.0,0.0,0.0,0.0,0.0,0.0,0.0,0.0,0.0,0.0,0.0,0.0,0.0,0.0,0.0,0.0,0.0,0.0,0.0,0.0,0.0,0.0,0.0,0.0,4.2433,4.2323,4.1589,4.0037,4.0645,4.104,4.1095,4.1837,4.2616,4.3414,4.3469,4.3506,4.3506,4.3453,4.316,4.2606,4.2007,4.1402,4.0803,4.0311,4.0096,4.0096,4.0096,4.0096,4.0096,4.0096,4.0096,4.0096,4.0096,4.0096,4.0096,4.0096,4.0096,4.0096,4.0096,4.0096,4.0235,4.0933,4.1119,4.1119,4.1119,4.2172,4.3254,4.3254,4.3809,4.4178,4.3474,4.3288,4.2848,4.1542,4.2374,4.3118,4.2489,4.2861,4.3271,4.3321,4.207,4.1119,4.1119,4.0523,4.0096,4.0096,3.9368,3.8298,3.6813,3.6006,3.5554,3.5504,3.5504,3.5504,3.5504,3.5504,3.5504,3.5504,3.5504,3.5504,3.5504,3.5504,3.5818,3.6434,3.6434,3.6731,2.5703,2.6048,2.6388,0.0,0.0,0.0,0.0,0.0,0.0,0.0,0.0,0.0,0.0,0.0,0.0,0.0,0.0,0.0,0.0,0.0,0.0,0.0,0.0,0.0,0.0,0.0,0.0,0.0,0.0,0.0,4.2323,4.1819,4.1268,4.0663,4.0938,4.1095,4.1095,4.1892,4.269,4.3506,4.3506,4.3506,4.3497,4.3142,4.2892,4.2645,4.1664,4.111,4.0856,4.0323,4.0096,4.0096,4.0096,4.0096,4.0096,4.0096,4.0096,4.0096,4.0096,4.0096,4.0096,4.0096,4.0096,4.0197,4.0629,4.0781,4.0946,4.1677,4.2219,4.2459,4.1999,4.2642,4.3406,4.3406,4.3626,4.3761,4.3474,4.3034,4.2557,4.1982,4.2696,4.3304,4.3034,4.322,4.3406,4.3406,4.254,4.188,4.188,4.1238,4.0781,4.0781,3.9616,3.843,3.7429,3.6594,3.6118,3.6118,3.5729,3.5504,3.5504,3.5504,3.5504,3.5504,3.5504,3.5714,3.6118,3.6118,3.6447,3.706,3.706,3.718,2.5604,2.6055,2.6516,0.0,0.0,0.0,0.0,0.0,0.0,0.0,0.0,0.0,0.0,0.0,0.0,0.0,0.0,0.0,0.0,0.0,0.0,0.0,0.0,0.0,0.0,0.0,0.0,0.0,0.0,0.0,0.0,4.125,4.0865,4.0369,4.0846,4.1095,4.1095,4.1892,4.269,4.3506,4.3506,4.3506,4.3497,4.3133,4.2864,4.2645,4.1621,4.1076,4.0856,4.0323,4.0096,4.0096,4.0096,4.0096,4.0096,4.0096,4.0096,4.0096,4.0096,4.0096,4.0096,4.0096,4.0096,4.0235,4.0984,4.1204,4.1407,4.2371,4.3,4.3338,4.3095,4.3403,4.3792,4.3792,4.3792,4.3792,4.3792,4.3386,4.2959,4.2692,4.3267,4.3693,4.344,4.3609,4.3693,4.344,4.2966,4.2557,4.2333,4.166,4.1204,4.1204,3.9972,3.896,3.851,3.7429,3.6776,3.6776,3.6357,3.6086,3.6086,3.6086,3.6086,3.6086,3.6086,3.6327,3.6776,3.6776,3.7105,3.7719,3.7719,3.7838,2.5394,2.5563,0.0,0.0,0.0,0.0,0.0,0.0,0.0,0.0,0.0,0.0,0.0,0.0,0.0,0.0,0.0,0.0,0.0,0.0,0.0,0.0,0.0,0.0,0.0,0.0,0.0,0.0,0.0,0.0,0.0,4.0671,4.0369,3.8755,4.0259,4.1095,4.1095,4.1892,4.269,4.3506,4.3506,4.3506,4.3506,4.3506,4.3214,4.2664,4.2052,4.1468,4.0885,4.0336,4.0096,4.0096,4.0096,4.0096,4.0096,4.0096,4.0096,4.0096,4.0096,4.0096,4.0096,4.0096,4.0096,4.0235,4.0984,4.1208,4.1512,4.3,4.3406,4.3592,4.4381,4.4584,4.4615,4.4615,4.4615,4.4615,4.4615,4.4615,4.4364,4.3575,4.4045,4.4347,4.3541,4.4062,4.433,4.3524,4.3423,4.3135,4.2401,4.166,4.1221,4.1204,4.0426,3.9901,3.9901,3.8383,3.7402,3.7402,3.7402,3.7402,3.7387,3.7387,3.7387,3.7387,3.7387,3.7387,3.7402,3.7402,3.7749,3.8424,3.8424,3.8766,2.6308,0.0,0.0,0.0,0.0,0.0,0.0,0.0,0.0,0.0,0.0,0.0,0.0,0.0,0.0,0.0,0.0,0.0,0.0,0.0,0.0,0.0,0.0,0.0,0.0,0.0,0.0,0.0,0.0,0.0,0.0,4.0128,4.0047,3.9551,4.0553,4.1095,4.1095,4.1892,4.269,4.3506,4.3506,4.3506,4.3506,4.3506,4.341,4.3214,4.2226,4.1937,4.209,4.1082,4.0436,4.0096,4.0096,4.0096,4.0096,4.0096,4.0096,4.0096,4.0096,4.0096,4.0096,4.0096,4.0096,4.0333,4.1589,4.1965,4.2168,4.3135,4.3809,4.4178,4.3842,4.4195,4.4615,4.4615,4.4615,4.4615,4.4615,4.4615,4.453,4.4296,4.4432,4.4516,4.4296,4.4432,4.4516,4.4279,4.4245,4.3772,4.2469,4.21,4.1779,4.1271,4.0369,3.9856,3.9901,3.8797,3.8093,3.8093,3.8093,3.7883,3.7417,3.7387,3.7387,3.7387,3.7387,3.7644,3.8093,3.8093,3.8452,3.9092,3.9092,3.9212,2.5702,0.0,0.0,0.0,0.0,0.0,0.0,0.0,0.0,0.0,0.0,0.0,0.0,0.0,0.0,0.0,0.0,0.0,0.0,0.0,0.0,0.0,0.0,0.0,0.0,0.0,0.0,0.0,0.0,0.0,0.0,3.9423,3.9423,3.9423,4.0194,4.0608,4.0608,4.1735,4.2543,4.3029,4.3341,4.3506,4.3506,4.3506,4.3383,4.3114,4.1951,4.1643,4.1906,4.0967,4.0392,4.0096,4.0096,4.0096,4.0096,4.0096,4.0096,4.0096,4.0096,4.0096,4.0096,4.0096,4.0096,4.0383,4.186,4.23,4.252,4.3572,4.4228,4.4415,4.3609,4.3995,4.4615,4.4615,4.4615,4.4615,4.4615,4.4615,4.4615,4.4615,4.4615,4.4499,4.4195,4.4381,4.4279,4.3382,4.3501,4.3467,4.2811,4.3027,4.2926,4.2155,4.1236,4.0687,4.0733,3.9534,3.8796,3.8796,3.8796,3.8616,3.821,3.8195,3.8195,3.8195,3.8195,3.8392,3.8796,3.8796,3.9005,3.9406,3.9406,3.9406,0.0,0.0,0.0,0.0,0.0,0.0,0.0,0.0,0.0,0.0,0.0,0.0,0.0,0.0,0.0,0.0,0.0,0.0,0.0,0.0,0.0,0.0,0.0,0.0,0.0,0.0,0.0,0.0,0.0,0.0,3.8744,3.8699,3.8699,3.8699,3.9405,3.9835,3.9908,4.1423,4.2231,4.2304,4.3121,4.3506,4.3506,4.3506,4.3205,4.2635,4.1599,4.1053,4.0885,4.0441,4.0179,4.0096,4.0096,4.0096,4.0096,4.0096,4.0096,4.0096,4.0096,4.0096,4.0096,4.0096,4.0096,4.0383,4.186,4.23,4.2604,4.4076,4.4533,4.4398,4.3524,4.3893,4.4465,4.4412,4.4513,4.4615,4.4615,4.4615,4.4615,4.4615,4.4615,4.4347,4.3541,4.4012,4.3789,4.1711,4.2033,4.2726,4.3321,4.4045,4.4198,4.349,4.2493,4.1933,4.1981,4.0395,3.9406,3.9406,3.9406,3.9406,3.9406,3.9406,3.9406,3.9406,3.9406,3.9406,3.9406,3.9406,3.9406,3.9406,3.9406,3.9406,0.0,0.0,0.0,0.0,0.0,0.0,0.0,0.0,0.0,0.0,0.0,0.0,0.0,0.0,0.0,0.0,0.0,0.0,0.0,0.0,0.0,0.0,0.0,0.0,0.0,0.0,0.0,0.0,0.0,0.0,3.8707,3.8699,3.8699,3.8699,3.8865,3.9258,3.989,4.0865,4.1672,4.2304,4.3121,4.3506,4.3506,4.3506,4.3205,4.2721,4.2875,4.2188,4.099,4.1314,4.092,4.0096,4.0096,4.0096,4.0096,4.0096,4.0096,4.0096,4.0096,4.0096,4.0096,4.0096,4.0096,4.0383,4.186,4.23,4.2489,4.3403,4.4113,4.4279,4.2909,4.3098,4.3507,4.2943,4.3721,4.4615,4.4615,4.4615,4.4615,4.4615,4.4615,4.4347,4.3541,4.3541,4.349,4.3,4.3589,4.3941,4.3457,4.3558,4.3592,4.3423,4.2036,4.1358,4.1949,4.0395,3.9406,3.9406,3.9406,3.9406,3.9406,3.9406,3.9406,3.9406,3.9406,3.9406,3.9406,3.9406,3.9406,3.9406,3.9406,3.9406,0.0,0.0,0.0,0.0,0.0,0.0,0.0,0.0,0.0,0.0,0.0,0.0,0.0,0.0,0.0,0.0,0.0,0.0,0.0,0.0,0.0,0.0,0.0,0.0,0.0,0.0,0.0,0.0,0.0,3.8699,3.8699,3.8699,3.8699,3.8699,3.8699,3.8909,3.9313,4.012,4.0744,4.1148,4.1974,4.2543,4.2937,4.3322,4.3357,4.306,4.2791,4.2195,4.1359,4.1099,4.0642,4.0096,4.0096,4.0096,4.0096,4.0096,4.0096,4.0096,4.0096,4.0096,4.0096,4.0096,4.0096,4.0303,4.1424,4.1762,4.1999,4.3085,4.3693,4.3758,4.2591,4.2861,4.3135,4.2033,4.2929,4.4028,4.4028,4.4028,4.4028,4.4028,4.3738,4.3366,4.2946,4.2878,4.2983,4.3355,4.3775,4.4012,4.3978,4.3978,4.3805,4.339,4.22,4.1422,4.138,4.015,3.9406,3.9406,3.9406,3.9406,3.9406,3.9705,3.972,3.9406,3.9406,3.9406,3.9406,3.9406,3.9556,3.9888,3.9888,4.0053,0.0,0.0,0.0,0.0,0.0,0.0,0.0,0.0,0.0,0.0,0.0,0.0,0.0,0.0,0.0,0.0,0.0,0.0,0.0,0.0,0.0,0.0,0.0,0.0,0.0,0.0,0.0,0.0,0.0,3.856,3.8681,3.8699,3.8699,3.8699,3.8699,3.8699,3.8699,3.9496,3.9908,3.9908,4.0865,4.1654,4.2323,4.3139,4.3506,4.3444,4.2513,4.2041,4.1874,4.0826,4.0336,4.0229,4.0133,4.0096,4.0096,4.0096,4.0096,4.0096,4.0096,4.0096,4.0096,4.0096,4.0096,4.0235,4.0984,4.1204,4.1508,4.2983,4.3406,4.3237,4.2489,4.276,4.2831,4.1373,4.2036,4.3102,4.3355,4.3406,4.344,4.3575,4.2895,4.2337,4.2472,4.2384,4.254,4.3288,4.3524,4.3859,4.4499,4.4615,4.4284,4.3381,4.252,4.1658,4.076,3.99,3.9406,3.9406,3.9406,3.9406,3.9406,3.993,3.9978,3.9406,3.9511,3.9511,3.9406,3.9406,3.9735,4.0397,4.0397,4.0756,0.0,0.0,0.0,0.0,0.0,0.0,0.0,0.0,0.0,0.0,0.0,0.0,0.0,0.0,0.0,0.0,0.0,0.0,0.0,0.0,0.0,0.0,0.0,0.0,0.0,0.0,0.0,0.0,3.8054,3.7962,3.867,3.8699,3.8699,3.8699,3.8699,3.8699,3.8699,3.9496,3.9908,3.9926,4.1423,4.2194,4.2323,4.3139,4.3506,4.3479,4.3339,4.3005,4.2537,4.1842,4.1257,4.0745,4.0274,4.0096,4.0096,4.0096,4.0096,4.0096,4.0096,4.0096,4.0096,4.0096,4.0096,4.0235,4.0984,4.1204,4.1508,4.2983,4.3406,4.3237,4.2489,4.2371,4.208,4.0591,4.0895,4.1833,4.3118,4.3406,4.3609,4.4296,4.3281,4.2489,4.3135,4.2726,4.254,4.3288,4.3995,4.4482,4.4598,4.4615,4.4284,4.3381,4.252,4.1658,4.076,3.99,3.9406,3.9406,3.9406,3.9406,3.9406,3.9496,3.9496,3.9406,3.996,3.9993,3.9406,3.9406,3.9735,4.0397,4.0397,4.0756,0.0,0.0,0.0,0.0,0.0,0.0,0.0,0.0,0.0,0.0,0.0,0.0,0.0,0.0,0.0,0.0,0.0,0.0,0.0,0.0,0.0,0.0,0.0,0.0,0.0,0.0,0.0,0.0,3.8377,3.8322,3.8689,3.8699,3.8699,3.8699,3.8699,3.8699,3.8699,3.9056,3.9239,3.9239,4.0865,4.1635,4.1672,4.2937,4.3506,4.347,4.3187,4.2741,4.2152,4.1545,4.0967,4.0441,4.0192,4.0096,4.0096,4.0096,4.0096,4.0096,4.0096,4.0096,4.0096,4.0096,4.0096,4.0235,4.0984,4.0916,4.098,4.2865,4.3102,4.2709,4.2384,4.23,4.1927,4.0438,4.0658,4.1478,4.2557,4.2777,4.2895,4.3247,4.3098,4.2895,4.2811,4.323,4.3552,4.3423,4.4079,4.4615,4.4615,4.4615,4.4078,4.2707,4.2221,4.1445,4.0095,3.9628,3.9406,3.9406,3.9406,3.9571,3.993,4.0322,4.0352,3.9978,3.9888,3.969,3.9406,3.9406,3.9735,4.0412,4.0786,4.1328,0.0,0.0,0.0,0.0,0.0,0.0,0.0,0.0,0.0,0.0,0.0,0.0,0.0,0.0,0.0,0.0,0.0,0.0,0.0,0.0,0.0,0.0,0.0,0.0,0.0,0.0,0.0,0.0,3.8505,3.8487,3.8681,3.8699,3.8699,3.8699,3.8699,3.8597,3.8395,3.8395,3.8505,3.8718,4.0333,4.1095,4.115,4.2763,4.3506,4.347,4.3069,4.2578,4.1979,4.138,4.0792,4.0286,4.0159,4.0096,4.0096,4.0096,4.0096,4.0096,4.0096,4.0096,4.0096,4.0096,4.0096,4.0202,4.0747,4.054,4.0519,4.2557,4.2726,4.2337,4.2523,4.2574,4.2202,4.0726,4.0946,4.1677,4.2422,4.274,4.2875,4.2875,4.3166,4.3288,4.2943,4.367,4.4147,4.3775,4.4228,4.4615,4.4615,4.4615,4.4035,4.2505,4.2125,4.1379,3.9864,3.9535,3.9406,3.9406,3.9556,3.9888,4.0382,4.1025,4.1089,4.0412,4.0083,3.981,3.9645,3.9825,4.0247,4.0905,4.1418,4.2002,0.0,0.0,0.0,0.0,0.0,0.0,0.0,0.0,0.0,0.0,0.0,0.0,0.0,0.0,0.0,0.0,0.0,0.0,0.0,0.0,0.0,0.0,0.0,0.0,0.0,0.0,0.0,0.0,3.7999,3.7889,3.867,3.8699,3.8699,3.8699,3.8699,3.8322,3.7566,3.7566,3.7944,3.8718,4.0333,4.1095,4.115,4.2763,4.3506,4.3506,4.3462,4.3142,4.2606,4.1989,4.1402,4.0815,4.0299,4.0096,4.0096,4.0096,4.0096,4.0096,4.0096,4.0096,4.0096,4.0096,4.0096,4.0113,4.0146,4.013,4.0417,4.1927,4.2333,4.2455,4.3152,4.3338,4.2966,4.1478,4.1711,4.2439,4.3186,4.3944,4.4479,4.4479,4.3893,4.3626,4.4364,4.391,4.3724,4.4432,4.4567,4.4615,4.4615,4.4615,4.4253,4.3336,4.2489,4.1625,4.0707,3.9882,3.9406,3.9406,4.0008,4.0367,4.0397,4.1025,4.1089,4.0412,4.0999,4.0965,4.0352,4.0999,4.1628,4.2306,4.2336,4.2676,0.0,0.0,0.0,0.0,0.0,0.0,0.0,0.0,0.0,0.0,0.0,0.0,0.0,0.0,0.0,0.0,0.0,0.0,0.0,0.0,0.0,0.0,0.0,0.0,0.0,0.0,0.0,0.0,0.0,3.7081,3.7889,3.7441,3.7412,3.7907,3.7925,3.8036,3.8267,3.8267,3.8414,3.8707,3.9808,4.0322,4.0377,4.1992,4.2727,4.2772,4.3286,4.2986,4.2111,4.1895,4.1241,4.0368,4.0184,4.0096,4.0096,4.0096,4.0096,4.0096,4.0096,4.0096,4.0096,4.0096,4.0096,4.0185,4.0658,4.0472,4.0519,4.2455,4.2675,4.2472,4.3203,4.3406,4.3271,4.2746,4.2814,4.322,4.3995,4.4398,4.4615,4.4615,4.4364,4.4262,4.455,4.4364,4.4279,4.455,4.4615,4.4615,4.4615,4.4615,4.4284,4.3381,4.252,4.1658,4.076,3.99,3.9406,3.9406,4.0038,4.0591,4.1029,4.1688,4.1931,4.1688,4.2297,4.1874,4.0397,4.1074,4.1523,4.1782,4.2201,4.2511,0.0,0.0,0.0,0.0,0.0,0.0,0.0,0.0,0.0,0.0,0.0,0.0,0.0,0.0,0.0,0.0,0.0,0.0,0.0,0.0,0.0,0.0,0.0,0.0,0.0,0.0,0.0,0.0,0.0,0.0,3.7474,3.6989,3.6824,3.7088,3.7099,3.7485,3.8285,3.8303,3.8432,3.8707,3.9523,4.0037,4.0341,4.1699,4.2451,4.2727,4.3267,4.2977,4.209,4.1885,4.1241,4.0343,4.0167,4.0096,4.0096,4.0096,4.0096,4.0096,4.0096,4.0096,4.0096,4.0096,4.0096,4.0185,4.0692,4.0489,4.0455,4.2172,4.2489,4.2472,4.3203,4.3406,4.3474,4.3727,4.3592,4.3626,4.4432,4.4615,4.4615,4.4615,4.4615,4.4615,4.4615,4.4615,4.4615,4.4615,4.4615,4.4615,4.4615,4.4615,4.4284,4.3381,4.252,4.1658,4.076,4.0114,3.9735,3.9735,4.0576,4.1268,4.1718,4.2361,4.2601,4.2396,4.3,4.2562,4.1074,4.1713,4.2043,4.2043,4.2476,4.2705,0.0,0.0,0.0,0.0,0.0,0.0,0.0,0.0,0.0,0.0,0.0,0.0,0.0,0.0,0.0,0.0,0.0,0.0,0.0,0.0,0.0,0.0,0.0,0.0,0.0,0.0,0.0,0.0,3.7401,3.7419,3.7456,3.7456,3.7081,3.6285,3.6285,3.6696,3.7492,3.7529,3.7925,3.8707,3.9523,4.0304,4.1067,4.1911,4.2708,4.3433,4.3469,4.3196,4.2645,4.2059,4.1435,4.081,4.0311,4.0096,4.0096,4.0096,4.0096,4.0096,4.0096,4.0096,4.0096,4.0096,4.0096,4.0096,4.013,4.013,4.0286,4.1052,4.1779,4.2489,4.3237,4.344,4.3626,4.4415,4.3995,4.3643,4.4432,4.4615,4.4615,4.4615,4.4615,4.4615,4.4615,4.4615,4.4615,4.4615,4.4615,4.4584,4.4556,4.4556,4.4224,4.3351,4.2489,4.1625,4.076,4.0524,4.0382,4.0367,4.1643,4.2396,4.2366,4.297,4.301,4.244,4.3015,4.2995,4.2425,4.2995,4.329,4.329,4.329,4.329,2.6406,0.0,0.0,0.0,0.0,0.0,0.0,0.0,0.0,0.0,0.0,0.0,0.0,0.0,0.0,0.0,0.0,0.0,0.0,0.0,0.0,0.0,0.0,0.0,0.0,0.0,0.0,0.0,3.5147,3.5356,3.6567,3.6622,3.6248,3.5389,3.5973,3.6696,3.7492,3.8072,3.8487,3.8707,3.9523,3.9717,3.9433,4.1405,4.2103,4.1819,4.2992,4.3196,4.2645,4.2059,4.1218,4.0311,4.0159,4.0096,4.0096,4.0096,4.0096,4.0096,4.0096,4.0096,4.0096,4.0096,4.0096,4.0197,4.0743,4.0899,4.1153,4.2425,4.2932,4.3284,4.4059,4.4279,4.433,4.4564,4.4432,4.433,4.455,4.4615,4.4615,4.4615,4.4615,4.4615,4.4615,4.4615,4.4615,4.4615,4.4615,4.4369,4.3741,4.3651,4.3336,4.2458,4.1593,4.0962,4.0724,4.0524,4.0187,3.9705,4.1388,4.2186,4.1688,4.2711,4.322,4.304,4.322,4.322,4.304,4.322,4.329,4.329,4.329,4.329,0.0,0.0,0.0,0.0,0.0,0.0,2.6038,2.6909,2.7796,0.0,0.0,0.0,0.0,0.0,0.0,0.0,0.0,0.0,0.0,0.0,0.0,0.0,0.0,0.0,0.0,3.4082,3.413,3.4949,3.4564,3.4883,3.6229,3.631,3.5892,3.5034,3.6174,3.6861,3.6997,3.8138,3.8699,3.8707,3.9184,3.9331,3.9239,4.0653,4.1405,4.1645,4.2318,4.2502,4.2282,4.1675,4.1053,4.0446,4.0209,4.0096,4.0096,4.0096,4.0096,4.0096,4.0096,4.0096,4.0096,4.0096,4.0096,4.0235,4.0984,4.1204,4.1441,4.2611,4.3152,4.3592,4.4398,4.4615,4.4615,4.4615,4.4615,4.4615,4.4615,4.4615,4.4615,4.4615,4.4615,4.4615,4.4615,4.4615,4.4615,4.4615,4.4615,4.4412,4.3902,4.3844,4.3482,4.251,4.1702,4.1163,4.1,4.0637,4.0472,4.0636,4.1747,4.2331,4.2207,4.2906,4.329,4.329,4.329,4.329,4.329,4.329,4.329,4.329,4.329,4.329,0.0,0.0,0.0,0.0,0.0,0.0,2.6967,2.7486,2.7893,2.6948,0.0,0.0,0.0,0.0,0.0,0.0,0.0,0.0,0.0,0.0,0.0,0.0,0.0,0.0,3.3532,3.3605,3.3965,3.4685,3.4906,3.5298,3.5991,3.6101,3.58,3.5016,3.6541,3.7063,3.6439,3.7936,3.8699,3.8699,3.8799,3.9166,3.978,3.9945,4.0763,4.2004,4.1579,4.1491,4.1633,4.1121,4.0903,4.0849,4.0303,4.0096,4.0096,4.0096,4.0096,4.0096,4.0096,4.0096,4.0096,4.0096,4.0096,4.0235,4.0984,4.1204,4.1373,4.2185,4.2963,4.3693,4.4415,4.4615,4.4615,4.4615,4.4615,4.4615,4.4615,4.4651,4.4719,4.4719,4.4651,4.4618,4.4702,4.4719,4.4719,4.4719,4.4787,4.4809,4.4707,4.4552,4.4029,4.2973,4.2169,4.1579,4.1224,4.0775,4.0999,4.2111,4.2396,4.272,4.319,4.3245,4.329,4.329,4.329,4.329,4.329,4.329,4.329,4.329,4.329,4.329,0.0,0.0,0.0,0.0,0.0,0.0,2.7986,2.881,2.9484,0.0,0.0,0.0,0.0,0.0,0.0,0.0,0.0,0.0,0.0,0.0,0.0,0.0,0.0,0.0,3.1868,3.2449,3.2894,3.306,3.4264,3.4784,3.4302,3.4901,3.5188,3.5016,3.6009,3.6769,3.7254,3.8212,3.8699,3.8707,3.935,3.9405,3.8982,4.0278,4.0681,4.0416,4.1098,4.1176,4.0849,4.0871,4.0643,4.0254,4.0146,4.0096,4.0096,4.0096,4.0096,4.0096,4.0096,4.0096,4.0096,4.0096,4.0096,4.0235,4.0984,4.1204,4.1491,4.2814,4.3758,4.4398,4.455,4.4615,4.4615,4.4615,4.4615,4.4615,4.4615,4.5074,4.5483,4.5483,4.5007,4.4787,4.5382,4.5483,4.5483,4.5483,4.5991,4.6123,4.5406,4.4195,4.3041,4.2131,4.0758,3.9879,3.9802,4.0651,4.1089,4.0801,4.2248,4.297,4.2586,4.3025,4.329,4.329,4.329,4.329,4.329,4.329,4.329,4.329,4.329,4.329,0.0,0.0,0.0,2.991,0.0,0.0,0.0,2.9467,2.9506,2.8662,0.0,0.0,0.0,0.0,0.0,0.0,0.0,0.0,0.0,0.0,0.0,0.0,0.0,0.0,3.139,3.1751,3.2167,3.2564,3.3727,3.4406,3.4406,3.5195,3.5445,3.5016,3.6229,3.6898,3.6898,3.8102,3.8699,3.8699,3.9111,3.9093,3.8718,3.9544,3.99,3.9939,4.0545,4.0709,4.0626,4.0819,4.0589,4.0096,4.0096,4.0096,4.0096,4.0096,4.0096,4.0096,4.0096,4.0096,4.0096,4.0096,4.0096,4.0235,4.0984,4.1698,4.2527,4.3673,4.4296,4.4615,4.4615,4.4615,4.4615,4.4615,4.4615,4.4685,4.5074,4.5432,4.5908,4.6652,4.6194,4.5819,4.6177,4.6244,4.6244,4.6244,4.6549,4.647,4.5557,4.4458,4.3362,4.2352,4.1244,4.0637,4.0887,4.1209,4.1519,4.1829,4.2476,4.2851,4.2851,4.3145,4.329,4.329,4.329,4.329,4.329,4.329,4.329,4.329,4.329,4.329,0.0,0.0,0.0,0.0,0.0,3.1058,0.0,0.0,0.0,2.9412,0.0,0.0,0.0,0.0,0.0,0.0,0.0,0.0,0.0,0.0,0.0,0.0,0.0,0.0,3.1133,3.1317,3.1733,3.2534,3.3341,3.4075,3.4729,3.544,3.5562,3.5023,3.6486,3.7033,3.6549,3.7973,3.8699,3.8699,3.8699,3.8699,3.8699,3.8699,3.9148,3.9913,4.0102,4.0342,4.0626,4.0819,4.0589,4.0096,4.0096,4.0096,4.0096,4.0096,4.0096,4.0096,4.0096,4.0096,4.0096,4.0096,4.0197,4.0422,4.1018,4.2222,4.3541,4.4195,4.4482,4.4615,4.4615,4.4615,4.4615,4.4615,4.4615,4.4753,4.5348,4.572,4.6261,4.7464,4.7445,4.7175,4.7039,4.7005,4.7005,4.7005,4.7005,4.6688,4.574,4.5018,4.4074,4.268,4.2158,4.1937,4.2008,4.1767,4.2028,4.3055,4.2776,4.2776,4.3275,4.329,4.329,4.329,4.329,4.329,4.329,4.329,4.329,4.329,4.329,4.329,0.0,0.0,0.0,0.0,3.3279,0.0,0.0,0.0,3.2045,3.0558,0.0,0.0,0.0,0.0,0.0,0.0,0.0,0.0,0.0,0.0,0.0,0.0,0.0,0.0,0.0,3.0987,3.1733,3.2534,3.3341,3.3844,3.3935,3.4027,3.4376,3.4979,3.5929,3.6732,3.7364,3.8248,3.8699,3.8699,3.8699,3.8699,3.8699,3.8699,3.9148,3.9913,4.0102,4.0342,4.0626,4.0819,4.0589,4.0096,4.0096,4.0096,4.0096,4.0096,4.0096,4.0096,4.0096,4.0096,4.0096,4.0096,4.054,4.1085,4.117,4.2222,4.3423,4.3507,4.4045,4.4615,4.4615,4.4615,4.4615,4.4615,4.4615,4.4632,4.4702,4.5751,4.6718,4.6887,4.7902,4.8545,4.7887,4.7785,4.7785,4.7785,4.7785,4.7461,4.6579,4.584,4.448,4.2162,4.2372,4.2132,4.0744,4.1643,4.2351,4.25,4.294,4.3235,4.329,4.329,4.329,4.329,4.329,4.329,4.329,4.329,4.329,4.329,4.329,4.329,0.0,0.0,0.0,0.0,0.0,0.0,3.3202,0.0,3.2699,0.0,0.0,0.0,0.0,0.0,0.0,0.0,2.9548,0.0,0.0,0.0,0.0,0.0,0.0,0.0,0.0,0.0,0.0,3.1158,3.1953,3.2614,3.3084,3.355,3.4167,3.4961,3.5855,3.6696,3.7492,3.8303,3.8699,3.8699,3.8699,3.8699,3.8699,3.8699,3.9148,3.9913,4.0102,4.0342,4.0626,4.0819,4.0589,4.0096,4.0096,4.0096,4.0096,4.0096,4.0096,4.0096,4.0096,4.0096,4.0096,4.0096,4.0608,4.1288,4.1711,4.2574,4.3507,4.3961,4.4347,4.4615,4.4615,4.4615,4.4615,4.4615,4.4615,4.4733,4.5159,4.572,4.6295,4.6733,4.7293,4.7767,4.7887,4.8242,4.8529,4.8529,4.8529,4.8218,4.7291,4.6077,4.4726,4.3136,4.2729,4.2281,4.1621,4.2387,4.2925,4.2925,4.316,4.329,4.329,4.329,4.329,4.329,4.329,4.329,4.329,4.329,4.329,4.329,4.329,4.329,3.3487,0.0,0.0,0.0,0.0,0.0,0.0,0.0,0.0,0.0,0.0,0.0,0.0,0.0,0.0,0.0,0.0,0.0,0.0,0.0,0.0,0.0,0.0,0.0,0.0,0.0,0.0,3.0167,3.1146,3.1971,3.2564,3.3366,3.4082,3.4656,3.5734,3.6585,3.718,3.8193,3.8699,3.8699,3.8699,3.8699,3.8699,3.8699,3.9169,3.9982,4.013,4.0372,4.0695,4.0838,4.0589,4.0096,4.0096,4.0096,4.0096,4.0096,4.0096,4.0096,4.0096,4.0096,4.0096,4.0096,4.0608,4.1339,4.2066,4.2828,4.3575,4.4364,4.4615,4.4615,4.4615,4.4615,4.4615,4.4615,4.4615,4.4736,4.528,4.5568,4.5872,4.6397,4.6819,4.7276,4.7819,4.8343,4.8781,4.8968,4.8817,4.8369,4.744,4.6304,4.5019,4.3661,4.3239,4.2885,4.243,4.2955,4.329,4.329,4.329,4.329,4.329,4.329,4.329,4.329,4.329,4.329,4.329,4.329,4.329,4.329,4.329,4.329,0.0,0.0,0.0,3.5234,0.0,0.0,0.0,0.0,3.4942,0.0,0.0,0.0,0.0,0.0,0.0,0.0,0.0,0.0,0.0,0.0,0.0,0.0,0.0,0.0,0.0,0.0,3.0173,3.021,3.1672,3.2564,3.2601,3.3366,3.3807,3.3844,3.544,3.631,3.6347,3.7918,3.8699,3.8699,3.8699,3.8699,3.8699,3.8699,3.9239,4.0194,4.0194,4.0466,4.0891,4.0903,4.0589,4.0096,4.0096,4.0096,4.0096,4.0096,4.0096,4.0096,4.0096,4.0096,4.0096,4.0096,4.0608,4.1339,4.2066,4.2828,4.3575,4.4364,4.4615,4.4615,4.4615,4.4615,4.4615,4.4615,4.4615,4.4615,4.4618,4.5196,4.572,4.5722,4.6889,4.787,4.7904,4.7921,4.8174,4.89,4.8394,4.763,4.6728,4.6535,4.5518,4.3096,4.3975,4.4086,4.2518,4.2955,4.329,4.329,4.329,4.329,4.329,4.329,4.329,4.329,4.329,4.329,4.329,4.329,4.329,4.329,4.329,4.329,0.0,0.0,3.5927,3.6215,0.0,0.0,0.0,0.0,0.0,0.0,0.0,0.0,0.0,0.0,0.0,0.0,0.0,0.0,0.0,0.0,0.0,0.0,0.0,0.0,0.0,0.0,0.0,2.9409,3.0907,3.1806,3.1806,3.3073,3.4045,3.4582,3.5697,3.6567,3.7088,3.8157,3.8699,3.8699,3.8699,3.8982,3.9486,3.9486,4.005,4.0969,4.0623,4.062,4.0868,4.0521,4.0262,4.0096,4.0096,4.0096,4.0096,4.0096,4.0096,4.0096,4.0096,4.0096,4.0096,4.0096,4.0929,4.1965,4.2232,4.3196,4.4262,4.4516,4.4615,4.4615,4.4615,4.4615,4.4615,4.4615,4.4615,4.4615,4.4615,4.5179,4.5703,4.5703,4.6498,4.7344,4.7819,4.7904,4.8157,4.89,4.8798,4.8302,4.7374,4.7243,4.6428,4.4351,4.4533,4.4319,4.3094,4.319,4.329,4.329,4.329,4.329,4.329,4.329,4.329,4.329,4.329,4.329,4.329,4.329,4.329,4.329,4.329,4.329,3.7853,3.7584,0.0,3.7157,3.7157,0.0,3.6115,0.0,0.0,0.0,0.0,0.0,0.0,0.0,0.0,0.0,0.0,0.0,0.0,0.0,0.0,0.0,0.0,0.0,0.0,0.0,2.8999,2.8999,3.0228,3.1097,0.0,3.2651,3.3745,3.4546,3.5697,3.6549,3.7063,3.8157,3.8699,3.8699,3.8699,3.8868,3.9207,3.9465,3.9868,4.0392,4.032,4.0408,4.0589,4.0254,4.0096,4.0096,4.0096,4.0096,4.0096,4.0096,4.0096,4.0096,4.0096,4.0269,4.0455,4.0197,4.1098,4.23,4.23,4.3179,4.4296,4.4838,4.4804,4.4651,4.4922,4.499,4.4939,4.4651,4.4804,4.499,4.499,4.5365,4.5788,4.6041,4.6684,4.7344,4.7819,4.8124,4.8445,4.8934,4.9001,4.8766,4.8177,4.7523,4.6643,4.5431,4.4684,4.3989,4.3349,4.329,4.329,4.329,4.329,4.329,4.329,4.329,4.3409,4.3653,4.3409,4.3429,4.3668,4.3429,4.329,4.329,4.329,4.329]}]]